[[{"header":{"parameterUnit":"m.s-1","parameterCategory":1,"la1":31.0,"la2":29.5877,"lo1":-88.7671,"lo2":-86.6584,"dy":0.0162,"dx":0.0185,"nx":115,"ny":88,"refTime":"2026-05-01T12:00:00:Z","depth":0,"parameterNumber":2,"parameterNumberName":"U-component_of_WINDS"},"data":[0.0,0.0,0.0,0.0,0.0,0.0,0.0,0.0,0.0,0.0,0.0,0.0,0.0,0.0,0.0,0.0,0.0,0.0,0.0,0.0,0.0,0.0,0.0,0.0,0.0,0.0,0.0,0.0,0.0,0.0,0.0,0.0,0.0,0.0,0.0,0.0,0.0,0.0,0.0,0.0,0.0,0.0,0.0,0.0,0.0,0.0,0.0,0.0,0.0,0.0,0.0,0.0,0.0,0.0,0.0,0.0,0.0,0.0,0.0,0.0,0.0,0.0,0.0,0.0,0.0,0.0,0.0,0.0,0.0,0.0,0.0,0.0,0.0,0.0,0.0,0.0,0.0,0.0,0.0,0.0,0.0,0.0,0.0,0.0,0.0,0.0,0.0,0.0,0.0,0.0,0.0,0.0,0.0,0.0,0.0,0.0,0.0,0.0,0.0,0.0,0.0,0.0,0.0,0.0,0.0,0.0,0.0,0.0,0.0,0.0,0.0,0.0,0.0,0.0,0.0,0.0,0.0,0.0,0.0,0.0,0.0,0.0,0.0,0.0,0.0,0.0,0.0,0.0,0.0,0.0,0.0,0.0,0.0,0.0,0.0,0.0,0.0,0.0,0.0,0.0,0.0,0.0,0.0,0.0,0.0,0.0,0.0,0.0,0.0,0.0,0.0,0.0,0.0,0.0,0.0,0.0,0.0,0.0,0.0,0.0,0.0,0.0,0.0,0.0,0.0,0.0,0.0,0.0,0.0,0.0,0.0,0.0,0.0,0.0,0.0,0.0,0.0,0.0,0.0,0.0,0.0,0.0,0.0,0.0,0.0,0.0,0.0,0.0,0.0,0.0,0.0,0.0,0.0,0.0,0.0,0.0,0.0,0.0,0.0,0.0,0.0,0.0,0.0,0.0,0.0,0.0,0.0,0.0,0.0,0.0,0.0,0.0,0.0,0.0,0.0,0.0,0.0,0.0,0.0,0.0,0.0,0.0,0.0,0.0,0.0,0.0,0.0,0.0,0.0,0.0,0.0,0.0,0.0,0.0,0.0,0.0,0.0,0.0,0.0,0.0,0.0,0.0,0.0,0.0,0.0,0.0,0.0,0.0,0.0,0.0,0.0,0.0,0.0,0.0,0.0,0.0,0.0,0.0,0.0,0.0,0.0,0.0,0.0,0.0,0.0,0.0,0.0,0.0,0.0,0.0,0.0,0.0,0.0,0.0,0.0,0.0,0.0,0.0,0.0,0.0,0.0,0.0,0.0,0.0,0.0,0.0,0.0,0.0,0.0,0.0,0.0,0.0,0.0,0.0,0.0,0.0,0.0,0.0,0.0,0.0,0.0,0.0,0.0,0.0,0.0,0.0,0.0,0.0,0.0,0.0,0.0,0.0,0.0,0.0,0.0,0.0,0.0,0.0,0.0,0.0,0.0,0.0,0.0,0.0,0.0,0.0,0.0,0.0,0.0,0.0,0.0,0.0,0.0,0.0,0.0,0.0,0.0,0.0,0.0,0.0,0.0,0.0,0.0,0.0,0.0,0.0,0.0,0.0,0.0,0.0,0.0,0.0,0.0,0.0,0.0,0.0,0.0,0.0,0.0,0.0,0.0,0.0,0.0,0.0,0.0,0.0,0.0,0.0,0.0,0.0,0.0,0.0,0.0,0.0,0.0,0.0,0.0,0.0,0.0,0.0,0.0,0.0,0.0,0.0,0.0,0.0,0.0,0.0,0.0,0.0,0.0,0.0,0.0,0.0,0.0,0.0,0.0,0.0,0.0,0.0,0.0,0.0,0.0,0.0,0.0,0.0,0.0,0.0,0.0,0.0,0.0,0.0,0.0,0.0,0.0,0.0,0.0,0.0,0.0,0.0,0.0,0.0,0.0,0.0,0.0,0.0,0.0,0.0,0.0,0.0,0.0,0.0,0.0,0.0,0.0,0.0,0.0,0.0,0.0,0.0,0.0,0.0,0.0,0.0,0.0,0.0,0.0,0.0,0.0,0.0,0.0,0.0,0.0,0.0,0.0,0.0,0.0,0.0,0.0,0.0,0.0,0.0,0.0,0.0,0.0,0.0,0.0,0.0,0.0,0.0,0.0,0.0,0.0,0.0,0.0,0.0,0.0,0.0,0.0,0.0,0.0,0.0,0.0,0.0,0.0,0.0,0.0,0.0,0.0,0.0,0.0,0.0,0.0,0.0,0.0,0.0,0.0,0.0,0.0,0.0,0.0,0.0,0.0,0.0,0.0,0.0,0.0,0.0,0.0,0.0,0.0,0.0,0.0,0.0,0.0,0.0,0.0,0.0,0.0,0.0,0.0,0.0,0.0,0.0,0.0,0.0,0.0,0.0,0.0,0.0,0.0,0.0,0.0,0.0,0.0,0.0,0.0,0.0,0.0,0.0,0.0,0.0,0.0,0.0,0.0,0.0,0.0,0.0,0.0,0.0,0.0,0.0,0.0,0.0,0.0,0.0,0.0,0.0,0.0,0.0,0.0,0.0,0.0,0.0,0.0,0.0,0.0,0.0,0.0,0.0,0.0,0.0,0.0,0.0,0.0,0.0,0.0,0.0,0.0,0.0,0.0,0.0,0.0,0.0,0.0,0.0,0.0,0.0,0.0,0.0,0.0,0.0,0.0,0.0,0.0,0.0,0.0,0.0,0.0,0.0,0.0,0.0,0.0,0.0,0.0,0.0,0.0,0.0,0.0,0.0,0.0,0.0,0.0,0.0,0.0,0.0,0.0,0.0,0.0,0.0,0.0,0.0,0.0,0.0,0.0,0.0,0.0,0.0,0.0,0.0,0.0,0.0,0.0,0.0,0.0,0.0,0.0,0.0,0.0,0.0,0.0,0.0,0.0,0.0,0.0,0.0,0.0,0.0,0.0,0.0,0.0,0.0,0.0,0.0,0.0,0.0,0.0,0.0,0.0,0.0,0.0,0.0,0.0,0.0,0.0,0.0,0.0,0.0,0.0,0.0,0.0,0.0,0.0,0.0,0.0,0.0,0.0,0.0,0.0,0.0,0.0,0.0,0.0,0.0,0.0,0.0,0.0,0.0,0.0,0.0,0.0,0.0,0.0,0.0,0.0,0.0,0.0,0.0,0.0,0.0,0.0,0.0,0.0,0.0,0.0,0.0,0.0,0.0,0.0,0.0,0.0,0.0,0.0,0.0,0.0,0.0,0.0,0.0,0.0,0.0,0.0,0.0,0.0,0.0,0.0,0.0,0.0,0.0,0.0,0.0,0.0,0.0,0.0,0.0,0.0,0.0,0.0,0.0,0.0,0.0,0.0,0.0,0.0,0.0,0.0,0.0,0.0,0.0,0.0,0.0,0.0,0.0,0.0,0.0,0.0,0.0,0.0,0.0,0.0,0.0,0.0,0.0,0.0,0.0,0.0,0.0,0.0,0.0,0.0,0.0,0.0,0.0,0.0,0.0,0.0,0.0,0.0,0.0,0.0,0.0,0.0,0.0,0.0,0.0,0.0,0.0,0.0,0.0,0.0,0.0,0.0,0.0,0.0,0.0,0.0,0.0,0.0,0.0,0.0,0.0,0.0,0.0,0.0,0.0,0.0,0.0,0.0,0.0,0.0,0.0,0.0,0.0,0.0,0.0,0.0,0.0,0.0,0.0,0.0,0.0,0.0,0.0,0.0,0.0,0.0,0.0,0.0,0.0,0.0,0.0,0.0,0.0,0.0,0.0,0.0,0.0,0.0,0.0,0.0,0.0,0.0,0.0,0.0,0.0,0.0,0.0,0.0,0.0,0.0,0.0,0.0,0.0,0.0,0.0,0.0,0.0,0.0,0.0,0.0,0.0,0.0,0.0,0.0,0.0,0.0,0.0,0.0,0.0,0.0,0.0,0.0,0.0,0.0,0.0,0.0,0.0,0.0,0.0,0.0,0.0,0.0,0.0,0.0,0.0,0.0,0.0,0.0,0.0,0.0,0.0,0.0,0.0,0.0,0.0,0.0,0.0,0.0,0.0,0.0,0.0,0.0,0.0,0.0,0.0,0.0,0.0,0.0,0.0,0.0,0.0,0.0,0.0,0.0,0.0,0.0,0.0,0.0,0.0,0.0,0.0,0.0,0.0,0.0,0.0,0.0,0.0,0.0,0.0,0.0,0.0,0.0,0.0,0.0,0.0,0.0,0.0,0.0,0.0,0.0,0.0,0.0,0.0,0.0,0.0,0.0,0.0,0.0,0.0,0.0,0.0,0.0,0.0,0.0,0.0,0.0,0.0,0.0,0.0,0.0,0.0,0.0,0.0,0.0,0.0,0.0,0.0,-1.0184,0.0,0.0,0.0,0.0,0.0,0.0,0.0,0.0,0.0,0.0,0.0,0.0,0.0,0.0,0.0,0.0,0.0,0.0,0.0,0.0,0.0,0.0,0.0,0.0,0.0,0.0,0.0,0.0,0.0,0.0,0.0,0.0,0.0,0.0,0.0,0.0,0.0,0.0,0.0,0.0,0.0,0.0,0.0,0.0,0.0,0.0,0.0,0.0,0.0,0.0,0.0,0.0,0.0,0.0,0.0,0.0,0.0,0.0,0.0,0.0,0.0,0.0,0.0,0.0,0.0,0.0,0.0,0.0,0.0,0.0,0.0,0.0,0.0,0.0,0.0,0.0,0.0,0.0,0.0,0.0,0.0,0.0,0.0,0.0,0.0,0.0,0.0,0.0,0.0,0.0,0.0,0.0,0.0,0.0,0.0,0.0,0.0,0.0,0.0,0.0,0.0,0.0,0.0,0.0,0.0,0.0,0.0,0.0,0.0,0.0,-1.0268,-1.02,-1.0184,-1.0195,-1.0194,0.0,0.0,0.0,0.0,0.0,0.0,0.0,0.0,0.0,0.0,0.0,0.0,0.0,0.0,0.0,0.0,0.0,0.0,0.0,0.0,0.0,0.0,0.0,0.0,0.0,0.0,0.0,0.0,0.0,0.0,0.0,0.0,0.0,0.0,0.0,0.0,0.0,0.0,0.0,0.0,0.0,0.0,0.0,0.0,0.0,0.0,0.0,0.0,0.0,0.0,0.0,0.0,0.0,0.0,0.0,0.0,0.0,0.0,0.0,0.0,0.0,0.0,0.0,0.0,0.0,0.0,0.0,0.0,0.0,0.0,0.0,0.0,0.0,0.0,0.0,0.0,0.0,0.0,0.0,0.0,0.0,0.0,0.0,0.0,0.0,0.0,0.0,0.0,0.0,0.0,0.0,0.0,0.0,0.0,0.0,0.0,0.0,0.0,0.0,0.0,0.0,0.0,0.0,0.0,0.0,0.0,0.0,0.0,0.0,0.0,0.0,0.0,-1.0685,-1.0683,-1.0506,0.0,0.0,0.0,0.0,0.0,0.0,0.0,0.0,0.0,0.0,0.0,0.0,0.0,0.0,0.0,0.0,0.0,0.0,0.0,0.0,0.0,0.0,0.0,0.0,0.0,0.0,0.0,0.0,0.0,0.0,0.0,0.0,0.0,0.0,0.0,0.0,0.0,0.0,0.0,0.0,0.0,0.0,0.0,0.0,0.0,0.0,0.0,0.0,0.0,0.0,0.0,0.0,0.0,0.0,0.0,0.0,0.0,0.0,0.0,0.0,0.0,0.0,0.0,0.0,0.0,0.0,0.0,0.0,0.0,0.0,0.0,0.0,0.0,0.0,0.0,0.0,0.0,0.0,0.0,0.0,0.0,0.0,0.0,0.0,0.0,0.0,0.0,0.0,0.0,0.0,0.0,0.0,0.0,0.0,0.0,0.0,0.0,0.0,0.0,0.0,0.0,0.0,0.0,0.0,0.0,0.0,0.0,0.0,0.0,0.0,-1.1483,-1.148,-1.2157,0.0,-1.1412,0.0,0.0,0.0,0.0,0.0,0.0,0.0,0.0,0.0,0.0,0.0,0.0,0.0,0.0,0.0,0.0,0.0,0.0,0.0,0.0,0.0,0.0,0.0,0.0,0.0,0.0,0.0,0.0,0.0,0.0,0.0,0.0,0.0,0.0,0.0,0.0,0.0,0.0,0.0,0.0,0.0,0.0,0.0,0.0,0.0,0.0,0.0,0.0,0.0,0.0,0.0,0.0,0.0,0.0,0.0,0.0,0.0,0.0,0.0,0.0,0.0,0.0,0.0,0.0,0.0,0.0,0.0,0.0,0.0,0.0,0.0,0.0,0.0,0.0,0.0,0.0,0.0,0.0,0.0,0.0,0.0,0.0,0.0,0.0,0.0,0.0,0.0,0.0,0.0,0.0,0.0,0.0,0.0,0.0,0.0,0.0,0.0,0.0,0.0,0.0,0.0,0.0,0.0,0.0,0.0,0.0,0.0,0.0,0.0,0.0,0.0,-1.2363,-1.2651,-1.2405,0.0,0.0,0.0,0.0,0.0,0.0,0.0,0.0,0.0,0.0,0.0,0.0,0.0,0.0,0.0,0.0,0.0,0.0,0.0,0.0,0.0,0.0,0.0,0.0,0.0,0.0,0.0,0.0,0.0,0.0,0.0,0.0,0.0,0.0,0.0,0.0,0.0,0.0,0.0,0.0,0.0,0.0,0.0,0.0,0.0,0.0,0.0,0.0,0.0,0.0,0.0,0.0,0.0,0.0,0.0,0.0,0.0,0.0,0.0,0.0,0.0,0.0,0.0,0.0,0.0,0.0,0.0,0.0,0.0,0.0,0.0,0.0,0.0,0.0,0.0,0.0,0.0,0.0,0.0,0.0,0.0,0.0,0.0,0.0,0.0,0.0,0.0,0.0,0.0,0.0,0.0,0.0,0.0,0.0,0.0,0.0,0.0,0.0,0.0,0.0,0.0,0.0,0.0,0.0,0.0,0.0,0.0,0.0,0.0,0.0,-1.1387,0.0,-1.3496,-1.3064,-1.2509,-1.1871,0.0,0.0,0.0,0.0,0.0,0.0,0.0,0.0,0.0,0.0,0.0,0.0,0.0,0.0,0.0,0.0,0.0,0.0,0.0,0.0,0.0,0.0,0.0,0.0,0.0,0.0,0.0,0.0,0.0,0.0,0.0,0.0,0.0,0.0,0.0,0.0,0.0,0.0,0.0,0.0,0.0,0.0,0.0,0.0,0.0,0.0,0.0,0.0,0.0,0.0,0.0,0.0,0.0,0.0,0.0,0.0,0.0,0.0,0.0,0.0,0.0,0.0,0.0,0.0,0.0,0.0,0.0,0.0,0.0,0.0,0.0,0.0,0.0,0.0,0.0,0.0,0.0,0.0,0.0,0.0,0.0,0.0,0.0,0.0,0.0,0.0,0.0,0.0,0.0,0.0,0.0,0.0,0.0,0.0,0.0,0.0,0.0,0.0,0.0,0.0,0.0,0.0,0.0,0.0,0.0,0.0,0.0,0.0,0.0,-1.1953,-1.3633,-1.5097,-1.367,-1.2786,0.0,0.0,0.0,0.0,0.0,0.0,0.0,0.0,0.0,0.0,0.0,0.0,0.0,0.0,0.0,0.0,0.0,0.0,0.0,0.0,0.0,0.0,0.0,0.0,0.0,0.0,0.0,0.0,0.0,0.0,0.0,0.0,0.0,0.0,0.0,0.0,0.0,0.0,0.0,0.0,0.0,0.0,0.0,0.0,0.0,0.0,0.0,0.0,0.0,0.0,0.0,0.0,0.0,0.0,0.0,0.0,0.0,0.0,0.0,0.0,0.0,0.0,0.0,0.0,0.0,0.0,0.0,0.0,0.0,0.0,0.0,0.0,0.0,0.0,0.0,0.0,0.0,0.0,0.0,0.0,0.0,0.0,0.0,0.0,0.0,0.0,0.0,0.0,0.0,0.0,0.0,0.0,0.0,0.0,0.0,0.0,0.0,0.0,0.0,0.0,0.0,0.0,0.0,0.0,0.0,0.0,0.0,0.0,0.0,-1.0391,-1.2012,-1.3184,-1.375,-1.3183,-1.2595,0.0,0.0,0.0,0.0,0.0,0.0,0.0,0.0,0.0,0.0,0.0,0.0,0.0,0.0,0.0,0.0,0.0,0.0,0.0,0.0,0.0,0.0,0.0,0.0,0.0,0.0,0.0,0.0,0.0,0.0,0.0,0.0,0.0,0.0,0.0,0.0,0.0,0.0,0.0,0.0,0.0,0.0,0.0,0.0,0.0,0.0,0.0,0.0,0.0,0.0,0.0,0.0,0.0,0.0,0.0,0.0,0.0,0.0,0.0,0.0,0.0,0.0,0.0,0.0,0.0,0.0,0.0,0.0,0.0,0.0,0.0,0.0,0.0,0.0,0.0,0.0,0.0,0.0,0.0,0.0,0.0,0.0,0.0,0.0,0.0,0.0,0.0,0.0,0.0,0.0,0.0,0.0,0.0,0.0,0.0,0.0,0.0,0.0,0.0,0.0,0.0,0.0,0.0,0.0,0.0,0.0,0.0,0.0,0.0,-1.1581,0.0,-1.371,0.0,-1.3418,-1.3008,0.0,0.0,0.0,0.0,0.0,0.0,0.0,0.0,0.0,0.0,0.0,0.0,0.0,0.0,0.0,0.0,0.0,0.0,0.0,0.0,0.0,0.0,0.0,0.0,0.0,0.0,0.0,0.0,0.0,0.0,0.0,0.0,0.0,0.0,0.0,0.0,0.0,0.0,0.0,0.0,0.0,0.0,0.0,0.0,0.0,0.0,0.0,0.0,0.0,0.0,0.0,0.0,0.0,0.0,0.0,0.0,0.0,0.0,0.0,0.0,0.0,0.0,0.0,0.0,0.0,0.0,0.0,0.0,0.0,0.0,0.0,0.0,0.0,0.0,0.0,0.0,0.0,0.0,0.0,0.0,0.0,0.0,0.0,0.0,0.0,0.0,0.0,0.0,0.0,0.0,0.0,0.0,0.0,0.0,0.0,0.0,0.0,0.0,0.0,0.0,0.0,0.0,0.0,0.0,0.0,0.0,0.0,0.0,-1.327,-1.4073,-1.491,-1.5321,-1.5365,-1.4508,-1.4062,0.0,0.0,0.0,0.0,0.0,0.0,0.0,0.0,0.0,0.0,0.0,0.0,0.0,0.0,0.0,0.0,0.0,0.0,0.0,0.0,0.0,0.0,0.0,0.0,0.0,0.0,0.0,0.0,0.0,0.0,0.0,0.0,0.0,0.0,0.0,0.0,0.0,0.0,0.0,0.0,0.0,0.0,0.0,0.0,0.0,0.0,0.0,0.0,0.0,0.0,0.0,0.0,0.0,0.0,0.0,0.0,0.0,0.0,0.0,0.0,0.0,0.0,0.0,0.0,0.0,0.0,0.0,0.0,0.0,0.0,0.0,0.0,0.0,0.0,0.0,0.0,0.0,0.0,0.0,0.0,0.0,0.0,0.0,0.0,0.0,0.0,0.0,0.0,0.0,0.0,0.0,0.0,0.0,0.0,0.0,0.0,0.0,0.0,0.0,0.0,0.0,0.0,0.0,0.0,0.0,0.0,0.0,0.0,0.0,-1.4992,-1.573,-1.5895,-1.5332,-1.4526,-1.409,0.0,0.0,0.0,0.0,0.0,0.0,0.0,0.0,0.0,0.0,0.0,0.0,0.0,0.0,0.0,0.0,0.0,0.0,0.0,0.0,0.0,0.0,0.0,0.0,0.0,0.0,0.0,0.0,0.0,0.0,0.0,0.0,0.0,0.0,0.0,0.0,0.0,0.0,0.0,0.0,0.0,0.0,0.0,0.0,0.0,0.0,0.0,0.0,0.0,0.0,0.0,0.0,0.0,0.0,0.0,0.0,0.0,0.0,0.0,0.0,0.0,0.0,0.0,0.0,0.0,0.0,0.0,0.0,0.0,0.0,0.0,0.0,0.0,0.0,0.0,0.0,0.0,0.0,0.0,0.0,0.0,0.0,0.0,0.0,0.0,0.0,0.0,0.0,0.0,0.0,0.0,0.0,0.0,0.0,0.0,0.0,0.0,0.0,0.0,0.0,0.0,0.0,0.0,0.0,0.0,0.0,0.0,0.0,0.0,-1.9087,-1.8979,-1.8214,-1.6793,-1.6272,-1.5706,-1.5075,0.0,0.0,0.0,0.0,0.0,0.0,0.0,0.0,0.0,0.0,0.0,0.0,0.0,0.0,0.0,0.0,0.0,0.0,0.0,0.0,0.0,0.0,0.0,0.0,0.0,0.0,0.0,0.0,0.0,0.0,0.0,0.0,0.0,0.0,0.0,0.0,0.0,0.0,0.0,0.0,0.0,0.0,0.0,0.0,0.0,0.0,0.0,0.0,0.0,0.0,0.0,0.0,0.0,0.0,0.0,0.0,0.0,0.0,0.0,0.0,0.0,0.0,0.0,0.0,0.0,0.0,0.0,0.0,0.0,0.0,0.0,0.0,0.0,0.0,0.0,0.0,0.0,0.0,0.0,0.0,0.0,0.0,0.0,0.0,0.0,0.0,0.0,0.0,0.0,0.0,0.0,0.0,0.0,0.0,0.0,0.0,0.0,0.0,0.0,0.0,0.0,0.0,0.0,0.0,0.0,0.0,0.0,0.0,-2.5436,-2.418,-2.2243,-1.9664,-1.9479,-1.864,0.0,0.0,0.0,0.0,0.0,0.0,0.0,0.0,0.0,0.0,0.0,0.0,0.0,0.0,0.0,0.0,0.0,0.0,0.0,0.0,0.0,0.0,0.0,0.0,0.0,0.0,0.0,0.0,0.0,0.0,0.0,0.0,0.0,0.0,0.0,0.0,0.0,0.0,0.0,0.0,0.0,0.0,0.0,0.0,0.0,0.0,0.0,0.0,0.0,0.0,0.0,0.0,0.0,0.0,0.0,0.0,0.0,0.0,0.0,0.0,0.0,0.0,0.0,0.0,0.0,0.0,0.0,0.0,0.0,0.0,0.0,0.0,0.0,0.0,0.0,0.0,0.0,0.0,0.0,0.0,0.0,0.0,0.0,0.0,0.0,0.0,0.0,0.0,0.0,0.0,0.0,0.0,0.0,0.0,0.0,0.0,0.0,0.0,0.0,0.0,0.0,0.0,0.0,0.0,0.0,0.0,0.0,0.0,0.0,-2.6365,-2.841,-2.772,-2.4059,-2.2734,-2.1276,0.0,0.0,0.0,0.0,0.0,0.0,0.0,0.0,0.0,0.0,0.0,0.0,0.0,0.0,0.0,0.0,0.0,0.0,0.0,0.0,0.0,0.0,0.0,0.0,0.0,0.0,0.0,0.0,0.0,0.0,0.0,0.0,0.0,0.0,0.0,0.0,0.0,0.0,0.0,0.0,0.0,0.0,0.0,0.0,0.0,0.0,0.0,0.0,0.0,0.0,0.0,0.0,0.0,0.0,0.0,0.0,0.0,0.0,0.0,0.0,0.0,0.0,0.0,0.0,0.0,0.0,0.0,0.0,0.0,0.0,0.0,0.0,0.0,0.0,0.0,0.0,0.0,0.0,0.0,0.0,0.0,0.0,0.0,0.0,0.0,0.0,0.0,0.0,0.0,0.0,0.0,0.0,0.0,0.0,0.0,0.0,0.0,0.0,0.0,0.0,0.0,0.0,0.0,0.0,0.0,0.0,0.0,0.0,-2.719,-2.8845,-3.2189,-3.2122,-2.8356,-2.5962,-2.3577,0.0,0.0,0.0,0.0,0.0,0.0,0.0,0.0,0.0,0.0,0.0,0.0,0.0,0.0,0.0,0.0,0.0,0.0,0.0,0.0,0.0,0.0,0.0,0.0,0.0,0.0,0.0,0.0,0.0,0.0,0.0,0.0,0.0,0.0,0.0,0.0,0.0,0.0,0.0,0.0,0.0,0.0,0.0,0.0,0.0,0.0,0.0,0.0,0.0,0.0,0.0,0.0,0.0,0.0,0.0,0.0,0.0,0.0,0.0,0.0,0.0,0.0,0.0,0.0,0.0,0.0,0.0,0.0,0.0,0.0,0.0,0.0,0.0,0.0,0.0,0.0,0.0,0.0,0.0,0.0,0.0,0.0,0.0,0.0,0.0,0.0,0.0,0.0,0.0,0.0,0.0,0.0,0.0,0.0,0.0,0.0,0.0,0.0,0.0,0.0,0.0,0.0,0.0,0.0,0.0,0.0,0.0,0.0,-2.9385,-3.1907,-3.5267,-3.55,-3.238,-2.9028,-2.5642,0.0,0.0,0.0,0.0,0.0,0.0,0.0,0.0,0.0,0.0,0.0,0.0,0.0,0.0,0.0,0.0,0.0,0.0,0.0,0.0,0.0,0.0,0.0,0.0,0.0,0.0,0.0,0.0,0.0,0.0,0.0,0.0,0.0,0.0,0.0,0.0,0.0,0.0,0.0,0.0,0.0,0.0,0.0,0.0,0.0,0.0,0.0,0.0,0.0,0.0,0.0,0.0,0.0,0.0,0.0,0.0,0.0,0.0,0.0,0.0,0.0,0.0,0.0,0.0,0.0,0.0,0.0,0.0,0.0,0.0,0.0,0.0,0.0,0.0,0.0,0.0,0.0,0.0,0.0,0.0,0.0,0.0,0.0,0.0,0.0,0.0,0.0,0.0,0.0,0.0,0.0,0.0,0.0,0.0,0.0,0.0,0.0,0.0,0.0,0.0,0.0,0.0,0.0,0.0,0.0,0.0,0.0,0.0,-3.0793,-3.2746,-3.6066,-3.6909,-3.4936,-3.0978,-2.7314,0.0,0.0,0.0,0.0,0.0,0.0,0.0,0.0,0.0,0.0,0.0,0.0,0.0,0.0,0.0,0.0,0.0,0.0,0.0,0.0,0.0,0.0,0.0,0.0,0.0,0.0,0.0,0.0,0.0,0.0,0.0,0.0,0.0,0.0,0.0,0.0,0.0,0.0,0.0,0.0,0.0,0.0,0.0,0.0,0.0,0.0,0.0,0.0,-0.9735,0.0,0.0,0.0,0.0,0.0,0.0,0.0,0.0,0.0,0.0,0.0,0.0,0.0,0.0,0.0,0.0,0.0,0.0,0.0,0.0,0.0,0.0,0.0,0.0,0.0,0.0,0.0,0.0,0.0,0.0,0.0,0.0,0.0,0.0,0.0,0.0,0.0,0.0,0.0,0.0,0.0,0.0,0.0,0.0,0.0,0.0,0.0,0.0,0.0,0.0,0.0,0.0,0.0,0.0,0.0,0.0,0.0,0.0,0.0,-3.2416,-3.4167,-3.7108,-3.79,-3.6255,-3.3319,-2.9817,0.0,0.0,0.0,0.0,0.0,0.0,0.0,0.0,0.0,0.0,0.0,0.0,0.0,0.0,0.0,0.0,0.0,0.0,0.0,0.0,0.0,0.0,0.0,0.0,0.0,0.0,0.0,0.0,0.0,0.0,0.0,0.0,0.0,0.0,0.0,0.0,0.0,0.0,0.0,0.0,0.0,0.0,0.0,0.0,0.0,0.0,0.0,0.0,0.0,0.0,0.0,0.0,0.0,0.0,0.0,0.0,0.0,0.0,0.0,0.0,0.0,0.0,0.0,0.0,0.0,0.0,0.0,0.0,0.0,0.0,0.0,0.0,0.0,0.0,0.0,0.0,0.0,0.0,0.0,0.0,0.0,0.0,0.0,0.0,0.0,0.0,0.0,0.0,0.0,0.0,0.0,0.0,0.0,0.0,0.0,0.0,0.0,0.0,0.0,0.0,0.0,0.0,0.0,0.0,0.0,0.0,0.0,-3.0775,-3.4122,-3.5885,-3.8238,-3.8714,-3.7123,-3.5348,-3.212,-2.7365,0.0,0.0,0.0,0.0,0.0,0.0,0.0,0.0,0.0,0.0,0.0,0.0,0.0,0.0,0.0,0.0,0.0,0.0,0.0,0.0,0.0,0.0,0.0,0.0,0.0,0.0,0.0,0.0,0.0,0.0,0.0,0.0,0.0,0.0,0.0,0.0,0.0,0.0,-0.7792,-0.8605,0.0,0.0,0.0,0.0,0.0,0.0,0.0,0.0,-1.0911,0.0,0.0,0.0,0.0,0.0,0.0,0.0,0.0,0.0,0.0,0.0,0.0,0.0,0.0,0.0,0.0,0.0,0.0,0.0,0.0,0.0,0.0,0.0,0.0,0.0,0.0,0.0,0.0,0.0,0.0,0.0,0.0,0.0,0.0,0.0,0.0,0.0,0.0,0.0,0.0,0.0,0.0,0.0,0.0,0.0,0.0,0.0,0.0,0.0,0.0,0.0,0.0,0.0,0.0,0.0,0.0,-2.8409,-3.2833,-3.5892,-3.7565,-3.9373,-3.9521,-3.7912,-3.5631,-3.2384,-2.8136,0.0,0.0,0.0,0.0,0.0,0.0,0.0,0.0,0.0,0.0,0.0,0.0,0.0,0.0,0.0,0.0,0.0,0.0,0.0,0.0,0.0,0.0,0.0,0.0,0.0,0.0,0.0,0.0,0.0,0.0,0.0,0.0,0.0,0.0,0.0,0.0,0.0,0.0,0.0,-0.9511,-1.0094,0.0,0.0,0.0,0.0,0.0,0.0,0.0,0.0,-1.13,0.0,0.0,0.0,0.0,0.0,0.0,0.0,0.0,0.0,0.0,0.0,0.0,0.0,0.0,0.0,0.0,0.0,0.0,0.0,0.0,0.0,0.0,0.0,0.0,0.0,0.0,0.0,0.0,0.0,0.0,0.0,0.0,0.0,0.0,0.0,0.0,0.0,0.0,0.0,0.0,0.0,0.0,0.0,0.0,0.0,0.0,0.0,0.0,0.0,0.0,0.0,0.0,0.0,0.0,0.0,-2.9679,-3.3962,-3.6942,-3.8642,-3.9861,-3.9726,-3.8119,-3.5648,-3.2403,0.0,0.0,0.0,0.0,0.0,0.0,0.0,0.0,0.0,0.0,0.0,0.0,0.0,0.0,0.0,0.0,0.0,0.0,0.0,0.0,0.0,0.0,0.0,0.0,0.0,0.0,0.0,0.0,0.0,0.0,0.0,0.0,0.0,0.0,0.0,0.0,0.0,0.0,0.0,0.0,-1.0391,-1.106,-1.1482,0.0,0.0,0.0,0.0,0.0,0.0,-1.2759,-1.2427,0.0,0.0,0.0,0.0,0.0,0.0,0.0,0.0,0.0,0.0,0.0,0.0,0.0,0.0,0.0,0.0,0.0,0.0,0.0,0.0,0.0,0.0,0.0,0.0,0.0,0.0,0.0,0.0,0.0,0.0,0.0,0.0,0.0,0.0,0.0,0.0,0.0,0.0,0.0,0.0,0.0,0.0,0.0,0.0,0.0,0.0,0.0,0.0,0.0,0.0,0.0,0.0,0.0,0.0,0.0,-3.0827,-3.4904,-3.7815,-3.9477,-4.0169,-3.9718,-3.8093,-3.545,-3.2163,0.0,0.0,0.0,0.0,0.0,0.0,0.0,0.0,0.0,0.0,0.0,0.0,0.0,0.0,0.0,0.0,0.0,0.0,0.0,0.0,0.0,0.0,0.0,0.0,0.0,0.0,0.0,0.0,0.0,0.0,0.0,0.0,0.0,0.0,0.0,0.0,0.0,0.0,0.0,0.0,0.0,-1.2257,-1.2953,-1.3165,0.0,0.0,0.0,0.0,-1.3877,-1.4074,0.0,0.0,0.0,0.0,0.0,0.0,0.0,0.0,0.0,0.0,0.0,0.0,0.0,0.0,0.0,0.0,0.0,0.0,0.0,0.0,0.0,0.0,0.0,0.0,0.0,0.0,0.0,0.0,0.0,0.0,0.0,0.0,0.0,0.0,0.0,0.0,0.0,0.0,0.0,0.0,0.0,0.0,0.0,0.0,0.0,0.0,0.0,0.0,0.0,0.0,0.0,0.0,0.0,0.0,0.0,0.0,-3.2526,-3.6065,-3.8661,-4.0265,-4.0439,-3.9703,-3.8026,-3.4864,-3.1536,0.0,0.0,0.0,0.0,0.0,0.0,0.0,0.0,0.0,0.0,0.0,0.0,0.0,0.0,0.0,0.0,0.0,0.0,0.0,0.0,0.0,0.0,0.0,0.0,0.0,0.0,0.0,0.0,0.0,0.0,0.0,0.0,0.0,0.0,0.0,0.0,0.0,0.0,0.0,0.0,0.0,-1.3769,-1.3936,-1.4547,-1.5296,0.0,0.0,-1.5744,-1.7076,-1.6164,0.0,0.0,0.0,0.0,0.0,0.0,0.0,0.0,0.0,0.0,0.0,0.0,0.0,0.0,0.0,0.0,0.0,0.0,0.0,0.0,0.0,0.0,0.0,0.0,0.0,0.0,0.0,0.0,0.0,0.0,0.0,0.0,0.0,0.0,0.0,0.0,0.0,0.0,0.0,0.0,0.0,0.0,0.0,0.0,0.0,0.0,0.0,0.0,0.0,0.0,0.0,0.0,0.0,0.0,0.0,-2.7357,-3.2776,-3.6257,-3.8815,-4.0439,-4.0496,-3.9457,-3.7317,-3.4449,-3.0937,0.0,0.0,0.0,0.0,0.0,0.0,0.0,0.0,0.0,0.0,0.0,0.0,0.0,0.0,0.0,0.0,0.0,0.0,0.0,0.0,0.0,0.0,0.0,0.0,0.0,0.0,0.0,0.0,0.0,0.0,0.0,0.0,0.0,0.0,0.0,0.0,0.0,0.0,0.0,0.0,0.0,0.0,-1.5425,-1.6205,0.0,0.0,0.0,-1.7692,-1.7919,0.0,0.0,0.0,0.0,0.0,0.0,0.0,0.0,0.0,0.0,0.0,0.0,0.0,0.0,0.0,0.0,0.0,0.0,0.0,0.0,0.0,0.0,0.0,0.0,0.0,0.0,0.0,0.0,0.0,0.0,0.0,0.0,0.0,0.0,0.0,0.0,0.0,0.0,0.0,0.0,0.0,0.0,0.0,0.0,0.0,0.0,0.0,0.0,0.0,0.0,0.0,0.0,0.0,0.0,0.0,0.0,0.0,-3.2833,-3.6257,-3.8815,-4.0439,-4.0496,-3.94,-3.7084,-3.4776,0.0,0.0,0.0,0.0,0.0,0.0,0.0,0.0,0.0,0.0,0.0,0.0,0.0,0.0,0.0,0.0,0.0,0.0,0.0,0.0,0.0,0.0,0.0,0.0,0.0,0.0,0.0,-0.543,0.0,0.0,0.0,0.0,0.0,0.0,0.0,0.0,0.0,0.0,0.0,0.0,0.0,0.0,-1.5931,-1.707,-1.7725,-1.8321,0.0,0.0,-1.9433,-1.9023,-1.912,-1.8552,0.0,0.0,0.0,0.0,0.0,0.0,0.0,0.0,0.0,0.0,0.0,0.0,0.0,0.0,0.0,0.0,0.0,0.0,0.0,0.0,0.0,0.0,0.0,0.0,0.0,0.0,0.0,0.0,0.0,0.0,0.0,0.0,0.0,0.0,0.0,0.0,0.0,0.0,0.0,0.0,0.0,0.0,0.0,0.0,0.0,0.0,0.0,0.0,0.0,0.0,0.0,0.0,0.0,0.0,0.0,-3.2795,-3.6257,-3.8815,-4.0419,-4.0496,-3.9669,-3.795,-3.6231,-3.3301,0.0,0.0,0.0,0.0,0.0,0.0,0.0,0.0,0.0,0.0,0.0,0.0,0.0,0.0,0.0,0.0,0.0,0.0,0.0,0.0,0.0,0.0,0.0,0.0,0.0,0.0,0.0,0.0,0.0,0.0,0.0,0.0,0.0,0.0,0.0,0.0,0.0,0.0,0.0,0.0,0.0,-1.7026,-1.8702,-1.8973,-1.9608,0.0,0.0,-2.0672,-2.1418,-2.0211,-1.8905,-1.7968,0.0,0.0,0.0,0.0,0.0,0.0,0.0,0.0,0.0,0.0,0.0,0.0,0.0,0.0,0.0,0.0,0.0,0.0,0.0,0.0,0.0,0.0,0.0,0.0,0.0,0.0,0.0,0.0,0.0,0.0,0.0,0.0,0.0,0.0,0.0,0.0,0.0,0.0,0.0,0.0,0.0,0.0,0.0,0.0,0.0,0.0,0.0,0.0,0.0,0.0,0.0,0.0,0.0,-2.7313,-3.2833,-3.6276,-3.8815,-4.0419,-4.0496,-3.9977,-3.8815,-3.7123,-3.4257,0.0,0.0,0.0,0.0,0.0,0.0,0.0,0.0,0.0,0.0,0.0,0.0,0.0,0.0,0.0,0.0,0.0,0.0,0.0,0.0,0.0,0.0,0.0,0.0,0.0,0.0,0.0,0.0,-0.6893,-0.7185,-0.8376,0.0,0.0,0.0,0.0,0.0,0.0,0.0,0.0,0.0,0.0,-1.7119,-1.8799,-1.995,0.0,0.0,-2.2341,-2.2521,-2.1843,-2.1188,-2.0104,-1.8243,-1.6242,0.0,0.0,0.0,0.0,0.0,0.0,0.0,0.0,0.0,0.0,0.0,0.0,0.0,0.0,0.0,0.0,0.0,0.0,0.0,0.0,0.0,0.0,0.0,0.0,0.0,0.0,0.0,0.0,0.0,0.0,0.0,0.0,0.0,0.0,0.0,0.0,0.0,0.0,0.0,0.0,0.0,0.0,0.0,0.0,0.0,0.0,0.0,0.0,0.0,0.0,0.0,0.0,-2.7255,-3.2833,-3.6257,-3.8815,-4.0458,-4.0496,-4.0131,-3.9284,-3.7853,-3.5238,0.0,0.0,0.0,0.0,0.0,0.0,0.0,0.0,0.0,0.0,0.0,0.0,0.0,0.0,0.0,0.0,0.0,0.0,0.0,0.0,0.0,0.0,0.0,0.0,0.0,0.0,0.0,0.0,-0.8076,-0.8286,-0.891,0.0,0.0,0.0,0.0,0.0,0.0,0.0,0.0,0.0,0.0,-1.7863,-1.9551,-2.1039,-2.2101,-2.2404,-2.3664,-2.3994,-2.2326,-2.1867,-2.0906,-1.8643,0.0,0.0,0.0,0.0,0.0,0.0,0.0,0.0,0.0,0.0,0.0,0.0,0.0,0.0,0.0,0.0,0.0,0.0,0.0,0.0,0.0,0.0,0.0,0.0,0.0,0.0,0.0,0.0,0.0,0.0,-1.4258,0.0,0.0,0.0,0.0,0.0,0.0,0.0,0.0,0.0,0.0,0.0,0.0,0.0,0.0,0.0,0.0,0.0,0.0,0.0,0.0,0.0,0.0,-2.7769,-3.2852,-3.6276,-3.8815,-4.0439,-4.0496,-4.0131,-3.9335,-3.843,-3.6367,-3.2909,0.0,0.0,0.0,0.0,0.0,0.0,0.0,0.0,0.0,0.0,0.0,0.0,0.0,0.0,0.0,0.0,0.0,0.0,0.0,0.0,0.0,0.0,0.0,0.0,0.0,0.0,-0.8976,-0.8918,-0.8901,0.0,0.0,0.0,0.0,0.0,0.0,0.0,0.0,0.0,0.0,-1.8414,-1.9573,-2.1286,-2.23,-2.3199,-2.4018,-2.4895,-2.4878,-2.3166,-2.2235,-2.1094,0.0,0.0,0.0,0.0,0.0,0.0,0.0,0.0,0.0,0.0,0.0,0.0,0.0,0.0,0.0,0.0,0.0,0.0,0.0,0.0,0.0,0.0,0.0,0.0,0.0,0.0,0.0,-2.1766,-2.0868,0.0,0.0,0.0,0.0,0.0,0.0,0.0,0.0,0.0,0.0,0.0,-3.0498,-3.0513,0.0,0.0,0.0,0.0,0.0,0.0,0.0,0.0,0.0,0.0,0.0,0.0,-2.7808,-3.2795,-3.6257,-3.8815,-4.0439,-4.0496,-4.0362,-4.0092,-3.8738,-3.561,-3.0562,0.0,0.0,0.0,0.0,0.0,0.0,0.0,0.0,0.0,0.0,0.0,0.0,0.0,0.0,0.0,0.0,0.0,0.0,0.0,0.0,0.0,0.0,0.0,0.0,0.0,-0.9847,0.0,0.0,0.0,0.0,0.0,0.0,0.0,0.0,0.0,0.0,0.0,-1.6042,-1.828,-1.9311,-2.0489,-2.2152,-2.3599,-2.4807,0.0,0.0,0.0,0.0,0.0,0.0,0.0,0.0,0.0,0.0,0.0,0.0,0.0,0.0,-1.6561,-1.5214,-1.4021,-1.3064,-1.2477,0.0,0.0,0.0,0.0,0.0,0.0,0.0,0.0,0.0,0.0,0.0,0.0,0.0,0.0,-2.6061,0.0,-2.3486,0.0,0.0,0.0,0.0,0.0,0.0,0.0,0.0,-3.2482,-3.3865,-3.5261,-3.5531,-3.5531,0.0,-3.6116,-3.3341,0.0,0.0,0.0,0.0,0.0,0.0,0.0,0.0,-2.8563,-3.3276,-3.6719,-3.9123,-4.0419,-4.0496,-4.0496,-4.0477,-3.8584,-3.5026,-2.9737,-2.6357,-2.3156,0.0,0.0,0.0,0.0,0.0,0.0,0.0,0.0,0.0,0.0,0.0,0.0,0.0,0.0,0.0,0.0,0.0,0.0,0.0,0.0,0.0,0.0,0.0,-1.0249,0.0,0.0,0.0,0.0,0.0,0.0,0.0,0.0,0.0,-1.4554,-1.5919,-1.758,-1.9238,-2.0716,-2.212,-2.3485,0.0,0.0,0.0,0.0,0.0,0.0,0.0,-2.4033,-2.3747,-2.3504,-2.3566,-2.4117,-2.3269,-2.2144,-2.1069,0.0,0.0,-1.7148,-1.5748,-1.4809,-1.4224,-1.3883,-1.3925,-1.472,-1.4874,-1.5121,0.0,0.0,0.0,0.0,0.0,0.0,0.0,0.0,-3.1188,-3.0351,0.0,-2.7796,0.0,0.0,0.0,0.0,0.0,-2.7446,0.0,0.0,-3.6934,-3.8584,-3.94,-4.0131,-4.015,-3.9488,-4.0112,-3.8765,-3.5411,-3.0648,0.0,0.0,0.0,0.0,0.0,0.0,-3.0012,-3.4167,-3.7553,-3.9688,-4.0458,-4.0496,-4.0458,-4.0342,-3.8007,-3.4788,-3.075,-2.8816,-2.603,-2.1991,-1.93,0.0,0.0,0.0,0.0,0.0,0.0,0.0,0.0,0.0,0.0,0.0,0.0,0.0,0.0,0.0,0.0,0.0,0.0,0.0,0.0,-0.9763,0.0,0.0,0.0,0.0,0.0,0.0,0.0,0.0,0.0,0.0,-1.5804,-1.8334,-2.0385,-2.0481,0.0,0.0,0.0,0.0,-2.8852,-2.8203,-2.941,-2.9577,-2.7173,-2.675,-2.6452,-2.576,0.0,0.0,-2.6808,-2.5456,-2.4369,-2.4276,-2.3501,-2.2187,-1.9718,-1.7915,-1.674,-1.6643,-1.5945,-1.5676,-1.6367,-1.659,-1.6799,-4.1281,0.0,0.0,0.0,0.0,-3.4357,-3.5345,-3.6357,-3.6124,-3.519,-3.3732,-3.2673,0.0,0.0,0.0,0.0,0.0,0.0,-3.4975,-3.793,-3.9831,-4.1181,-4.2027,-4.2239,-4.2239,-4.2008,-4.1623,-4.0623,-3.8969,-3.5784,-3.1998,-2.7651,0.0,0.0,0.0,0.0,-3.0858,-3.5007,-3.7873,-3.9688,-4.0496,-4.0496,-3.9938,-3.8757,-3.7411,-3.5565,-3.3179,-3.0306,-2.7925,-2.6107,-2.193,0.0,0.0,0.0,0.0,0.0,0.0,0.0,0.0,0.0,0.0,0.0,0.0,0.0,0.0,0.0,0.0,0.0,0.0,0.0,-1.1501,-1.1852,-1.2219,0.0,0.0,0.0,0.0,0.0,0.0,0.0,0.0,0.0,-2.0704,-2.1451,-2.2524,0.0,0.0,-2.6409,-2.7813,-2.9159,-3.0352,-3.1333,0.0,0.0,0.0,-2.9717,-2.9448,-2.9838,-3.0106,-3.0065,-2.944,-2.8424,-2.7311,-2.6174,-2.5206,-2.4174,-2.2887,-2.0837,-1.9187,-1.8508,-1.7694,-1.738,-1.8074,-1.8284,-1.8531,-4.7517,-4.2946,-4.1485,-4.0356,-3.9638,-4.0113,-4.1028,-4.207,-4.1414,-4.0545,-3.9483,-3.8349,-3.6646,-3.4559,-3.3386,0.0,0.0,0.0,-3.9013,-4.0877,-4.2536,-4.3412,-4.3605,-4.3932,-4.3912,-4.3547,-4.3047,-4.2354,-4.1489,-3.9988,-3.7526,-3.4026,0.0,0.0,-3.0339,-3.0877,-3.2891,-3.6385,-3.8642,-4.0015,-4.0496,-4.0496,-3.9708,-3.8065,-3.7488,-3.6103,-3.3763,-3.1416,-2.9434,-2.7934,-2.4004,-2.0905,0.0,0.0,0.0,0.0,0.0,0.0,0.0,0.0,0.0,0.0,0.0,-1.0427,0.0,0.0,0.0,0.0,-1.0705,-1.1876,-1.3535,-1.3682,0.0,0.0,0.0,0.0,0.0,0.0,0.0,-1.9642,-2.2432,-2.4562,-2.5202,-2.589,-2.6332,-2.6346,-2.7659,-2.9006,-2.9987,0.0,-3.2141,-3.2814,-3.2776,-3.2564,-3.2218,-3.1737,-3.1577,-3.2083,-3.2179,-3.2025,-3.1481,-3.0429,-2.9294,-2.825,-2.6846,-2.5678,-2.5183,-2.3334,-2.16,-2.0762,-2.015,-1.9982,-2.0415,-2.0496,-2.0693,-5.1779,-5.0904,-4.8548,-4.6932,-4.5922,-4.5883,-4.6759,-4.8048,-4.646,-4.5768,-4.5575,-4.4066,-4.2471,-4.0797,-3.9277,0.0,-4.0933,-4.179,-4.2585,-4.3374,-4.4951,-4.522,-4.447,-4.521,-4.519,-4.4393,-4.4259,-4.3816,-4.3104,-4.2989,-4.2604,-4.1635,-3.4788,-3.2449,-3.459,-3.4648,-3.5815,-3.8277,-3.9815,-4.0573,-4.0496,-4.0496,-3.9688,-3.8046,-3.8007,-3.6411,-3.3179,-3.2218,-3.0679,-2.828,-2.5712,-2.317,-2.0719,0.0,0.0,0.0,0.0,0.0,0.0,0.0,0.0,0.0,0.0,0.0,0.0,0.0,0.0,0.0,-1.2552,0.0,-1.5442,-1.5654,0.0,0.0,0.0,-1.7753,-1.9323,-2.0269,-2.1404,-2.2913,0.0,0.0,-2.903,-3.0775,-3.1044,-2.8703,-3.0371,-3.1814,-3.1891,-3.316,-3.3936,-3.3295,-3.3776,-3.4007,-3.3333,-3.3141,-3.3122,-3.3179,-3.3064,-3.2987,-3.2852,-3.1602,-3.0615,-3.025,-2.8365,-2.664,-2.6621,-2.5149,-2.3975,-2.3225,-2.284,-2.2701,-2.2609,-2.2586,-2.2566,-5.4684,-5.4463,-5.3857,-5.1625,-4.8509,-4.849,-4.8721,-4.8971,-4.7971,-4.7163,-4.6547,-4.6187,-4.5081,-4.3481,-4.3098,-4.3115,-4.3554,-4.5026,-4.5432,-4.5066,-4.6086,-4.6124,-4.5325,-4.5498,-4.5498,-4.5229,-4.3989,-4.3278,-4.3085,-4.2431,-4.2008,-4.1712,-3.9962,-3.9065,-3.8977,-3.8399,-3.9008,-4.0873,-4.1277,-4.1181,-4.0516,-4.0496,-3.9688,-3.8046,-3.8007,-3.6719,-3.3994,-3.3064,-3.2045,-3.0794,-2.7741,-2.5149,-2.3272,-2.0169,0.0,0.0,0.0,0.0,0.0,0.0,0.0,0.0,0.0,-1.3285,-1.3487,0.0,-1.4147,0.0,-1.5642,-1.7218,-1.8923,-1.9635,0.0,0.0,-2.1897,-2.2701,-2.3692,-2.4577,-2.5274,-2.5659,-2.7948,-2.9635,-3.0044,-3.2141,-3.3378,-3.2763,-3.2622,-3.2852,-3.3506,-3.3917,-3.4372,-3.4769,-3.5,-3.5115,-3.4865,-3.4885,-3.4846,-3.4865,-3.4314,-3.3898,-3.3898,-3.2506,-3.1198,-3.0462,-2.889,-2.7486,-2.6774,-2.5731,-2.5308,-2.5428,-2.4178,-2.2797,-2.2797,-2.2836,-2.2816,-5.5684,-5.5684,-5.5684,-5.4337,-5.2193,-5.1818,-5.1664,-5.1606,-5.0741,-5.0125,-4.9683,-4.9278,-4.8421,-4.7225,-4.7204,-4.7214,-4.7295,-4.8153,-4.8125,-4.7336,-4.7798,-4.7548,-4.6721,-4.6701,-4.6345,-4.5575,-4.4259,-4.3451,-4.3085,-4.2604,-4.2547,-4.2931,-4.3297,-4.3239,-4.2728,-4.1219,-4.1066,-4.2354,-4.1981,-4.1558,-4.1085,-4.0708,-3.9688,-3.8065,-3.7623,-3.6219,-3.3718,-3.2795,-3.1987,-3.1115,-2.8602,-2.6582,-2.5216,-2.1981,-1.8942,0.0,0.0,0.0,0.0,0.0,0.0,0.0,0.0,0.0,0.0,0.0,-1.739,-1.8496,-1.9788,-2.1235,-2.2947,-2.3505,-2.4274,-2.5471,-2.6029,-2.6645,-2.7481,-2.764,-2.8005,-2.8775,-3.0121,-3.125,-3.2025,-3.366,-3.4776,-3.4776,-3.4365,-3.4237,-3.4661,-3.4795,-3.4949,-3.5423,-3.55,-3.55,-3.55,-3.55,-3.55,-3.5462,-3.5096,-3.4776,-3.4737,-3.3699,-3.2526,-3.1615,-3.0135,-2.8756,-2.7871,-2.7024,-2.6659,-2.6813,-2.6082,-2.5029,-2.4562,-2.4505,-2.4409,-5.5684,-5.5684,-5.5684,-5.5684,-5.5645,-5.4953,-5.4587,-5.4453,-5.3587,-5.3145,-5.2991,-5.2231,-5.1452,-5.0712,-5.0596,-5.0519,-5.0539,-5.0423,-4.9913,-4.9106,-4.9183,-4.8779,-4.7952,-4.8048,-4.7278,-4.5768,-4.4759,-4.3932,-4.3278,-4.3162,-4.3508,-4.4297,-4.5171,-4.5594,-4.5498,-4.3393,-4.2604,-4.322,-4.2508,-4.2008,-4.1788,-4.1046,-3.9804,-3.8084,-3.7154,-3.5462,-3.2891,-3.2064,-3.1288,-3.0404,-2.889,-2.7659,-2.6736,-2.3639,-2.1085,0.0,-1.7959,0.0,0.0,0.0,0.0,0.0,0.0,0.0,0.0,-1.9843,-2.0935,-2.3259,-2.4221,-2.5375,-2.6948,-2.7198,-2.7832,-2.9242,-2.9511,-2.989,-3.0577,-2.9948,-3.0063,-3.1679,-3.1852,-3.2468,-3.3891,-3.4968,-3.5481,-3.5423,-3.5385,-3.5404,-3.5615,-3.5519,-3.5442,-3.55,-3.55,-3.55,-3.55,-3.55,-3.55,-3.55,-3.5462,-3.55,-3.5442,-3.4699,-3.3833,-3.2929,-3.1577,-3.0269,-2.9294,-2.8492,-2.8063,-2.803,-2.7909,-2.7582,-2.6832,-2.6467,-2.6351,-5.5684,-5.5684,-5.5684,-5.5684,-5.5684,-5.553,-5.5088,-5.4434,-5.3568,-5.2799,-5.2135,-5.1962,-5.1452,-5.0673,-4.9952,-4.9644,-4.9606,-4.8913,-4.8144,-4.7394,-4.8048,-4.7913,-4.7201,-4.7798,-4.7605,-4.6605,-4.5066,-4.422,-4.4066,-4.3412,-4.3508,-4.4316,-4.5171,-4.5594,-4.5575,0.0,0.0,0.0,-4.3912,-4.3162,-4.1865,-4.1643,-4.0431,-3.8084,-3.7161,0.0,-3.2141,-3.1775,-3.1308,-3.0442,-2.941,0.0,0.0,0.0,0.0,0.0,0.0,0.0,0.0,0.0,0.0,0.0,-2.6203,-2.5702,-2.3419,-2.4387,-2.5664,-2.6837,-2.7684,-2.8563,-2.9577,-3.0308,-3.0871,-3.1179,-3.1795,-3.2256,-3.2391,-3.1698,-3.1621,-3.2526,-3.266,-3.3045,-3.4052,-3.4949,-3.55,-3.5538,-3.55,-3.5769,-3.6404,-3.5942,-3.5519,-3.55,-3.5558,-3.5519,-3.55,-3.55,-3.55,-3.55,-3.55,-3.55,-3.5423,-3.4635,-3.3712,-3.3045,-3.2295,-3.1212,-2.9531,-2.8973,-2.8973,-2.8896,-2.8896,-2.8626,-2.7813,-2.7101,-2.6544,-5.6748,0.0,-5.6434,-5.6232,0.0,-5.5817,-5.5576,-5.5151,-5.4657,-5.3722,-5.2568,-5.2538,-5.1625,-5.0029,-4.9586,-4.9144,-4.8721,-4.8298,-4.7875,-4.7538,-4.8355,-4.8529,-4.8163,-4.899,-4.8721,-4.7451,-4.6201,-4.5143,-4.4316,-4.3893,-4.3893,-4.4316,-4.5171,-4.5594,-4.5594,-4.5594,-4.5383,-4.494,-4.4509,-4.3701,-4.2481,-4.2019,-4.0796,-3.8719,0.0,0.0,0.0,0.0,0.0,0.0,0.0,0.0,0.0,0.0,0.0,-2.4101,-2.4005,-2.4197,-2.4678,-2.6236,-2.7736,-2.9044,-3.0256,-2.9921,-2.7387,-2.8382,-2.9294,-2.9756,-3.0506,-3.1333,-3.2179,-3.2679,-3.3103,-3.3519,-3.3949,-3.4192,-3.4058,-3.3045,-3.2641,-3.3314,-3.3167,-3.3218,-3.4083,-3.5334,-3.6038,-3.6115,-3.6462,-3.6853,-3.718,-3.6615,-3.6096,-3.6096,-3.6096,-3.5923,-3.5596,-3.55,-3.55,-3.55,-3.55,-3.55,-3.55,-3.5038,-3.4404,-3.3737,-3.3641,-3.3154,-3.1468,-3.0987,-3.0877,-3.0493,-3.039,-3.0102,-2.9294,-2.8448,-2.7544,-5.7852,-5.712,-5.7186,-5.6783,-5.602,-5.5982,-5.5912,-5.5876,0.0,0.0,0.0,-5.326,-5.1952,-4.9856,-4.9375,-4.8798,-4.8086,-4.7798,-4.774,-4.7932,-4.8759,-4.926,-4.9433,-5.0279,-4.9885,-4.8336,-4.7481,-4.6297,-4.4797,-4.4605,-4.4528,-4.4605,-4.5267,-4.5594,-4.5594,-4.5594,-4.5594,-4.5575,-4.4893,-4.4066,-4.3124,-4.2412,-4.1162,-3.9342,-3.7757,-3.6481,-3.5519,-3.3981,-3.3141,-3.3103,-3.1679,-3.0846,-3.0769,-2.8717,-2.7505,-2.7505,-2.7505,-2.7871,-2.8736,-2.9531,-3.0679,-3.2256,-3.2987,-3.2635,-3.0981,-3.1635,-3.2141,-3.2141,-3.3006,-3.3872,-3.4584,-3.4795,-3.5141,-3.5865,-3.5923,-3.5904,-3.5635,-3.4346,-3.368,-3.4199,-3.3699,-3.3468,-3.4372,-3.5731,-3.6712,-3.6788,-3.7334,-3.8104,-3.8084,-3.7488,-3.693,-3.6942,-3.6923,-3.6699,-3.6135,-3.5827,-3.5731,-3.5788,-3.5635,-3.55,-3.55,-3.55,-3.5212,-3.4564,-3.5058,-3.4654,-3.3487,-3.3006,-3.2833,-3.2083,-3.191,-3.1712,-3.1,-3.016,-2.9006,-5.7941,-5.7196,-5.7323,-5.6906,-5.6152,-5.6104,-5.6002,-5.5884,-5.5757,-5.5164,-5.428,-5.353,-5.2606,-5.1442,-4.925,-4.8202,-4.8009,-4.6586,-4.6355,0.0,-4.7913,-4.8682,-4.9433,-5.0289,-5.0183,-4.9202,-4.8355,-4.7451,-4.6547,-4.5797,-4.5421,-4.5441,-4.5556,-4.5594,-4.5594,-4.5594,-4.5594,-4.5594,-4.5479,-4.4662,-4.3143,-4.2989,-4.1758,-3.9411,-3.8354,-3.7084,-3.5558,-3.4564,-3.4013,-3.3994,-3.3083,-3.2545,-3.2506,-3.1525,-3.0987,-3.0987,-3.0968,-3.1333,-3.2141,-3.3013,-3.391,-3.4846,-3.5077,-3.4404,-3.2756,-3.3353,-3.3859,-3.3898,-3.518,-3.6192,-3.6392,-3.6949,-3.7353,-3.7565,-3.7603,-3.7365,-3.6615,-3.5692,-3.5115,-3.5269,-3.4545,-3.4334,-3.5218,-3.6154,-3.6808,-3.6885,-3.7719,-3.8315,-3.8815,-3.8354,-3.7873,-3.7815,-3.7815,-3.7757,-3.745,-3.6962,-3.6577,-3.6546,-3.5942,-3.5558,-3.55,-3.55,-3.5423,-3.5308,-3.5404,-3.5084,-3.418,-3.4013,-3.3648,-3.2949,-3.2737,-3.2641,-3.2391,-3.1679,-3.0448,-5.9194,-5.8127,-5.8168,-5.7463,-5.6308,-5.6195,-5.6116,-5.6059,-5.5922,-5.5354,-5.4444,-5.3587,-5.2491,-5.1144,-4.9529,-4.8548,-4.8067,-4.7298,-4.7163,-4.7605,-4.8432,-4.9009,-4.9452,-5.0279,-5.05,-5.0087,-4.9702,-4.9086,-4.8279,-4.7836,-4.7201,-4.6355,-4.5845,-4.5594,-4.5594,-4.5594,-4.5594,-4.5594,-4.5594,-4.4998,-4.3778,-4.3316,-4.2316,-4.07,-3.9392,-3.8373,-3.7603,-3.6719,-3.6045,-3.5565,-3.4757,-3.4103,-3.3603,-3.2795,-3.2564,-3.3026,-3.3506,-3.4115,-3.4911,-3.5776,-3.643,-3.6827,-3.6853,-3.6546,-3.5738,-3.5199,-3.5084,-3.5507,-3.6288,-3.6885,-3.7353,-3.7757,-3.8007,-3.8007,-3.8007,-3.7834,-3.7411,-3.6661,-3.6154,-3.6077,-3.5411,-3.5231,-3.6058,-3.6873,-3.7623,-3.8046,-3.8834,-3.9515,-3.9861,-3.9611,-3.9181,-3.8796,-3.8707,-3.8469,-3.8104,-3.77,-3.7238,-3.6808,-3.6404,-3.5981,-3.5635,-3.55,-3.55,-3.55,-3.55,-3.5346,-3.493,-3.4911,-3.4526,-3.3859,-3.3609,-3.3487,-3.2968,-3.1929,-3.0308,-6.0273,-5.8829,-5.8903,-5.798,-5.6458,-5.6294,-5.6233,-5.6201,-5.6117,-5.5623,-5.4814,-5.3928,-5.282,-5.1549,-5.0316,-4.9391,-4.8747,-4.8323,-4.8246,-4.8496,-4.9132,-4.9536,-4.9787,-5.0441,-5.074,-5.074,-5.075,-5.0287,-4.9527,-4.9441,-4.8576,-4.699,-4.6037,-4.5594,-4.5594,-4.5594,-4.5594,-4.5594,-4.5594,-4.519,-4.4316,-4.3682,-4.2893,-4.1788,-4.0566,-3.9758,-3.9554,-3.8738,-3.7969,-3.7296,-3.65,-3.5757,-3.509,-3.443,-3.4353,-3.5026,-3.568,-3.6327,-3.6949,-3.7603,-3.8007,-3.8007,-3.8007,-3.7988,-3.7892,-3.6827,-3.6288,-3.6911,-3.7199,-3.7623,-3.818,-3.8507,-3.8565,-3.8565,-3.8565,-3.8527,-3.8277,-3.77,-3.718,-3.6981,-3.6288,-3.6077,-3.6892,-3.7565,-3.8354,-3.9381,-4.0131,-4.0477,-4.0496,-4.0496,-4.0189,-3.9804,-3.9573,-3.9361,-3.8661,-3.8392,-3.7969,-3.7135,-3.6788,-3.6308,-3.575,-3.55,-3.55,-3.55,-3.55,-3.5462,-3.5481,-3.5462,-3.5173,-3.4622,-3.4487,-3.4218,-3.341,-3.1968,-3.0135,-6.0369,-5.9004,-5.9061,-5.8123,-5.6663,-5.6436,-5.6338,-5.6297,-5.6207,-5.6144,-5.5876,-5.4998,-5.4456,-5.4003,-5.1826,-5.0743,-5.0531,-4.908,-4.8829,-4.9506,-4.9556,-5.0001,-5.0708,-5.0863,-5.0874,-5.0882,-5.0882,-5.046,-4.9694,-4.9528,-4.8619,-4.6999,-4.6028,-4.5614,-4.5594,-4.5594,-4.5594,-4.5594,-4.5594,-4.519,-4.4355,-4.422,-4.3431,-4.1854,-4.1654,-4.1181,-4.0419,-3.9611,-3.915,-3.9008,-3.8207,-3.7719,-3.7591,-3.7526,-3.7546,-3.7603,-3.7719,-3.7815,-3.7892,-3.795,-3.8065,-3.8007,-3.8084,-3.8104,-3.8084,-3.7892,-3.7796,-3.8007,-3.8611,-3.8977,-3.9207,-3.9765,-4.0092,-4.0035,-4.0112,-4.0015,-3.9304,-3.9111,-3.8757,-3.7969,-3.7077,-3.6923,-3.7603,-3.7969,-3.8642,-3.9958,-4.0323,-4.0496,-4.0496,-4.0496,-4.0477,-4.0362,-4.0362,-4.0323,-4.0054,-3.9611,-3.8873,-3.8027,-3.7231,-3.6635,-3.6077,-3.5635,-3.5519,-3.5712,-3.55,-3.55,-3.55,-3.55,-3.5462,-3.5288,-3.5161,-3.5058,-3.416,-3.2795,-3.0929,-6.082,-5.9809,-5.9831,-5.89,-5.7416,-5.6737,-5.6443,-5.6403,-5.634,-5.632,-5.6273,-5.5867,-5.5375,-5.4705,-5.3177,-5.2478,-5.242,-5.1785,-5.1649,-5.196,-5.196,-5.1896,-5.1728,-5.1728,-5.1495,-5.1042,-5.1023,-5.0823,-5.0408,-4.9846,-4.9136,-4.8307,-4.7048,-4.6124,-4.5652,-4.5594,-4.5344,-4.4883,-4.5325,-4.5421,-4.5047,-4.4547,-4.397,-4.3278,-4.2327,-4.1662,-4.1239,-4.0492,-3.9849,-3.9389,-3.9024,-3.8601,-3.8144,-3.8106,-3.8357,-3.8839,-3.9341,-3.9598,-3.9616,-3.9557,-3.9536,-3.9526,-3.9503,-3.9469,-3.9477,-3.9469,-3.9488,-3.9477,-3.9361,-3.9457,-3.9938,-4.0304,-4.0496,-4.0496,-4.0496,-4.0362,-4.0073,-3.9585,-3.913,-3.8726,-3.7565,-3.7038,-3.7853,-3.845,-3.9027,-3.9785,-4.015,-4.0496,-4.0496,-4.0496,-4.0496,-4.0496,-4.0496,-4.0496,-4.0458,-4.0265,-3.965,-3.8977,-3.8488,-3.795,-3.7084,-3.6,-3.5635,-3.6096,-3.5769,-3.5519,-3.55,-3.55,-3.55,-3.55,-3.5462,-3.5231,-3.4372,-3.3667,-3.2179,-6.1134,-6.0398,-5.9938,-5.9003,-5.783,-5.6927,-5.6529,-5.6523,-5.6469,-5.6463,-5.6463,-5.6463,-5.6071,-5.5307,-5.4437,-5.405,-5.4011,-5.3797,-5.368,-5.368,-5.368,-5.3228,-5.2444,-5.2366,-5.1953,-5.1252,-5.115,-5.1118,-5.0936,-5.0091,-4.9594,-4.9225,-4.7782,-4.6645,-4.6056,-4.5806,-4.5354,-4.4861,-4.5362,-4.5651,-4.5574,-4.5027,-4.4586,-4.4229,-4.3124,-4.2288,-4.1797,-4.1266,-4.0593,-3.9824,-3.9766,-3.9524,-3.8974,-3.8921,-3.9207,-3.9788,-4.0383,-4.0734,-4.0712,-4.0662,-4.0635,-4.0624,-4.0554,-4.0496,-4.0496,-4.0496,-4.0496,-4.0419,-3.9958,-3.9919,-4.0362,-4.0496,-4.0496,-4.0496,-4.0496,-4.0496,-4.0439,-3.9785,-3.9304,-3.9169,-3.7738,-3.7019,-3.793,-3.89,-3.9688,-3.9785,-4.0169,-4.0496,-4.0496,-4.0496,-4.0496,-4.0496,-4.0496,-4.0496,-4.0496,-4.0458,-4.0131,-3.9611,-3.9169,-3.8842,-3.8219,-3.6853,-3.6,-3.6519,-3.5942,-3.5558,-3.55,-3.55,-3.55,-3.55,-3.5462,-3.5327,-3.4814,-3.443,-3.3378,-6.1123,-6.0234,-5.8691,-5.8144,-5.7851,-5.7012,-5.6621,-5.668,-5.6601,-5.6601,-5.6582,-5.6582,-5.6562,-5.6404,-5.5506,-5.5139,-5.5025,-5.4365,-5.4033,-5.4033,-5.3994,-5.3465,-5.2603,-5.2564,-5.2174,-5.1453,-5.1414,-5.1273,-5.1063,-5.0258,-4.9724,-4.9521,-4.7985,-4.7108,-4.6844,-4.6167,-4.5754,-4.5568,-4.5703,-4.578,-4.578,-4.5722,-4.5232,-4.4471,-4.4209,-4.339,-4.212,-4.1855,-4.1479,-4.0692,-4.074,-4.0704,-4.0664,-4.0634,-4.0634,-4.0692,-4.075,-4.0788,-4.0777,-4.0729,-4.0706,-4.0674,-4.0583,-4.0496,-4.0516,-4.0593,-4.0631,-4.0516,-4.0612,-4.0612,-4.065,-4.0593,-4.0516,-4.0496,-4.0496,-4.0496,-4.0496,-3.9688,-3.9361,-3.9015,-3.7738,-3.7103,-3.7873,-3.9431,-4.0112,-4.0265,-4.0439,-4.0496,-4.0496,-4.0496,-4.0496,-4.0496,-4.0496,-4.0496,-4.0496,-4.0496,-4.015,-3.9746,-3.9496,-3.9188,-3.8488,-3.7834,-3.745,-3.693,-3.6365,-3.5942,-3.5635,-3.55,-3.55,-3.55,-3.55,-3.5308,-3.5161,-3.4641,-3.3795,-6.1501,-6.1133,-5.998,-5.9492,-5.9336,-5.8027,-5.7422,-5.7383,-5.6836,-5.6621,-5.6621,-5.6621,-5.6621,-5.6582,-5.6246,-5.6105,-5.6074,-5.5753,-5.5636,-5.5636,-5.5616,-5.5148,-5.4385,-5.4328,-5.3545,-5.2354,-5.2198,-5.1826,-5.1193,-5.0821,-5.0641,-5.0281,-4.8827,-4.7745,-4.7123,-4.6302,-4.5622,-4.522,-4.5589,-4.5855,-4.5855,-4.5855,-4.5678,-4.5328,-4.4775,-4.4221,-4.3615,-4.3137,-4.2751,-4.249,-4.2045,-4.1765,-4.1704,-4.124,-4.0944,-4.0925,-4.0944,-4.0932,-4.0914,-4.0852,-4.0805,-4.0761,-4.0648,-4.0576,-4.0642,-4.1004,-4.1335,-4.1393,-4.1893,-4.2143,-4.1931,-4.1189,-4.0496,-4.0496,-4.0516,-4.0554,-4.0246,-3.9335,-3.845,-3.8277,-3.7392,-3.6911,-3.7526,-3.8661,-3.9669,-3.9785,-4.0169,-4.0458,-4.0516,-4.0516,-4.0496,-4.0516,-4.0496,-4.0496,-4.0496,-4.0496,-4.0381,-4.0227,-4.0054,-4.0015,-3.9573,-3.94,-3.9084,-3.8238,-3.743,-3.6673,-3.6442,-3.5654,-3.5615,-3.55,-3.55,-3.55,-3.5481,-3.5045,-3.4545,-6.1699,-6.1562,-6.0762,-6.039,-6.0215,-5.8594,-5.789,-5.7793,-5.6992,-5.6621,-5.6621,-5.6621,-5.6621,-5.6621,-5.6621,-5.6621,-5.6621,-5.6601,-5.6601,-5.6621,-5.6621,-5.6133,-5.541,-5.5293,-5.4375,-5.2871,-5.2383,-5.1889,-5.1334,-5.1252,-5.1213,-5.1046,-4.9664,-4.8557,-4.77,-4.684,-4.6025,-4.546,-4.5729,-4.5998,-4.6002,-4.5983,-4.6002,-4.5913,-4.5425,-4.4944,-4.4657,-4.4127,-4.3726,-4.3482,-4.3022,-4.2624,-4.2295,-4.1516,-4.1067,-4.1067,-4.1067,-4.1039,-4.1035,-4.0958,-4.0898,-4.084,-4.073,-4.0719,-4.101,-4.1509,-4.1873,-4.2277,-4.2701,-4.3085,-4.2893,-4.2027,-4.1343,-4.1343,-4.1343,-4.1208,-4.0893,-3.97,-3.87,-3.8142,-3.7873,-3.7603,-3.77,-3.8873,-3.9585,-3.9688,-4.0189,-4.0535,-4.0835,-4.065,-4.065,-4.0823,-4.065,-4.0554,-4.0496,-4.0496,-4.0496,-4.04,-4.0342,-4.0458,-4.0496,-4.0496,-4.0227,-3.9457,-3.8661,-3.7853,-3.7,-3.6115,-3.5731,-3.5596,-3.55,-3.55,-3.55,-3.55,-3.5084,-6.1699,-6.1601,-6.0781,-6.0488,-6.0273,-5.873,-5.7949,-5.7871,-5.6992,-5.6621,-5.6621,-5.6621,-5.6621,-5.6621,-5.6621,-5.6621,-5.6621,-5.6621,-5.6621,-5.6621,-5.6621,-5.6172,-5.5449,-5.5449,-5.4531,-5.2832,-5.1874,-5.1441,-5.1391,-5.1363,-5.1345,-5.1149,-5.0366,-4.9471,-4.8703,-4.7813,-4.6991,-4.6367,-4.6233,-4.6192,-4.6209,-4.6192,-4.6192,-4.6192,-4.6106,-4.5693,-4.481,-4.4798,-4.4504,-4.3862,-4.3726,-4.3313,-4.2539,-4.1816,-4.1308,-4.1406,-4.1328,-4.1249,-4.1223,-4.1243,-4.1262,-4.1197,-4.0937,-4.128,-4.1841,-4.2044,-4.2379,-4.3002,-4.3272,-4.3294,-4.3341,-4.3214,-4.3025,-4.3047,-4.2797,-4.247,-4.1835,-4.1008,-3.9873,-3.87,-3.8796,-3.9277,-3.9469,-4.0123,-4.0642,-4.0593,-4.0727,-4.1008,-4.1431,-4.1085,-4.1008,-4.1239,-4.095,-4.0496,-4.0477,-4.0496,-4.0496,-4.0496,-4.0477,-4.0496,-4.0496,-4.0496,-4.0323,-3.9688,-3.9169,-3.8373,-3.7777,-3.6923,-3.6327,-3.6115,-3.5865,-3.5885,-3.6058,-3.6161,-3.5795,-6.1699,-6.168,-6.1406,-6.1289,-6.1074,-5.9512,-5.8789,-5.8613,-5.7265,-5.6621,-5.6621,-5.6621,-5.6621,-5.6621,-5.6621,-5.6621,-5.6621,-5.6621,-5.6621,-5.6621,-5.6621,-5.6465,-5.623,-5.6152,-5.5273,-5.3594,-5.209,-5.1387,-5.1387,-5.1387,-5.1382,-5.1204,-5.0547,-5.0032,-4.9629,-4.8334,-4.7397,-4.7142,-4.6576,-4.6263,-4.6263,-4.6269,-4.6269,-4.6263,-4.6263,-4.6104,-4.5825,-4.5767,-4.5627,-4.533,-4.4874,-4.4197,-4.3418,-4.3047,-4.291,-4.291,-4.293,-4.2929,-4.2888,-4.284,-4.2762,-4.2735,-4.2649,-4.2718,-4.2978,-4.3389,-4.3752,-4.417,-4.4614,-4.4962,-4.4943,-4.4962,-4.4423,-4.3256,-4.3085,-4.3094,-4.2701,-4.1931,-4.0969,-4.0104,-4.0489,-4.0969,-4.1143,-4.1681,-4.1816,-4.1393,-4.17,-4.2104,-4.1797,-4.147,-4.1123,-4.0989,-4.0593,-4.0458,-4.0458,-4.0642,-4.0835,-4.0777,-4.0727,-4.0535,-4.0496,-4.0477,-4.0285,-4.0015,-3.9496,-3.8977,-3.8354,-3.7738,-3.7096,-3.7019,-3.7115,-3.7142,-3.7142,-3.6815,-3.6295,-6.1699,-6.1699,-6.1699,-6.1699,-6.1504,-5.9902,-5.9199,-5.8926,-5.7344,-5.6621,-5.6621,-5.6621,-5.6621,-5.6621,-5.6621,-5.6621,-5.6621,-5.6621,-5.6621,-5.6621,-5.6621,-5.6621,-5.6465,-5.5859,-5.5156,-5.3906,-5.2226,-5.1406,-5.1387,-5.1387,-5.1387,-5.1289,-5.0879,-5.0469,-5.0117,-4.8828,-4.7988,-4.7558,-4.6758,-4.6289,-4.6289,-4.6289,-4.6289,-4.6289,-4.6289,-4.6289,-4.6289,-4.6265,-4.624,-4.6107,-4.5447,-4.4726,-4.4219,-4.3887,-4.3711,-4.3711,-4.3691,-4.3672,-4.371,-4.3591,-4.37,-4.364,-4.3574,-4.3673,-4.3897,-4.4466,-4.4688,-4.5128,-4.5497,-4.5846,-4.5801,-4.582,-4.5267,-4.4315,-4.416,-4.3924,-4.3564,-4.2797,-4.2143,-4.1681,-4.195,-4.2058,-4.2058,-4.2154,-4.2258,-4.1643,-4.1777,-4.2258,-4.1739,-4.1508,-4.1123,-4.0835,-4.07,-4.0585,-4.045,-4.0739,-4.1162,-4.1123,-4.1027,-4.0708,-4.0496,-4.0496,-4.04,-4.0169,-3.9765,-3.9323,-3.8738,-3.82,-3.7661,-3.7969,-3.8157,-3.7834,-3.7526,-3.7007,-3.6495,-6.1699,-6.1699,-6.1699,-6.1699,-6.1484,-5.9902,-5.9199,-5.8926,-5.7363,-5.6621,-5.6621,-5.6621,-5.6621,-5.6621,-5.6621,-5.6621,-5.6621,-5.6621,-5.6621,-5.6621,-5.6621,-5.6621,-5.6445,-5.5215,-5.4473,-5.3965,-5.2402,-5.1582,-5.1601,-5.1465,-5.1387,-5.1367,-5.1308,-5.1035,-5.0293,-4.9375,-4.8437,-4.7773,-4.6816,-4.6308,-4.6289,-4.6289,-4.6289,-4.6289,-4.6289,-4.6289,-4.6289,-4.6289,-4.6289,-4.6191,-4.5547,-4.5156,-4.4941,-4.4297,-4.4023,-4.4082,-4.3906,-4.4004,-4.3945,-4.4141,-4.4101,-4.4113,-4.4096,-4.4016,-4.4779,-4.4947,-4.5203,-4.5724,-4.5903,-4.5942,-4.5942,-4.5942,-4.5837,-4.5869,-4.5465,-4.5105,-4.4429,-4.372,-4.3355,-4.3258,-4.3201,-4.2912,-4.2231,-4.22,-4.17,-4.1258,-4.1143,-4.1546,-4.172,-4.17,-4.1258,-4.1066,-4.1027,-4.1027,-4.1027,-4.1566,-4.195,-4.195,-4.1739,-4.1362,-4.0766,-4.0631,-4.0523,-4.0292,-4.01,-3.9657,-3.9345,-3.8943,-3.8681,-3.8791,-3.8662,-3.8241,-3.8017,-3.7775,-3.7237,-6.1699,-6.1699,-6.1699,-6.1699,-6.1465,-5.9922,-5.9199,-5.8984,-5.7344,-5.6621,-5.6621,-5.6621,-5.6621,-5.6621,-5.6621,-5.6621,-5.6621,-5.6621,-5.6621,-5.6621,-5.6621,-5.6621,-5.6426,-5.5508,-5.4941,-5.4668,-5.3164,-5.2363,-5.2305,-5.1699,-5.1406,-5.1387,-5.1387,-5.1308,-5.0918,-4.9648,-4.8867,-4.8359,-4.7012,-4.6308,-4.6289,-4.6289,-4.6289,-4.6289,-4.6289,-4.6289,-4.6289,-4.6289,-4.6289,-4.6289,-4.6113,-4.5976,-4.5879,-4.5644,-4.5449,-4.5449,-4.5527,-4.5566,-4.5547,-4.5527,-4.5566,-4.5603,-4.538,-4.562,-4.5783,-4.5816,-4.5913,-4.6125,-4.6125,-4.6105,-4.6125,-4.6105,-4.6072,-4.5974,-4.5835,-4.5596,-4.5271,-4.5094,-4.494,-4.4893,-4.4344,-4.3871,-4.3448,-4.3006,-4.2563,-4.2294,-4.2197,-4.2302,-4.2317,-4.2098,-4.1748,-4.1659,-4.1604,-4.1643,-4.1816,-4.2374,-4.2739,-4.2816,-4.2624,-4.2305,-4.1554,-4.0893,-4.0704,-4.0469,-4.0419,-4.0092,-4.0221,-4.0153,-3.9972,-3.9612,-3.9689,-3.956,-3.9586,-3.9425,-3.8584,-6.1699,-6.1699,-6.1699,-6.1699,-6.1484,-5.9902,-5.9199,-5.8867,-5.7383,-5.6621,-5.6621,-5.6621,-5.6621,-5.6621,-5.6621,-5.6621,-5.6621,-5.6621,-5.6621,-5.6621,-5.6621,-5.6621,-5.6387,-5.5723,-5.5293,-5.5098,-5.3555,-5.2793,-5.2539,-5.1836,-5.1445,-5.1387,-5.1387,-5.1387,-5.1308,-5.0156,-4.9238,-4.873,-4.7539,-4.6699,-4.6328,-4.6289,-4.6289,-4.6289,-4.6289,-4.6289,-4.6289,-4.6289,-4.6289,-4.6289,-4.6289,-4.6289,-4.6289,-4.6289,-4.6289,-4.6289,-4.6289,-4.6269,-4.6289,-4.6289,-4.6289,-4.6288,-4.625,-4.623,-4.6221,-4.6254,-4.6248,-4.6249,-4.6249,-4.6248,-4.6228,-4.6243,-4.6175,-4.6059,-4.592,-4.5815,-4.5704,-4.5634,-4.5665,-4.5549,-4.524,-4.4585,-4.4064,-4.3466,-4.3081,-4.2695,-4.2394,-4.269,-4.2941,-4.2598,-4.2432,-4.244,-4.2536,-4.2666,-4.2963,-4.3504,-4.3916,-4.3979,-4.3516,-4.3184,-4.231,-4.1397,-4.0889,-4.0699,-4.0687,-4.0672,-4.0726,-4.0765,-4.0565,-4.0426,-4.0712,-4.0712,-4.0537,-4.028,-3.952,-6.1699,-6.1699,-6.1699,-6.1699,-6.1445,-5.9941,-5.9199,-5.8867,-5.7344,-5.6621,-5.6621,-5.6621,-5.6621,-5.6621,-5.6621,-5.6621,-5.6621,-5.6621,-5.6621,-5.6621,-5.6621,-5.6621,-5.6523,-5.5937,-5.5605,-5.5332,-5.375,-5.3242,-5.3008,-5.2187,-5.1601,-5.1601,-5.1523,-5.1387,-5.123,-5.0527,-4.9805,-4.9101,-4.8242,-4.748,-4.6933,-4.6719,-4.6621,-4.6582,-4.6328,-4.6308,-4.6289,-4.6289,-4.6289,-4.6289,-4.6289,-4.6289,-4.6289,-4.6289,-4.6289,-4.6289,-4.6289,-4.6289,-4.6289,-4.6289,-4.6289,-4.6289,-4.6289,-4.6289,-4.6289,-4.6289,-4.6289,-4.6289,-4.6289,-4.6289,-4.6288,-4.6305,-4.6234,-4.6128,-4.61,-4.5998,-4.578,-4.577,-4.5815,-4.5783,-4.5744,-4.4866,-4.3918,-4.326,-4.3073,-4.2917,-4.2781,-4.3097,-4.3336,-4.32,-4.3239,-4.3427,-4.3601,-4.3802,-4.4215,-4.4692,-4.5028,-4.5202,-4.4511,-4.3937,-4.2988,-4.211,-4.1323,-4.0956,-4.1203,-4.1108,-4.084,-4.0829,-4.0828,-4.0817,-4.0852,-4.084,-4.077,-4.049,-3.9921,-6.1699,-6.1699,-6.1699,-6.1699,-6.1426,-5.9941,-5.9199,-5.9062,-5.7363,-5.6621,-5.6621,-5.6621,-5.6621,-5.6621,-5.6621,-5.6621,-5.6621,-5.6621,-5.6621,-5.6621,-5.6621,-5.6621,-5.6582,-5.6308,-5.6308,-5.5996,-5.5254,-5.4726,-5.4355,-5.3125,-5.2422,-5.2324,-5.168,-5.1387,-5.1269,-5.0703,-5.0156,-4.9785,-4.9043,-4.8535,-4.8144,-4.7598,-4.7305,-4.7187,-4.6621,-4.6308,-4.6289,-4.6289,-4.6289,-4.6289,-4.6289,-4.6289,-4.6289,-4.6289,-4.6289,-4.6289,-4.6289,-4.6289,-4.6289,-4.6289,-4.6289,-4.6289,-4.6289,-4.6289,-4.6289,-4.6289,-4.6289,-4.6289,-4.6289,-4.6289,-4.6289,-4.6288,-4.6205,-4.6116,-4.6064,-4.5826,-4.5358,-4.5564,-4.5852,-4.5736,-4.5347,-4.4574,-4.3598,-4.35,-4.333,-4.3116,-4.3272,-4.3548,-4.3743,-4.3874,-4.4103,-4.439,-4.4487,-4.4676,-4.5021,-4.5371,-4.5546,-4.5793,-4.5293,-4.491,-4.3954,-4.3288,-4.2676,-4.2189,-4.1892,-4.1649,-4.1264,-4.0958,-4.0964,-4.0942,-4.0957,-4.0947,-4.0891,-4.0635,-4.0486,-6.1699,-6.1699,-6.1699,-6.1699,-6.1426,-5.9941,-5.9199,-5.8867,-5.7363,-5.6621,-5.6621,-5.6621,-5.6621,-5.6621,-5.6621,-5.6621,-5.6621,-5.6621,-5.6621,-5.6621,-5.6621,-5.6621,-5.6621,-5.6621,-5.6601,-5.6445,-5.5683,-5.5351,-5.4844,-5.3691,-5.2656,-5.2617,-5.1836,-5.1426,-5.1387,-5.0957,-5.0566,-5.0176,-4.9766,-4.9336,-4.8867,-4.8476,-4.793,-4.7519,-4.6797,-4.6289,-4.6289,-4.6289,-4.6289,-4.6289,-4.6289,-4.6289,-4.6289,-4.6289,-4.6289,-4.6289,-4.6289,-4.6289,-4.6289,-4.6289,-4.6289,-4.6289,-4.6289,-4.6289,-4.6289,-4.6289,-4.6289,-4.6289,-4.6289,-4.6289,-4.6289,-4.6289,-4.6172,-4.5719,-4.5644,-4.5254,-4.4746,-4.5306,-4.5822,-4.5627,-4.5452,-4.4984,-4.4481,-4.4043,-4.4059,-4.4049,-4.4127,-4.4403,-4.5066,-4.5199,-4.5179,-4.5354,-4.5374,-4.553,-4.5802,-4.5955,-4.5916,-4.599,-4.5815,-4.5624,-4.5239,-4.472,-4.4267,-4.354,-4.2692,-4.2195,-4.181,-4.1486,-4.1211,-4.1113,-4.1113,-4.1094,-4.1055,-4.0918,-4.084,-6.1699,-6.1699,-6.1699,-6.1699,-6.1445,-5.9922,-5.9199,-5.8945,-5.7363,-5.6621,-5.6621,-5.6621,-5.6621,-5.6621,-5.6621,-5.6621,-5.6621,-5.6621,-5.6621,-5.6621,-5.6621,-5.6621,-5.6621,-5.6621,-5.6601,-5.6504,-5.5957,-5.5605,-5.5137,-5.3867,-5.3105,-5.2773,-5.1855,-5.1445,-5.1387,-5.1367,-5.1055,-5.0547,-5.041,-5.0137,-4.9512,-4.9219,-4.8652,-4.7598,-4.7051,-4.6484,-4.6367,-4.6289,-4.6289,-4.6289,-4.6289,-4.6289,-4.6289,-4.6289,-4.6289,-4.6289,-4.6289,-4.6289,-4.6289,-4.6289,-4.6289,-4.6289,-4.6289,-4.6289,-4.6289,-4.6289,-4.6289,-4.6289,-4.6289,-4.6289,-4.6289,-4.6289,-4.5957,-4.5469,-4.5176,-4.459,-4.418,-4.5003,-4.5139,-4.4977,-4.5117,-4.5061,-4.4922,-4.4651,-4.4842,-4.498,-4.5058,-4.5254,-4.5859,-4.6133,-4.5918,-4.5762,-4.5685,-4.5824,-4.6095,-4.6152,-4.6172,-4.6152,-4.6113,-4.6074,-4.6055,-4.5714,-4.5055,-4.4153,-4.3384,-4.2965,-4.2612,-4.2353,-4.2012,-4.1562,-4.1387,-4.1504,-4.1406,-4.123,-4.1133,-6.1699,-6.1699,-6.1699,-6.1699,-6.1426,-5.9902,-5.914,-5.8906,-5.7324,-5.6621,-5.6621,-5.6621,-5.6621,-5.6621,-5.6621,-5.6621,-5.6621,-5.6621,-5.6621,-5.6621,-5.6621,-5.6621,-5.6621,-5.6621,-5.6621,-5.6582,-5.6348,-5.6269,-5.5898,-5.4726,-5.3691,-5.3398,-5.2168,-5.1426,-5.1387,-5.1387,-5.1328,-5.1094,-5.1055,-5.0898,-5.0683,-5.0098,-4.9258,-4.7969,-4.748,-4.6992,-4.6465,-4.6328,-4.6289,-4.6289,-4.6289,-4.6289,-4.6289,-4.6289,-4.6289,-4.6289,-4.6289,-4.6289,-4.6289,-4.6289,-4.6289,-4.6289,-4.6289,-4.6289,-4.6289,-4.6289,-4.6289,-4.6289,-4.6289,-4.6289,-4.6289,-4.6289,-4.625,-4.5898,-4.5332,-4.4609,-4.3984,-4.3926,-4.418,-4.3984,-4.4512,-4.5137,-4.5019,-4.5098,-4.541,-4.5527,-4.5586,-4.5703,-4.6055,-4.6152,-4.5957,-4.5859,-4.5799,-4.6014,-4.6268,-4.6269,-4.625,-4.625,-4.623,-4.623,-4.6211,-4.625,-4.5719,-4.4881,-4.4387,-4.4085,-4.3706,-4.3281,-4.2832,-4.2363,-4.2168,-4.1973,-4.168,-4.1426,-4.1211,-6.1699,-6.166,-6.123,-6.1035,-6.0742,-5.9238,-5.8535,-5.8359,-5.7168,-5.6621,-5.6621,-5.6621,-5.6621,-5.6621,-5.6621,-5.6621,-5.6621,-5.6621,-5.6621,-5.6621,-5.6621,-5.6621,-5.6621,-5.6621,-5.6621,-5.6601,-5.6601,-5.6621,-5.6426,-5.4824,-5.4082,-5.3574,-5.2266,-5.1406,-5.1387,-5.1387,-5.1387,-5.1387,-5.1387,-5.1387,-5.1328,-5.0625,-4.9648,-4.9062,-4.8047,-4.7402,-4.7031,-4.6445,-4.6308,-4.6289,-4.6289,-4.6289,-4.6289,-4.6289,-4.6289,-4.6289,-4.6289,-4.6289,-4.6289,-4.6289,-4.6289,-4.6289,-4.6289,-4.6289,-4.6289,-4.6289,-4.6289,-4.6289,-4.6289,-4.6289,-4.6289,-4.6289,-4.6094,-4.5664,-4.5234,-4.4433,-4.3496,-4.3164,-4.3144,-4.334,-4.4277,-4.4902,-4.498,-4.5254,-4.582,-4.6055,-4.6113,-4.6191,-4.6289,-4.6191,-4.6055,-4.5996,-4.5937,-4.6016,-4.625,-4.6289,-4.6289,-4.6289,-4.6289,-4.6289,-4.6289,-4.6289,-4.6191,-4.5739,-4.5387,-4.4941,-4.4492,-4.3945,-4.3555,-4.3164,-4.2773,-4.2383,-4.1953,-4.1621,-4.1504,-6.1601,-6.1367,-6.0683,-6.0312,-5.9922,-5.8555,-5.791,-5.7715,-5.6992,-5.6621,-5.6621,-5.6621,-5.6621,-5.6621,-5.6621,-5.6621,-5.6621,-5.6621,-5.6621,-5.6621,-5.6621,-5.6621,-5.6621,-5.6621,-5.6621,-5.6621,-5.6621,-5.6621,-5.6289,-5.4844,-5.4121,-5.3516,-5.2266,-5.1387,-5.1387,-5.1387,-5.1387,-5.1387,-5.1387,-5.1387,-5.1211,-5.0664,-5.0195,-5.0176,-4.8828,-4.8047,-4.75,-4.6992,-4.6523,-4.6387,-4.6289,-4.6289,-4.6289,-4.6289,-4.6289,-4.6289,-4.6289,-4.6289,-4.6289,-4.6289,-4.6289,-4.6289,-4.6289,-4.6289,-4.6289,-4.6289,-4.6289,-4.6289,-4.6289,-4.6289,-4.6289,-4.6289,-4.5996,-4.5547,-4.5156,-4.457,-4.3652,-4.3144,-4.3027,-4.3476,-4.4316,-4.4785,-4.5019,-4.5488,-4.6094,-4.6152,-4.6211,-4.6211,-4.6289,-4.6289,-4.6191,-4.6133,-4.6094,-4.6055,-4.6172,-4.6289,-4.6289,-4.6289,-4.6289,-4.6289,-4.6289,-4.6289,-4.6191,-4.6094,-4.5859,-4.541,-4.5,-4.4746,-4.4492,-4.4082,-4.3379,-4.293,-4.2695,-4.2402,-4.2187,-6.125,-6.0547,-6.043,-6.0,-5.9238,-5.8262,-5.7871,-5.7734,-5.6933,-5.6621,-5.6621,-5.6621,-5.6621,-5.6621,-5.6621,-5.6621,-5.6621,-5.6621,-5.6621,-5.6621,-5.6621,-5.6621,-5.6621,-5.6621,-5.6621,-5.6621,-5.6621,-5.6621,-5.6211,-5.4844,-5.4023,-5.3633,-5.2383,-5.1387,-5.1387,-5.1387,-5.1387,-5.1387,-5.1387,-5.1387,-5.1269,-5.0664,-5.0351,-5.0195,-4.9844,-4.9121,-4.8027,-4.75,-4.707,-4.6465,-4.6328,-4.6289,-4.6289,-4.6289,-4.6289,-4.6289,-4.6289,-4.6289,-4.6289,-4.6289,-4.6289,-4.6289,-4.6289,-4.6289,-4.6426,-4.6465,-4.6465,-4.6289,-4.6406,-4.6543,-4.6641,-4.6465,-4.6269,-4.6016,-4.5664,-4.5293,-4.457,-4.4121,-4.3906,-4.4121,-4.5117,-4.5195,-4.5293,-4.582,-4.6289,-4.6289,-4.6289,-4.6289,-4.6289,-4.6289,-4.6289,-4.623,-4.6133,-4.6074,-4.6152,-4.6269,-4.6269,-4.6269,-4.6289,-4.6289,-4.6289,-4.6289,-4.6289,-4.6172,-4.5996,-4.5957,-4.5742,-4.5547,-4.5449,-4.5019,-4.4355,-4.3945,-4.3652,-4.3301,-4.2851,-6.0058,-5.9668,-5.918,-5.8789,-5.8379,-5.7539,-5.7168,-5.709,-5.6777,-5.6621,-5.6621,-5.6621,-5.6621,-5.6621,-5.6621,-5.6621,-5.6621,-5.6621,-5.6621,-5.6621,-5.6621,-5.6621,-5.6621,-5.6621,-5.6621,-5.6621,-5.6621,-5.6621,-5.6055,-5.5019,-5.3984,-5.3769,-5.2383,-5.1387,-5.1465,-5.1406,-5.1387,-5.1387,-5.1387,-5.1387,-5.1308,-5.1074,-5.0859,-5.084,-5.0449,-4.9766,-4.9082,-4.7949,-4.7519,-4.6953,-4.6641,-4.6289,-4.6289,-4.6289,-4.6289,-4.6289,-4.6289,-4.6289,-4.6289,-4.6328,-4.6289,-4.6308,-4.6348,-4.6523,-4.6855,-4.7051,-4.7305,-4.7773,-4.7793,-4.7734,-4.7695,-4.7793,-4.7441,-4.707,-4.6523,-4.6113,-4.5801,-4.5566,-4.5351,-4.5605,-4.5801,-4.5937,-4.5996,-4.6191,-4.6445,-4.6289,-4.6289,-4.6289,-4.6289,-4.6289,-4.6289,-4.6289,-4.6172,-4.6055,-4.6172,-4.6289,-4.623,-4.623,-4.623,-4.625,-4.6289,-4.6289,-4.6289,-4.6289,-4.6191,-4.6211,-4.6289,-4.6152,-4.5879,-4.5605,-4.5332,-4.4883,-4.4433,-4.3789,-4.3281,-5.8555,-5.8515,-5.8086,-5.7793,-5.7539,-5.6875,-5.6621,-5.6621,-5.6621,-5.6621,-5.6621,-5.6621,-5.6621,-5.6621,-5.6621,-5.6621,-5.6621,-5.6621,-5.6621,-5.6621,-5.6621,-5.6621,-5.6621,-5.6621,-5.6621,-5.6621,-5.6621,-5.6621,-5.6152,-5.5254,-5.4394,-5.4219,-5.2715,-5.1914,-5.1699,-5.1523,-5.1387,-5.1387,-5.1133,-5.1152,-5.1289,-5.1133,-5.1172,-5.1113,-5.0859,-5.0391,-5.0019,-4.9141,-4.8359,-4.7812,-4.7441,-4.7207,-4.7168,-4.7226,-4.7207,-4.7207,-4.7226,-4.7187,-4.6973,-4.6758,-4.6406,-4.6367,-4.6601,-4.6973,-4.7402,-4.7734,-4.8066,-4.8652,-4.8691,-4.875,-4.8867,-4.8808,-4.8476,-4.7988,-4.7598,-4.7168,-4.6816,-4.6641,-4.6562,-4.668,-4.6875,-4.709,-4.707,-4.6816,-4.666,-4.6367,-4.6289,-4.6289,-4.6289,-4.6289,-4.6289,-4.6289,-4.625,-4.6016,-4.5801,-4.5937,-4.5996,-4.6074,-4.6094,-4.6211,-4.625,-4.6289,-4.6289,-4.6289,-4.6289,-4.6289,-4.6289,-4.6289,-4.6269,-4.6016,-4.5762,-4.5566,-4.5117,-4.4473,-4.3965,-5.6777,-5.6816,-5.7578,-5.7422,-5.6738,-5.664,-5.6621,-5.6621,-5.6621,-5.6621,-5.6621,-5.6621,-5.6621,-5.6621,-5.6621,-5.6621,-5.6621,-5.6621,-5.6621,-5.6621,-5.6621,-5.6621,-5.6621,-5.6621,-5.6621,-5.6621,-5.6621,-5.6621,-5.6426,-5.5781,-5.5273,-5.4961,-5.3262,-5.2754,-5.2285,-5.1758,-5.1426,-5.1289,-5.0918,-5.0918,-5.1055,-5.0957,-5.082,-5.1289,-5.1289,-5.0996,-5.0273,-4.9883,-4.9473,-4.8828,-4.8476,-4.834,-4.8242,-4.8281,-4.8262,-4.8262,-4.8281,-4.8262,-4.8105,-4.7324,-4.6523,-4.6582,-4.7012,-4.7617,-4.8047,-4.8516,-4.8828,-4.9141,-4.9394,-4.9238,-4.9121,-4.8906,-4.916,-4.8828,-4.8476,-4.8047,-4.7773,-4.7793,-4.7715,-4.7773,-4.7969,-4.8242,-4.8066,-4.7793,-4.6855,-4.6484,-4.6308,-4.6289,-4.6289,-4.6289,-4.6289,-4.6289,-4.6289,-4.5976,-4.5312,-4.5351,-4.5547,-4.5644,-4.5644,-4.5937,-4.6191,-4.623,-4.6289,-4.6289,-4.6289,-4.6289,-4.6289,-4.6289,-4.6289,-4.6289,-4.6152,-4.5918,-4.5742,-4.5293,-4.4922,-5.6621,-5.664,-5.6973,-5.6894,-5.6621,-5.6621,-5.6621,-5.6621,-5.6621,-5.6621,-5.6621,-5.6621,-5.6621,-5.6621,-5.6621,-5.6621,-5.6621,-5.6621,-5.6621,-5.6621,-5.6621,-5.6621,-5.6621,-5.6621,-5.6621,-5.6621,-5.6621,-5.6621,-5.6543,-5.6152,-5.6172,-5.5469,-5.3867,-5.2969,-5.2422,-5.1992,-5.1543,-5.1348,-5.1113,-5.1152,-5.1191,-5.1191,-5.1094,-5.1328,-5.1387,-5.1289,-5.0918,-5.043,-5.0058,-4.9687,-4.9258,-4.9121,-4.9062,-4.9043,-4.9043,-4.9043,-4.9062,-4.9062,-4.8984,-4.8301,-4.7949,-4.793,-4.8242,-4.8574,-4.8926,-4.9512,-4.998,-5.0234,-5.0332,-5.0215,-5.041,-5.041,-5.0371,-4.9824,-4.9316,-4.8867,-4.8691,-4.8691,-4.8828,-4.8828,-4.916,-4.9512,-4.916,-4.875,-4.7617,-4.6601,-4.6426,-4.6367,-4.6523,-4.6543,-4.6621,-4.6543,-4.6543,-4.6211,-4.5566,-4.5371,-4.5195,-4.5215,-4.5254,-4.5625,-4.5996,-4.625,-4.6289,-4.6289,-4.6289,-4.6289,-4.6289,-4.6289,-4.6289,-4.6289,-4.6289,-4.623,-4.6094,-4.5957,-4.5644,-5.6621,-5.6621,-5.6621,-5.6621,-5.6621,-5.6621,-5.6621,-5.6621,-5.6621,-5.6621,-5.6621,-5.6621,-5.6621,-5.6621,-5.6621,-5.6621,-5.6621,-5.6621,-5.6621,-5.6621,-5.6621,-5.6621,-5.6621,-5.6621,-5.6621,-5.6621,-5.6621,-5.6621,-5.6621,-5.6621,-5.6543,-5.5898,-5.4668,-5.3808,-5.332,-5.2383,-5.1699,-5.1445,-5.1387,-5.1387,-5.1387,-5.1367,-5.1367,-5.1387,-5.1387,-5.1387,-5.123,-5.0898,-5.0683,-5.041,-5.0117,-4.9785,-4.9687,-4.9648,-4.9648,-4.9629,-4.9629,-4.9629,-4.957,-4.9121,-4.8945,-4.8691,-4.9141,-4.957,-5.0039,-5.0391,-5.0781,-5.1113,-5.1289,-5.1387,-5.1387,-5.1172,-5.1035,-5.0508,-5.0019,-4.9609,-4.9531,-4.9512,-4.9746,-4.9902,-5.0234,-5.041,-4.9726,-4.9238,-4.8594,-4.7695,-4.7637,-4.7558,-4.7558,-4.748,-4.7246,-4.709,-4.6875,-4.6445,-4.5957,-4.5234,-4.4648,-4.498,-4.5078,-4.5391,-4.5723,-4.6055,-4.6289,-4.6289,-4.6289,-4.6289,-4.6289,-4.6289,-4.6289,-4.6289,-4.6289,-4.6289,-4.6269,-4.6113,-4.5976,-5.6621,-5.6621,-5.6621,-5.6621,-5.6621,-5.6621,-5.6621,-5.6621,-5.6621,-5.6621,-5.6621,-5.6621,-5.6621,-5.6621,-5.6621,-5.6621,-5.6621,-5.6621,-5.6621,-5.6621,-5.6621,-5.6621,-5.6621,-5.6621,-5.6621,-5.6621,-5.6621,-5.6621,-5.6621,-5.6621,-5.6621,-5.6426,-5.5566,-5.4805,-5.498,-5.3496,-5.2285,-5.1523,-5.1406,-5.1387,-5.1387,-5.1387,-5.1387,-5.1387,-5.1387,-5.1387,-5.1328,-5.1269,-5.1113,-5.1055,-5.1035,-5.0898,-5.0918,-5.0957,-5.0996,-5.1035,-5.1094,-5.1152,-5.1172,-4.9785,-4.9297,-4.9336,-4.9922,-5.0254,-5.041,-5.0801,-5.123,-5.1387,-5.1387,-5.1387,-5.1387,-5.1387,-5.1308,-5.1113,-5.0625,-5.0273,-5.0156,-5.0273,-5.0469,-5.0391,-5.0801,-5.1055,-5.0273,-4.9648,-4.9316,-4.8926,-4.8867,-4.875,-4.8535,-4.8301,-4.7969,-4.7676,-4.7402,-4.6894,-4.623,-4.4746,-4.416,-4.4531,-4.4941,-4.5312,-4.5723,-4.6152,-4.6289,-4.6289,-4.6289,-4.6289,-4.6289,-4.6289,-4.6289,-4.6289,-4.6289,-4.6289,-4.6289,-4.6269,-4.6133,-5.6621,-5.6621,-5.6621,-5.6621,-5.6621,-5.6621,-5.6621,-5.6621,-5.6621,-5.6621,-5.6621,-5.6621,-5.6621,-5.6621,-5.6621,-5.6621,-5.6621,-5.6621,-5.6621,-5.6621,-5.6621,-5.6621,-5.6621,-5.6621,-5.6621,-5.6621,-5.6621,-5.6621,-5.6621,-5.6621,-5.6621,-5.6445,-5.6152,-5.5176,-5.3945,-5.2793,-5.2285,-5.1562,-5.1387,-5.1387,-5.1406,-5.1387,-5.1387,-5.1387,-5.1387,-5.1387,-5.1387,-5.1387,-5.1387,-5.1387,-5.1387,-5.1387,-5.1387,-5.1387,-5.1387,-5.1387,-5.1387,-5.1387,-5.1348,-5.0762,-5.0625,-5.0625,-5.0683,-5.0898,-5.1055,-5.1211,-5.1367,-5.1387,-5.1387,-5.1387,-5.1387,-5.1387,-5.1348,-5.1348,-5.0996,-5.0644,-5.0547,-5.0859,-5.1035,-5.0703,-5.082,-5.1191,-5.084,-5.0469,-5.0137,-4.9824,-4.9707,-4.9277,-4.9004,-4.8848,-4.8594,-4.8301,-4.7969,-4.7441,-4.6601,-4.5371,-4.4883,-4.5371,-4.5391,-4.5332,-4.5762,-4.6172,-4.6269,-4.6269,-4.6289,-4.6289,-4.6289,-4.6289,-4.6288,-4.6289,-4.6267,-4.6268,-4.6289,-4.6289,-4.625,-5.6621,-5.6621,-5.6621,-5.6621,-5.6621,-5.6621,-5.6621,-5.6621,-5.6621,-5.6621,-5.6621,-5.6621,-5.6621,-5.6621,-5.6621,-5.6621,-5.6621,-5.6621,-5.6621,-5.6621,-5.6621,-5.6621,-5.6621,-5.6621,-5.6621,-5.6621,-5.6621,-5.6621,-5.6621,-5.6621,-5.6621,-5.6621,-5.6562,-5.5547,-5.4297,-5.3691,-5.3105,-5.2363,-5.1953,-5.1738,-5.1543,-5.1387,-5.1387,-5.1387,-5.1387,-5.1387,-5.1387,-5.1387,-5.1387,-5.1387,-5.1387,-5.1387,-5.1387,-5.1387,-5.1387,-5.1387,-5.1387,-5.1387,-5.1367,-5.1348,-5.1172,-5.125,-5.1387,-5.1387,-5.1387,-5.1387,-5.1387,-5.1387,-5.1387,-5.1387,-5.1387,-5.1387,-5.1387,-5.1387,-5.1269,-5.0918,-5.0937,-5.123,-5.1269,-5.0937,-5.0898,-5.1211,-5.1387,-5.1328,-5.1055,-5.0762,-5.0508,-5.0019,-4.9609,-4.957,-4.9433,-4.9141,-4.8789,-4.8301,-4.7441,-4.623,-4.5996,-4.625,-4.5801,-4.5195,-4.5644,-4.5996,-4.6113,-4.625,-4.6269,-4.6289,-4.6289,-4.6288,-4.6264,-4.6237,-4.6212,-4.6218,-4.6265,-4.6246,-4.6246,-5.6621,-5.6621,-5.6621,-5.6621,-5.6621,-5.6621,-5.6621,-5.6621,-5.6621,-5.6621,-5.6621,-5.6621,-5.6621,-5.6621,-5.6621,-5.6621,-5.6621,-5.6621,-5.6621,-5.6621,-5.6621,-5.6621,-5.6621,-5.6621,-5.6621,-5.6621,-5.6621,-5.6621,-5.6621,-5.6621,-5.6621,-5.6621,-5.6621,-5.5918,-5.5371,-5.4961,-5.4101,-5.2969,-5.2402,-5.2031,-5.1582,-5.1387,-5.1387,-5.1387,-5.1387,-5.1387,-5.1387,-5.1387,-5.1387,-5.1387,-5.1387,-5.1387,-5.1387,-5.1387,-5.1387,-5.1387,-5.1387,-5.1387,-5.1387,-5.1387,-5.1387,-5.1387,-5.1387,-5.1387,-5.1387,-5.1387,-5.1387,-5.1387,-5.1387,-5.1387,-5.1387,-5.1387,-5.1387,-5.1387,-5.1387,-5.1289,-5.1308,-5.1367,-5.1367,-5.1289,-5.1269,-5.1387,-5.1387,-5.1387,-5.1387,-5.125,-5.0976,-5.0937,-5.0644,-5.0742,-5.0547,-5.0156,-4.9766,-4.9238,-4.8281,-4.7207,-4.668,-4.6797,-4.5371,-4.4746,-4.5293,-4.5801,-4.582,-4.5957,-4.6211,-4.6289,-4.6288,-4.6263,-4.6231,-4.6179,-4.6153,-4.6114,-4.6126,-4.6152,-4.6152,-5.6621,-5.6621,-5.6621,-5.6621,-5.6621,-5.6621,-5.6621,-5.6621,-5.6621,-5.6621,-5.6621,-5.6621,-5.6621,-5.6621,-5.6621,-5.6621,-5.6621,-5.6621,-5.6621,-5.6621,-5.6621,-5.6621,-5.6621,-5.6621,-5.6621,-5.6621,-5.6621,-5.6621,-5.6621,-5.6621,-5.6621,-5.6621,-5.6621,-5.6367,-5.625,-5.6191,-5.4668,-5.3476,-5.2988,-5.2363,-5.1777,-5.1523,-5.1484,-5.1426,-5.1387,-5.1387,-5.1387,-5.1387,-5.1387,-5.1387,-5.1387,-5.1387,-5.1386,-5.1384,-5.1387,-5.1387,-5.1387,-5.1387,-5.1402,-5.1399,-5.1376,-5.137,-5.1369,-5.1382,-5.1387,-5.1387,-5.1387,-5.1387,-5.1387,-5.1387,-5.1387,-5.1387,-5.1387,-5.1387,-5.1387,-5.1387,-5.1387,-5.1387,-5.1387,-5.1387,-5.1387,-5.1387,-5.1387,-5.1387,-5.1387,-5.1387,-5.1387,-5.1387,-5.1387,-5.1387,-5.1308,-5.0898,-5.0527,-4.9941,-4.9297,-4.8301,-4.7695,-4.707,-4.5723,-4.4883,-4.5488,-4.5859,-4.5625,-4.5762,-4.6172,-4.6288,-4.6305,-4.6254,-4.6182,-4.6115,-4.6068,-4.6033,-4.5998,-4.601,-4.604,-5.6621,-5.6621,-5.6621,-5.6621,-5.6621,-5.6621,-5.6621,-5.6621,-5.6621,-5.6621,-5.6621,-5.6621,-5.6621,-5.6621,-5.6621,-5.6621,-5.6621,-5.6621,-5.6621,-5.6621,-5.6562,-5.6621,-5.6621,-5.6621,-5.6621,-5.6621,-5.6621,-5.6621,-5.6621,-5.6621,-5.6621,-5.6621,-5.6621,-5.6621,-5.6562,-5.6387,-5.5566,-5.4453,-5.3633,-5.2969,-5.2344,-5.1855,-5.1738,-5.1426,-5.1387,-5.1387,-5.1387,-5.1387,-5.1387,-5.1387,-5.1387,-5.1387,-5.1383,-5.1376,-5.1328,-5.1327,-5.1346,-5.1327,-5.1325,-5.1314,-5.1316,-5.1297,-5.1288,-5.1283,-5.1314,-5.1328,-5.1367,-5.1387,-5.1387,-5.1387,-5.1387,-5.1387,-5.1387,-5.1387,-5.1387,-5.1387,-5.1387,-5.1387,-5.1387,-5.1387,-5.1387,-5.1387,-5.1387,-5.1387,-5.1387,-5.1387,-5.1387,-5.1387,-5.1387,-5.1387,-5.1387,-5.1211,-5.0918,-5.0547,-4.9902,-4.9258,-4.8516,-4.7637,-4.6426,-4.5859,-4.6094,-4.5781,-4.5449,-4.5742,-4.625,-4.6284,-4.6234,-4.6177,-4.6125,-4.6054,-4.5961,-4.5883,-4.5856,-4.5908,-4.5905,-5.6621,-5.6621,-5.6621,-5.6621,-5.6621,-5.6621,-5.6621,-5.6621,-5.6621,-5.6621,-5.6621,-5.6621,-5.6621,-5.6621,-5.6621,-5.6465,-5.6348,-5.6289,-5.6269,-5.6484,-5.6308,-5.6348,-5.6582,-5.6621,-5.6621,-5.6621,-5.6621,-5.6621,-5.6621,-5.6621,-5.6621,-5.6601,-5.6621,-5.6621,-5.6621,-5.6621,-5.6035,-5.5449,-5.4922,-5.4414,-5.3047,-5.2539,-5.2305,-5.1543,-5.1387,-5.1387,-5.1387,-5.1387,-5.1387,-5.1387,-5.1387,-5.1387,-5.1348,-5.1327,-5.1255,-5.1233,-5.1266,-5.1269,-5.1241,-5.1219,-5.1172,-5.1132,-5.1098,-5.1118,-5.1167,-5.1249,-5.1294,-5.1299,-5.1279,-5.1279,-5.1277,-5.1296,-5.1299,-5.1299,-5.1299,-5.1299,-5.1279,-5.1297,-5.1356,-5.1362,-5.1387,-5.1387,-5.1387,-5.1387,-5.1387,-5.1387,-5.1387,-5.1387,-5.1387,-5.1387,-5.1387,-5.1387,-5.1211,-5.0937,-5.0566,-4.9902,-4.916,-4.8203,-4.6992,-4.6328,-4.6211,-4.5762,-4.5234,-4.572,-4.6259,-4.6206,-4.6162,-4.6102,-4.6012,-4.5883,-4.5789,-4.5692,-4.5708,-4.5768,-4.5789,-5.6621,-5.6621,-5.6621,-5.6621,-5.6621,-5.6621,-5.6621,-5.6621,-5.6621,-5.6621,-5.6621,-5.6621,-5.6621,-5.6621,-5.6601,-5.6348,-5.5781,-5.5801,-5.5644,-5.5605,-5.5605,-5.5879,-5.6426,-5.6367,-5.6504,-5.6621,-5.6621,-5.6601,-5.6601,-5.6601,-5.6601,-5.6582,-5.6601,-5.6601,-5.6601,-5.6601,-5.6406,-5.6094,-5.5996,-5.5,-5.3301,-5.2676,-5.2305,-5.1758,-5.1523,-5.1562,-5.1543,-5.1445,-5.1426,-5.1387,-5.1387,-5.1343,-5.1252,-5.1234,-5.1226,-5.1215,-5.1183,-5.1187,-5.1155,-5.1118,-5.1064,-5.1036,-5.1005,-5.103,-5.106,-5.1138,-5.1178,-5.1163,-5.1167,-5.1167,-5.1167,-5.1187,-5.1187,-5.1187,-5.1187,-5.1187,-5.1167,-5.1232,-5.1295,-5.1334,-5.1384,-5.1387,-5.1387,-5.1387,-5.1387,-5.1387,-5.1387,-5.1387,-5.1387,-5.1387,-5.1387,-5.1387,-5.1387,-5.1172,-5.0918,-5.0391,-4.9551,-4.8555,-4.7363,-4.6797,-4.6348,-4.6016,-4.5721,-4.5923,-4.6197,-4.615,-4.6079,-4.6008,-4.5891,-4.5761,-4.5708,-4.566,-4.5627,-4.5673,-4.5657,-5.6621,-5.6621,-5.6621,-5.6621,-5.6621,-5.6621,-5.6621,-5.6621,-5.6621,-5.6621,-5.6621,-5.6621,-5.6601,-5.6601,-5.6601,-5.6035,-5.5351,-5.5332,-5.5058,-5.4844,-5.4743,-5.4961,-5.5386,-5.5814,-5.5879,-5.5996,-5.6445,-5.6562,-5.6555,-5.6543,-5.6543,-5.6535,-5.6555,-5.6555,-5.6555,-5.6555,-5.6556,-5.6523,-5.6579,-5.5546,-5.3867,-5.3691,-5.3398,-5.2832,-5.2519,-5.2363,-5.2012,-5.1933,-5.1719,-5.1514,-5.134,-5.1202,-5.1113,-5.1086,-5.1105,-5.1092,-5.1086,-5.108,-5.1054,-5.1011,-5.0961,-5.0902,-5.0874,-5.0858,-5.085,-5.0916,-5.0985,-5.1004,-5.1058,-5.1064,-5.1064,-5.1084,-5.1084,-5.1084,-5.1089,-5.1095,-5.1123,-5.1191,-5.1242,-5.1318,-5.1361,-5.1387,-5.1387,-5.1387,-5.1387,-5.1387,-5.1387,-5.1387,-5.1387,-5.1387,-5.1387,-5.1386,-5.1366,-5.1387,-5.1211,-5.0605,-4.9805,-4.8769,-4.7734,-4.7051,-4.6504,-4.6367,-4.6282,-4.6195,-4.6128,-4.6076,-4.5998,-4.591,-4.5801,-4.5688,-4.5651,-4.562,-4.5603,-4.5594,-4.5612,-5.6621,-5.6621,-5.6621,-5.6621,-5.6601,-5.6601,-5.6582,-5.6582,-5.6582,-5.6582,-5.6582,-5.6582,-5.6562,-5.6445,-5.6406,-5.5723,-5.5098,-5.4551,-5.4254,-5.3973,-5.3808,-5.4068,-5.435,-5.466,-5.4989,-5.5513,-5.606,-5.6313,-5.643,-5.643,-5.643,-5.6453,-5.6455,-5.6453,-5.6475,-5.6475,-5.6455,-5.6471,-5.6424,-5.6162,-5.566,-5.5293,-5.459,-5.418,-5.3926,-5.3516,-5.2969,-5.2558,-5.2207,-5.1696,-5.1268,-5.1088,-5.0979,-5.0954,-5.0935,-5.0942,-5.0954,-5.0954,-5.0913,-5.0867,-5.0791,-5.073,-5.0702,-5.0693,-5.0712,-5.0749,-5.0825,-5.0871,-5.094,-5.0942,-5.0942,-5.0942,-5.0942,-5.0942,-5.0969,-5.099,-5.1036,-5.1092,-5.1176,-5.1246,-5.1291,-5.1342,-5.1359,-5.1367,-5.1378,-5.1383,-5.1387,-5.1387,-5.1387,-5.1387,-5.1387,-5.1365,-5.1342,-5.1348,-5.1367,-5.0879,-5.0117,-4.9121,-4.8125,-4.7305,-4.6659,-4.6415,-4.6234,-4.6125,-4.6041,-4.5988,-4.5896,-4.5775,-4.5688,-4.5629,-4.562,-4.5603,-4.5603,-4.5594,-4.5594,-5.6621,-5.6621,-5.662,-5.6599,-5.6576,-5.6532,-5.6507,-5.652,-5.646,-5.652,-5.644,-5.6444,-5.6211,-5.5547,-5.5547,-5.4883,-5.373,-5.3472,-5.3185,-5.2817,-5.2807,-5.3162,-5.3483,-5.3728,-5.4323,-5.4946,-5.5589,-5.6086,-5.5808,-5.5978,-5.6222,-5.6183,-5.6183,-5.6222,-5.6261,-5.6266,-5.6308,-5.6344,-5.6405,-5.6272,-5.6139,-5.5605,-5.4805,-5.4355,-5.3965,-5.3437,-5.2969,-5.2734,-5.2187,-5.1632,-5.1199,-5.1011,-5.0898,-5.0841,-5.0822,-5.083,-5.0861,-5.0841,-5.0797,-5.0782,-5.0721,-5.0712,-5.0683,-5.0693,-5.0693,-5.0702,-5.0749,-5.0749,-5.0784,-5.0784,-5.0784,-5.0784,-5.0784,-5.0784,-5.0793,-5.0816,-5.0851,-5.0937,-5.1004,-5.1075,-5.1138,-5.1191,-5.1252,-5.1263,-5.1316,-5.133,-5.1384,-5.1387,-5.1387,-5.1387,-5.1386,-5.134,-5.1289,-5.1328,-5.1348,-5.1133,-5.043,-4.9453,-4.8416,-4.7419,-4.671,-4.6364,-4.6203,-4.6258,-4.6041,-4.5859,-4.5768,-4.5685,-4.5676,-4.562,-4.5603,-4.5594,-4.5594,-4.5594,-4.5594]},{"header":{"parameterUnit":"m.s-1","parameterCategory":1,"la1":31.0,"la2":29.5877,"lo1":-88.7671,"lo2":-86.6584,"dy":0.0162,"dx":0.0185,"nx":115,"ny":88,"refTime":"2026-05-01T12:00:00:Z","depth":0,"parameterNumber":3,"parameterNumberName":"V-component_of_WINDS"},"data":[0.0,0.0,0.0,0.0,0.0,0.0,0.0,0.0,0.0,0.0,0.0,0.0,0.0,0.0,0.0,0.0,0.0,0.0,0.0,0.0,0.0,0.0,0.0,0.0,0.0,0.0,0.0,0.0,0.0,0.0,0.0,0.0,0.0,0.0,0.0,0.0,0.0,0.0,0.0,0.0,0.0,0.0,0.0,0.0,0.0,0.0,0.0,0.0,0.0,0.0,0.0,0.0,0.0,0.0,0.0,0.0,0.0,0.0,0.0,0.0,0.0,0.0,0.0,0.0,0.0,0.0,0.0,0.0,0.0,0.0,0.0,0.0,0.0,0.0,0.0,0.0,0.0,0.0,0.0,0.0,0.0,0.0,0.0,0.0,0.0,0.0,0.0,0.0,0.0,0.0,0.0,0.0,0.0,0.0,0.0,0.0,0.0,0.0,0.0,0.0,0.0,0.0,0.0,0.0,0.0,0.0,0.0,0.0,0.0,0.0,0.0,0.0,0.0,0.0,0.0,0.0,0.0,0.0,0.0,0.0,0.0,0.0,0.0,0.0,0.0,0.0,0.0,0.0,0.0,0.0,0.0,0.0,0.0,0.0,0.0,0.0,0.0,0.0,0.0,0.0,0.0,0.0,0.0,0.0,0.0,0.0,0.0,0.0,0.0,0.0,0.0,0.0,0.0,0.0,0.0,0.0,0.0,0.0,0.0,0.0,0.0,0.0,0.0,0.0,0.0,0.0,0.0,0.0,0.0,0.0,0.0,0.0,0.0,0.0,0.0,0.0,0.0,0.0,0.0,0.0,0.0,0.0,0.0,0.0,0.0,0.0,0.0,0.0,0.0,0.0,0.0,0.0,0.0,0.0,0.0,0.0,0.0,0.0,0.0,0.0,0.0,0.0,0.0,0.0,0.0,0.0,0.0,0.0,0.0,0.0,0.0,0.0,0.0,0.0,0.0,0.0,0.0,0.0,0.0,0.0,0.0,0.0,0.0,0.0,0.0,0.0,0.0,0.0,0.0,0.0,0.0,0.0,0.0,0.0,0.0,0.0,0.0,0.0,0.0,0.0,0.0,0.0,0.0,0.0,0.0,0.0,0.0,0.0,0.0,0.0,0.0,0.0,0.0,0.0,0.0,0.0,0.0,0.0,0.0,0.0,0.0,0.0,0.0,0.0,0.0,0.0,0.0,0.0,0.0,0.0,0.0,0.0,0.0,0.0,0.0,0.0,0.0,0.0,0.0,0.0,0.0,0.0,0.0,0.0,0.0,0.0,0.0,0.0,0.0,0.0,0.0,0.0,0.0,0.0,0.0,0.0,0.0,0.0,0.0,0.0,0.0,0.0,0.0,0.0,0.0,0.0,0.0,0.0,0.0,0.0,0.0,0.0,0.0,0.0,0.0,0.0,0.0,0.0,0.0,0.0,0.0,0.0,0.0,0.0,0.0,0.0,0.0,0.0,0.0,0.0,0.0,0.0,0.0,0.0,0.0,0.0,0.0,0.0,0.0,0.0,0.0,0.0,0.0,0.0,0.0,0.0,0.0,0.0,0.0,0.0,0.0,0.0,0.0,0.0,0.0,0.0,0.0,0.0,0.0,0.0,0.0,0.0,0.0,0.0,0.0,0.0,0.0,0.0,0.0,0.0,0.0,0.0,0.0,0.0,0.0,0.0,0.0,0.0,0.0,0.0,0.0,0.0,0.0,0.0,0.0,0.0,0.0,0.0,0.0,0.0,0.0,0.0,0.0,0.0,0.0,0.0,0.0,0.0,0.0,0.0,0.0,0.0,0.0,0.0,0.0,0.0,0.0,0.0,0.0,0.0,0.0,0.0,0.0,0.0,0.0,0.0,0.0,0.0,0.0,0.0,0.0,0.0,0.0,0.0,0.0,0.0,0.0,0.0,0.0,0.0,0.0,0.0,0.0,0.0,0.0,0.0,0.0,0.0,0.0,0.0,0.0,0.0,0.0,0.0,0.0,0.0,0.0,0.0,0.0,0.0,0.0,0.0,0.0,0.0,0.0,0.0,0.0,0.0,0.0,0.0,0.0,0.0,0.0,0.0,0.0,0.0,0.0,0.0,0.0,0.0,0.0,0.0,0.0,0.0,0.0,0.0,0.0,0.0,0.0,0.0,0.0,0.0,0.0,0.0,0.0,0.0,0.0,0.0,0.0,0.0,0.0,0.0,0.0,0.0,0.0,0.0,0.0,0.0,0.0,0.0,0.0,0.0,0.0,0.0,0.0,0.0,0.0,0.0,0.0,0.0,0.0,0.0,0.0,0.0,0.0,0.0,0.0,0.0,0.0,0.0,0.0,0.0,0.0,0.0,0.0,0.0,0.0,0.0,0.0,0.0,0.0,0.0,0.0,0.0,0.0,0.0,0.0,0.0,0.0,0.0,0.0,0.0,0.0,0.0,0.0,0.0,0.0,0.0,0.0,0.0,0.0,0.0,0.0,0.0,0.0,0.0,0.0,0.0,0.0,0.0,0.0,0.0,0.0,0.0,0.0,0.0,0.0,0.0,0.0,0.0,0.0,0.0,0.0,0.0,0.0,0.0,0.0,0.0,0.0,0.0,0.0,0.0,0.0,0.0,0.0,0.0,0.0,0.0,0.0,0.0,0.0,0.0,0.0,0.0,0.0,0.0,0.0,0.0,0.0,0.0,0.0,0.0,0.0,0.0,0.0,0.0,0.0,0.0,0.0,0.0,0.0,0.0,0.0,0.0,0.0,0.0,0.0,0.0,0.0,0.0,0.0,0.0,0.0,0.0,0.0,0.0,0.0,0.0,0.0,0.0,0.0,0.0,0.0,0.0,0.0,0.0,0.0,0.0,0.0,0.0,0.0,0.0,0.0,0.0,0.0,0.0,0.0,0.0,0.0,0.0,0.0,0.0,0.0,0.0,0.0,0.0,0.0,0.0,0.0,0.0,0.0,0.0,0.0,0.0,0.0,0.0,0.0,0.0,0.0,0.0,0.0,0.0,0.0,0.0,0.0,0.0,0.0,0.0,0.0,0.0,0.0,0.0,0.0,0.0,0.0,0.0,0.0,0.0,0.0,0.0,0.0,0.0,0.0,0.0,0.0,0.0,0.0,0.0,0.0,0.0,0.0,0.0,0.0,0.0,0.0,0.0,0.0,0.0,0.0,0.0,0.0,0.0,0.0,0.0,0.0,0.0,0.0,0.0,0.0,0.0,0.0,0.0,0.0,0.0,0.0,0.0,0.0,0.0,0.0,0.0,0.0,0.0,0.0,0.0,0.0,0.0,0.0,0.0,0.0,0.0,0.0,0.0,0.0,0.0,0.0,0.0,0.0,0.0,0.0,0.0,0.0,0.0,0.0,0.0,0.0,0.0,0.0,0.0,0.0,0.0,0.0,0.0,0.0,0.0,0.0,0.0,0.0,0.0,0.0,0.0,0.0,0.0,0.0,0.0,0.0,0.0,0.0,0.0,0.0,0.0,0.0,0.0,0.0,0.0,0.0,0.0,0.0,0.0,0.0,0.0,0.0,0.0,0.0,0.0,0.0,0.0,0.0,0.0,0.0,0.0,0.0,0.0,0.0,0.0,0.0,0.0,0.0,0.0,0.0,0.0,0.0,0.0,0.0,0.0,0.0,0.0,0.0,0.0,0.0,0.0,0.0,0.0,0.0,0.0,0.0,0.0,0.0,0.0,0.0,0.0,0.0,0.0,0.0,0.0,0.0,0.0,0.0,0.0,0.0,0.0,0.0,0.0,0.0,0.0,0.0,0.0,0.0,0.0,0.0,0.0,0.0,0.0,0.0,0.0,0.0,0.0,0.0,0.0,0.0,0.0,0.0,0.0,0.0,0.0,0.0,0.0,0.0,0.0,0.0,0.0,0.0,0.0,0.0,0.0,0.0,0.0,0.0,0.0,0.0,0.0,0.0,0.0,0.0,0.0,0.0,0.0,0.0,0.0,0.0,0.0,0.0,0.0,0.0,0.0,0.0,0.0,0.0,0.0,0.0,0.0,0.0,0.0,0.0,0.0,0.0,0.0,0.0,0.0,0.0,0.0,0.0,0.0,0.0,0.0,0.0,0.0,0.0,0.0,0.0,0.0,0.0,0.0,0.0,0.0,0.0,0.0,0.0,0.0,0.0,0.0,0.0,0.0,0.0,0.0,0.0,0.0,0.0,0.0,0.0,0.0,0.0,0.0,0.0,0.0,0.0,0.0,0.0,0.0,0.0,0.0,0.0,0.0,0.0,0.0,0.0,0.0,0.0,0.0,0.0,0.0,0.0,0.0,0.0,0.0,0.0,0.0,0.1624,0.0,0.0,0.0,0.0,0.0,0.0,0.0,0.0,0.0,0.0,0.0,0.0,0.0,0.0,0.0,0.0,0.0,0.0,0.0,0.0,0.0,0.0,0.0,0.0,0.0,0.0,0.0,0.0,0.0,0.0,0.0,0.0,0.0,0.0,0.0,0.0,0.0,0.0,0.0,0.0,0.0,0.0,0.0,0.0,0.0,0.0,0.0,0.0,0.0,0.0,0.0,0.0,0.0,0.0,0.0,0.0,0.0,0.0,0.0,0.0,0.0,0.0,0.0,0.0,0.0,0.0,0.0,0.0,0.0,0.0,0.0,0.0,0.0,0.0,0.0,0.0,0.0,0.0,0.0,0.0,0.0,0.0,0.0,0.0,0.0,0.0,0.0,0.0,0.0,0.0,0.0,0.0,0.0,0.0,0.0,0.0,0.0,0.0,0.0,0.0,0.0,0.0,0.0,0.0,0.0,0.0,0.0,0.0,0.0,0.0,0.0336,0.0546,0.079,0.1094,0.1421,0.0,0.0,0.0,0.0,0.0,0.0,0.0,0.0,0.0,0.0,0.0,0.0,0.0,0.0,0.0,0.0,0.0,0.0,0.0,0.0,0.0,0.0,0.0,0.0,0.0,0.0,0.0,0.0,0.0,0.0,0.0,0.0,0.0,0.0,0.0,0.0,0.0,0.0,0.0,0.0,0.0,0.0,0.0,0.0,0.0,0.0,0.0,0.0,0.0,0.0,0.0,0.0,0.0,0.0,0.0,0.0,0.0,0.0,0.0,0.0,0.0,0.0,0.0,0.0,0.0,0.0,0.0,0.0,0.0,0.0,0.0,0.0,0.0,0.0,0.0,0.0,0.0,0.0,0.0,0.0,0.0,0.0,0.0,0.0,0.0,0.0,0.0,0.0,0.0,0.0,0.0,0.0,0.0,0.0,0.0,0.0,0.0,0.0,0.0,0.0,0.0,0.0,0.0,0.0,0.0,0.0,0.0,0.0,0.0,0.0,0.0,0.0,0.0618,0.0923,0.1302,0.0,0.0,0.0,0.0,0.0,0.0,0.0,0.0,0.0,0.0,0.0,0.0,0.0,0.0,0.0,0.0,0.0,0.0,0.0,0.0,0.0,0.0,0.0,0.0,0.0,0.0,0.0,0.0,0.0,0.0,0.0,0.0,0.0,0.0,0.0,0.0,0.0,0.0,0.0,0.0,0.0,0.0,0.0,0.0,0.0,0.0,0.0,0.0,0.0,0.0,0.0,0.0,0.0,0.0,0.0,0.0,0.0,0.0,0.0,0.0,0.0,0.0,0.0,0.0,0.0,0.0,0.0,0.0,0.0,0.0,0.0,0.0,0.0,0.0,0.0,0.0,0.0,0.0,0.0,0.0,0.0,0.0,0.0,0.0,0.0,0.0,0.0,0.0,0.0,0.0,0.0,0.0,0.0,0.0,0.0,0.0,0.0,0.0,0.0,0.0,0.0,0.0,0.0,0.0,0.0,0.0,0.0,0.0,0.0,0.0,0.0175,0.0313,0.0504,0.0,0.1288,0.0,0.0,0.0,0.0,0.0,0.0,0.0,0.0,0.0,0.0,0.0,0.0,0.0,0.0,0.0,0.0,0.0,0.0,0.0,0.0,0.0,0.0,0.0,0.0,0.0,0.0,0.0,0.0,0.0,0.0,0.0,0.0,0.0,0.0,0.0,0.0,0.0,0.0,0.0,0.0,0.0,0.0,0.0,0.0,0.0,0.0,0.0,0.0,0.0,0.0,0.0,0.0,0.0,0.0,0.0,0.0,0.0,0.0,0.0,0.0,0.0,0.0,0.0,0.0,0.0,0.0,0.0,0.0,0.0,0.0,0.0,0.0,0.0,0.0,0.0,0.0,0.0,0.0,0.0,0.0,0.0,0.0,0.0,0.0,0.0,0.0,0.0,0.0,0.0,0.0,0.0,0.0,0.0,0.0,0.0,0.0,0.0,0.0,0.0,0.0,0.0,0.0,0.0,0.0,0.0,0.0,0.0,0.0,0.0,0.0,0.0,0.0121,0.0359,0.065,0.0,0.0,0.0,0.0,0.0,0.0,0.0,0.0,0.0,0.0,0.0,0.0,0.0,0.0,0.0,0.0,0.0,0.0,0.0,0.0,0.0,0.0,0.0,0.0,0.0,0.0,0.0,0.0,0.0,0.0,0.0,0.0,0.0,0.0,0.0,0.0,0.0,0.0,0.0,0.0,0.0,0.0,0.0,0.0,0.0,0.0,0.0,0.0,0.0,0.0,0.0,0.0,0.0,0.0,0.0,0.0,0.0,0.0,0.0,0.0,0.0,0.0,0.0,0.0,0.0,0.0,0.0,0.0,0.0,0.0,0.0,0.0,0.0,0.0,0.0,0.0,0.0,0.0,0.0,0.0,0.0,0.0,0.0,0.0,0.0,0.0,0.0,0.0,0.0,0.0,0.0,0.0,0.0,0.0,0.0,0.0,0.0,0.0,0.0,0.0,0.0,0.0,0.0,0.0,0.0,0.0,0.0,0.0,0.0,0.0,0.0,0.0,0.0044,0.0257,0.0505,0.0752,0.0,0.0,0.0,0.0,0.0,0.0,0.0,0.0,0.0,0.0,0.0,0.0,0.0,0.0,0.0,0.0,0.0,0.0,0.0,0.0,0.0,0.0,0.0,0.0,0.0,0.0,0.0,0.0,0.0,0.0,0.0,0.0,0.0,0.0,0.0,0.0,0.0,0.0,0.0,0.0,0.0,0.0,0.0,0.0,0.0,0.0,0.0,0.0,0.0,0.0,0.0,0.0,0.0,0.0,0.0,0.0,0.0,0.0,0.0,0.0,0.0,0.0,0.0,0.0,0.0,0.0,0.0,0.0,0.0,0.0,0.0,0.0,0.0,0.0,0.0,0.0,0.0,0.0,0.0,0.0,0.0,0.0,0.0,0.0,0.0,0.0,0.0,0.0,0.0,0.0,0.0,0.0,0.0,0.0,0.0,0.0,0.0,0.0,0.0,0.0,0.0,0.0,0.0,0.0,0.0,0.0,0.0,0.0,0.0,0.0,0.003,0.0099,0.0239,0.0433,0.0,0.0,0.0,0.0,0.0,0.0,0.0,0.0,0.0,0.0,0.0,0.0,0.0,0.0,0.0,0.0,0.0,0.0,0.0,0.0,0.0,0.0,0.0,0.0,0.0,0.0,0.0,0.0,0.0,0.0,0.0,0.0,0.0,0.0,0.0,0.0,0.0,0.0,0.0,0.0,0.0,0.0,0.0,0.0,0.0,0.0,0.0,0.0,0.0,0.0,0.0,0.0,0.0,0.0,0.0,0.0,0.0,0.0,0.0,0.0,0.0,0.0,0.0,0.0,0.0,0.0,0.0,0.0,0.0,0.0,0.0,0.0,0.0,0.0,0.0,0.0,0.0,0.0,0.0,0.0,0.0,0.0,0.0,0.0,0.0,0.0,0.0,0.0,0.0,0.0,0.0,0.0,0.0,0.0,0.0,0.0,0.0,0.0,0.0,0.0,0.0,0.0,0.0,0.0,0.0,0.0,0.0,0.0,0.0,0.0,0.0,0.0,0.003,0.0072,0.0234,0.0,0.0,0.0,0.0,0.0,0.0,0.0,0.0,0.0,0.0,0.0,0.0,0.0,0.0,0.0,0.0,0.0,0.0,0.0,0.0,0.0,0.0,0.0,0.0,0.0,0.0,0.0,0.0,0.0,0.0,0.0,0.0,0.0,0.0,0.0,0.0,0.0,0.0,0.0,0.0,0.0,0.0,0.0,0.0,0.0,0.0,0.0,0.0,0.0,0.0,0.0,0.0,0.0,0.0,0.0,0.0,0.0,0.0,0.0,0.0,0.0,0.0,0.0,0.0,0.0,0.0,0.0,0.0,0.0,0.0,0.0,0.0,0.0,0.0,0.0,0.0,0.0,0.0,0.0,0.0,0.0,0.0,0.0,0.0,0.0,0.0,0.0,0.0,0.0,0.0,0.0,0.0,0.0,0.0,0.0,0.0,0.0,0.0,0.0,0.0,0.0,0.0,0.0,0.0,0.0,0.0,0.0,0.0,0.0,-0.0164,0.0,-0.0165,0.0,-0.0102,0.0043,0.0,0.0,0.0,0.0,0.0,0.0,0.0,0.0,0.0,0.0,0.0,0.0,0.0,0.0,0.0,0.0,0.0,0.0,0.0,0.0,0.0,0.0,0.0,0.0,0.0,0.0,0.0,0.0,0.0,0.0,0.0,0.0,0.0,0.0,0.0,0.0,0.0,0.0,0.0,0.0,0.0,0.0,0.0,0.0,0.0,0.0,0.0,0.0,0.0,0.0,0.0,0.0,0.0,0.0,0.0,0.0,0.0,0.0,0.0,0.0,0.0,0.0,0.0,0.0,0.0,0.0,0.0,0.0,0.0,0.0,0.0,0.0,0.0,0.0,0.0,0.0,0.0,0.0,0.0,0.0,0.0,0.0,0.0,0.0,0.0,0.0,0.0,0.0,0.0,0.0,0.0,0.0,0.0,0.0,0.0,0.0,0.0,0.0,0.0,0.0,0.0,0.0,0.0,0.0,0.0,0.0,0.0,0.0,-0.0536,-0.0507,-0.0586,-0.0569,-0.0419,-0.0348,-0.0153,0.0,0.0,0.0,0.0,0.0,0.0,0.0,0.0,0.0,0.0,0.0,0.0,0.0,0.0,0.0,0.0,0.0,0.0,0.0,0.0,0.0,0.0,0.0,0.0,0.0,0.0,0.0,0.0,0.0,0.0,0.0,0.0,0.0,0.0,0.0,0.0,0.0,0.0,0.0,0.0,0.0,0.0,0.0,0.0,0.0,0.0,0.0,0.0,0.0,0.0,0.0,0.0,0.0,0.0,0.0,0.0,0.0,0.0,0.0,0.0,0.0,0.0,0.0,0.0,0.0,0.0,0.0,0.0,0.0,0.0,0.0,0.0,0.0,0.0,0.0,0.0,0.0,0.0,0.0,0.0,0.0,0.0,0.0,0.0,0.0,0.0,0.0,0.0,0.0,0.0,0.0,0.0,0.0,0.0,0.0,0.0,0.0,0.0,0.0,0.0,0.0,0.0,0.0,0.0,0.0,0.0,0.0,0.0,0.0,-0.1411,-0.1497,-0.1408,-0.1089,-0.0841,-0.0569,0.0,0.0,0.0,0.0,0.0,0.0,0.0,0.0,0.0,0.0,0.0,0.0,0.0,0.0,0.0,0.0,0.0,0.0,0.0,0.0,0.0,0.0,0.0,0.0,0.0,0.0,0.0,0.0,0.0,0.0,0.0,0.0,0.0,0.0,0.0,0.0,0.0,0.0,0.0,0.0,0.0,0.0,0.0,0.0,0.0,0.0,0.0,0.0,0.0,0.0,0.0,0.0,0.0,0.0,0.0,0.0,0.0,0.0,0.0,0.0,0.0,0.0,0.0,0.0,0.0,0.0,0.0,0.0,0.0,0.0,0.0,0.0,0.0,0.0,0.0,0.0,0.0,0.0,0.0,0.0,0.0,0.0,0.0,0.0,0.0,0.0,0.0,0.0,0.0,0.0,0.0,0.0,0.0,0.0,0.0,0.0,0.0,0.0,0.0,0.0,0.0,0.0,0.0,0.0,0.0,0.0,0.0,0.0,0.0,-0.2555,-0.233,-0.1975,-0.1451,-0.1084,-0.072,-0.0329,0.0,0.0,0.0,0.0,0.0,0.0,0.0,0.0,0.0,0.0,0.0,0.0,0.0,0.0,0.0,0.0,0.0,0.0,0.0,0.0,0.0,0.0,0.0,0.0,0.0,0.0,0.0,0.0,0.0,0.0,0.0,0.0,0.0,0.0,0.0,0.0,0.0,0.0,0.0,0.0,0.0,0.0,0.0,0.0,0.0,0.0,0.0,0.0,0.0,0.0,0.0,0.0,0.0,0.0,0.0,0.0,0.0,0.0,0.0,0.0,0.0,0.0,0.0,0.0,0.0,0.0,0.0,0.0,0.0,0.0,0.0,0.0,0.0,0.0,0.0,0.0,0.0,0.0,0.0,0.0,0.0,0.0,0.0,0.0,0.0,0.0,0.0,0.0,0.0,0.0,0.0,0.0,0.0,0.0,0.0,0.0,0.0,0.0,0.0,0.0,0.0,0.0,0.0,0.0,0.0,0.0,0.0,0.0,-0.383,-0.3076,-0.2313,-0.1569,-0.1127,-0.0671,0.0,0.0,0.0,0.0,0.0,0.0,0.0,0.0,0.0,0.0,0.0,0.0,0.0,0.0,0.0,0.0,0.0,0.0,0.0,0.0,0.0,0.0,0.0,0.0,0.0,0.0,0.0,0.0,0.0,0.0,0.0,0.0,0.0,0.0,0.0,0.0,0.0,0.0,0.0,0.0,0.0,0.0,0.0,0.0,0.0,0.0,0.0,0.0,0.0,0.0,0.0,0.0,0.0,0.0,0.0,0.0,0.0,0.0,0.0,0.0,0.0,0.0,0.0,0.0,0.0,0.0,0.0,0.0,0.0,0.0,0.0,0.0,0.0,0.0,0.0,0.0,0.0,0.0,0.0,0.0,0.0,0.0,0.0,0.0,0.0,0.0,0.0,0.0,0.0,0.0,0.0,0.0,0.0,0.0,0.0,0.0,0.0,0.0,0.0,0.0,0.0,0.0,0.0,0.0,0.0,0.0,0.0,0.0,0.0,-0.4087,-0.3866,-0.325,-0.2211,-0.1341,-0.0743,0.0,0.0,0.0,0.0,0.0,0.0,0.0,0.0,0.0,0.0,0.0,0.0,0.0,0.0,0.0,0.0,0.0,0.0,0.0,0.0,0.0,0.0,0.0,0.0,0.0,0.0,0.0,0.0,0.0,0.0,0.0,0.0,0.0,0.0,0.0,0.0,0.0,0.0,0.0,0.0,0.0,0.0,0.0,0.0,0.0,0.0,0.0,0.0,0.0,0.0,0.0,0.0,0.0,0.0,0.0,0.0,0.0,0.0,0.0,0.0,0.0,0.0,0.0,0.0,0.0,0.0,0.0,0.0,0.0,0.0,0.0,0.0,0.0,0.0,0.0,0.0,0.0,0.0,0.0,0.0,0.0,0.0,0.0,0.0,0.0,0.0,0.0,0.0,0.0,0.0,0.0,0.0,0.0,0.0,0.0,0.0,0.0,0.0,0.0,0.0,0.0,0.0,0.0,0.0,0.0,0.0,0.0,0.0,-0.4611,-0.4536,-0.4488,-0.3944,-0.2824,-0.1673,-0.0875,0.0,0.0,0.0,0.0,0.0,0.0,0.0,0.0,0.0,0.0,0.0,0.0,0.0,0.0,0.0,0.0,0.0,0.0,0.0,0.0,0.0,0.0,0.0,0.0,0.0,0.0,0.0,0.0,0.0,0.0,0.0,0.0,0.0,0.0,0.0,0.0,0.0,0.0,0.0,0.0,0.0,0.0,0.0,0.0,0.0,0.0,0.0,0.0,0.0,0.0,0.0,0.0,0.0,0.0,0.0,0.0,0.0,0.0,0.0,0.0,0.0,0.0,0.0,0.0,0.0,0.0,0.0,0.0,0.0,0.0,0.0,0.0,0.0,0.0,0.0,0.0,0.0,0.0,0.0,0.0,0.0,0.0,0.0,0.0,0.0,0.0,0.0,0.0,0.0,0.0,0.0,0.0,0.0,0.0,0.0,0.0,0.0,0.0,0.0,0.0,0.0,0.0,0.0,0.0,0.0,0.0,0.0,0.0,-0.4983,-0.5054,-0.5035,-0.4477,-0.3403,-0.2062,-0.1064,0.0,0.0,0.0,0.0,0.0,0.0,0.0,0.0,0.0,0.0,0.0,0.0,0.0,0.0,0.0,0.0,0.0,0.0,0.0,0.0,0.0,0.0,0.0,0.0,0.0,0.0,0.0,0.0,0.0,0.0,0.0,0.0,0.0,0.0,0.0,0.0,0.0,0.0,0.0,0.0,0.0,0.0,0.0,0.0,0.0,0.0,0.0,0.0,0.0,0.0,0.0,0.0,0.0,0.0,0.0,0.0,0.0,0.0,0.0,0.0,0.0,0.0,0.0,0.0,0.0,0.0,0.0,0.0,0.0,0.0,0.0,0.0,0.0,0.0,0.0,0.0,0.0,0.0,0.0,0.0,0.0,0.0,0.0,0.0,0.0,0.0,0.0,0.0,0.0,0.0,0.0,0.0,0.0,0.0,0.0,0.0,0.0,0.0,0.0,0.0,0.0,0.0,0.0,0.0,0.0,0.0,0.0,0.0,-0.5326,-0.537,-0.5511,-0.5146,-0.4096,-0.2438,-0.1282,0.0,0.0,0.0,0.0,0.0,0.0,0.0,0.0,0.0,0.0,0.0,0.0,0.0,0.0,0.0,0.0,0.0,0.0,0.0,0.0,0.0,0.0,0.0,0.0,0.0,0.0,0.0,0.0,0.0,0.0,0.0,0.0,0.0,0.0,0.0,0.0,0.0,0.0,0.0,0.0,0.0,0.0,0.0,0.0,0.0,0.0,0.0,0.0,0.3093,0.0,0.0,0.0,0.0,0.0,0.0,0.0,0.0,0.0,0.0,0.0,0.0,0.0,0.0,0.0,0.0,0.0,0.0,0.0,0.0,0.0,0.0,0.0,0.0,0.0,0.0,0.0,0.0,0.0,0.0,0.0,0.0,0.0,0.0,0.0,0.0,0.0,0.0,0.0,0.0,0.0,0.0,0.0,0.0,0.0,0.0,0.0,0.0,0.0,0.0,0.0,0.0,0.0,0.0,0.0,0.0,0.0,0.0,0.0,-0.5679,-0.5871,-0.6168,-0.5791,-0.4733,-0.3245,-0.1987,0.0,0.0,0.0,0.0,0.0,0.0,0.0,0.0,0.0,0.0,0.0,0.0,0.0,0.0,0.0,0.0,0.0,0.0,0.0,0.0,0.0,0.0,0.0,0.0,0.0,0.0,0.0,0.0,0.0,0.0,0.0,0.0,0.0,0.0,0.0,0.0,0.0,0.0,0.0,0.0,0.0,0.0,0.0,0.0,0.0,0.0,0.0,0.0,0.0,0.0,0.0,0.0,0.0,0.0,0.0,0.0,0.0,0.0,0.0,0.0,0.0,0.0,0.0,0.0,0.0,0.0,0.0,0.0,0.0,0.0,0.0,0.0,0.0,0.0,0.0,0.0,0.0,0.0,0.0,0.0,0.0,0.0,0.0,0.0,0.0,0.0,0.0,0.0,0.0,0.0,0.0,0.0,0.0,0.0,0.0,0.0,0.0,0.0,0.0,0.0,0.0,0.0,0.0,0.0,0.0,0.0,0.0,-0.5426,-0.6017,-0.6368,-0.6742,-0.6392,-0.53,-0.4106,-0.2845,-0.1434,0.0,0.0,0.0,0.0,0.0,0.0,0.0,0.0,0.0,0.0,0.0,0.0,0.0,0.0,0.0,0.0,0.0,0.0,0.0,0.0,0.0,0.0,0.0,0.0,0.0,0.0,0.0,0.0,0.0,0.0,0.0,0.0,0.0,0.0,0.0,0.0,0.0,0.0,0.0562,0.0696,0.0,0.0,0.0,0.0,0.0,0.0,0.0,0.0,0.2307,0.0,0.0,0.0,0.0,0.0,0.0,0.0,0.0,0.0,0.0,0.0,0.0,0.0,0.0,0.0,0.0,0.0,0.0,0.0,0.0,0.0,0.0,0.0,0.0,0.0,0.0,0.0,0.0,0.0,0.0,0.0,0.0,0.0,0.0,0.0,0.0,0.0,0.0,0.0,0.0,0.0,0.0,0.0,0.0,0.0,0.0,0.0,0.0,0.0,0.0,0.0,0.0,0.0,0.0,0.0,0.0,-0.5009,-0.5789,-0.6329,-0.6624,-0.6943,-0.6658,-0.5708,-0.4533,-0.3368,-0.2214,0.0,0.0,0.0,0.0,0.0,0.0,0.0,0.0,0.0,0.0,0.0,0.0,0.0,0.0,0.0,0.0,0.0,0.0,0.0,0.0,0.0,0.0,0.0,0.0,0.0,0.0,0.0,0.0,0.0,0.0,0.0,0.0,0.0,0.0,0.0,0.0,0.0,0.0,0.0,0.0125,0.0253,0.0,0.0,0.0,0.0,0.0,0.0,0.0,0.0,0.2158,0.0,0.0,0.0,0.0,0.0,0.0,0.0,0.0,0.0,0.0,0.0,0.0,0.0,0.0,0.0,0.0,0.0,0.0,0.0,0.0,0.0,0.0,0.0,0.0,0.0,0.0,0.0,0.0,0.0,0.0,0.0,0.0,0.0,0.0,0.0,0.0,0.0,0.0,0.0,0.0,0.0,0.0,0.0,0.0,0.0,0.0,0.0,0.0,0.0,0.0,0.0,0.0,0.0,0.0,0.0,-0.5233,-0.6027,-0.6555,-0.6814,-0.6984,-0.6737,-0.591,-0.4851,-0.3728,0.0,0.0,0.0,0.0,0.0,0.0,0.0,0.0,0.0,0.0,0.0,0.0,0.0,0.0,0.0,0.0,0.0,0.0,0.0,0.0,0.0,0.0,0.0,0.0,0.0,0.0,0.0,0.0,0.0,0.0,0.0,0.0,0.0,0.0,0.0,0.0,0.0,0.0,0.0,0.0,-0.0624,-0.0555,-0.0225,0.0,0.0,0.0,0.0,0.0,0.0,0.1694,0.1816,0.0,0.0,0.0,0.0,0.0,0.0,0.0,0.0,0.0,0.0,0.0,0.0,0.0,0.0,0.0,0.0,0.0,0.0,0.0,0.0,0.0,0.0,0.0,0.0,0.0,0.0,0.0,0.0,0.0,0.0,0.0,0.0,0.0,0.0,0.0,0.0,0.0,0.0,0.0,0.0,0.0,0.0,0.0,0.0,0.0,0.0,0.0,0.0,0.0,0.0,0.0,0.0,0.0,0.0,0.0,-0.547,-0.6194,-0.6668,-0.6916,-0.7038,-0.678,-0.6076,-0.514,-0.4092,0.0,0.0,0.0,0.0,0.0,0.0,0.0,0.0,0.0,0.0,0.0,0.0,0.0,0.0,0.0,0.0,0.0,0.0,0.0,0.0,0.0,0.0,0.0,0.0,0.0,0.0,0.0,0.0,0.0,0.0,0.0,0.0,0.0,0.0,0.0,0.0,0.0,0.0,0.0,0.0,0.0,-0.1288,-0.0963,-0.069,0.0,0.0,0.0,0.0,0.1168,0.1371,0.0,0.0,0.0,0.0,0.0,0.0,0.0,0.0,0.0,0.0,0.0,0.0,0.0,0.0,0.0,0.0,0.0,0.0,0.0,0.0,0.0,0.0,0.0,0.0,0.0,0.0,0.0,0.0,0.0,0.0,0.0,0.0,0.0,0.0,0.0,0.0,0.0,0.0,0.0,0.0,0.0,0.0,0.0,0.0,0.0,0.0,0.0,0.0,0.0,0.0,0.0,0.0,0.0,0.0,0.0,0.0,-0.5735,-0.6359,-0.6817,-0.7055,-0.7085,-0.6867,-0.6363,-0.5483,-0.4502,0.0,0.0,0.0,0.0,0.0,0.0,0.0,0.0,0.0,0.0,0.0,0.0,0.0,0.0,0.0,0.0,0.0,0.0,0.0,0.0,0.0,0.0,0.0,0.0,0.0,0.0,0.0,0.0,0.0,0.0,0.0,0.0,0.0,0.0,0.0,0.0,0.0,0.0,0.0,0.0,0.0,-0.1645,-0.1373,-0.1113,-0.0718,0.0,0.0,0.0756,0.1063,0.1237,0.0,0.0,0.0,0.0,0.0,0.0,0.0,0.0,0.0,0.0,0.0,0.0,0.0,0.0,0.0,0.0,0.0,0.0,0.0,0.0,0.0,0.0,0.0,0.0,0.0,0.0,0.0,0.0,0.0,0.0,0.0,0.0,0.0,0.0,0.0,0.0,0.0,0.0,0.0,0.0,0.0,0.0,0.0,0.0,0.0,0.0,0.0,0.0,0.0,0.0,0.0,0.0,0.0,0.0,0.0,-0.4793,-0.5779,-0.6393,-0.6844,-0.7085,-0.7095,-0.6913,-0.6454,-0.5842,-0.4935,0.0,0.0,0.0,0.0,0.0,0.0,0.0,0.0,0.0,0.0,0.0,0.0,0.0,0.0,0.0,0.0,0.0,0.0,0.0,0.0,0.0,0.0,0.0,0.0,0.0,0.0,0.0,0.0,0.0,0.0,0.0,0.0,0.0,0.0,0.0,0.0,0.0,0.0,0.0,0.0,0.0,0.0,-0.1945,-0.165,0.0,0.0,0.0,0.0328,0.0606,0.0,0.0,0.0,0.0,0.0,0.0,0.0,0.0,0.0,0.0,0.0,0.0,0.0,0.0,0.0,0.0,0.0,0.0,0.0,0.0,0.0,0.0,0.0,0.0,0.0,0.0,0.0,0.0,0.0,0.0,0.0,0.0,0.0,0.0,0.0,0.0,0.0,0.0,0.0,0.0,0.0,0.0,0.0,0.0,0.0,0.0,0.0,0.0,0.0,0.0,0.0,0.0,0.0,0.0,0.0,0.0,0.0,-0.5789,-0.6393,-0.6844,-0.7085,-0.7095,-0.6903,-0.6539,-0.6132,0.0,0.0,0.0,0.0,0.0,0.0,0.0,0.0,0.0,0.0,0.0,0.0,0.0,0.0,0.0,0.0,0.0,0.0,0.0,0.0,0.0,0.0,0.0,0.0,0.0,0.0,0.0,0.0,0.0,0.0,0.0,0.0,0.0,0.0,0.0,0.0,0.0,0.0,0.0,0.0,0.0,0.0,-0.2666,-0.2456,-0.2118,-0.1683,0.0,0.0,-0.0127,0.0062,0.0167,0.0304,0.0,0.0,0.0,0.0,0.0,0.0,0.0,0.0,0.0,0.0,0.0,0.0,0.0,0.0,0.0,0.0,0.0,0.0,0.0,0.0,0.0,0.0,0.0,0.0,0.0,0.0,0.0,0.0,0.0,0.0,0.0,0.0,0.0,0.0,0.0,0.0,0.0,0.0,0.0,0.0,0.0,0.0,0.0,0.0,0.0,0.0,0.0,0.0,0.0,0.0,0.0,0.0,0.0,0.0,0.0,-0.5783,-0.6393,-0.6844,-0.7082,-0.7095,-0.695,-0.6692,-0.6429,-0.5722,0.0,0.0,0.0,0.0,0.0,0.0,0.0,0.0,0.0,0.0,0.0,0.0,0.0,0.0,0.0,0.0,0.0,0.0,0.0,0.0,0.0,0.0,0.0,0.0,0.0,0.0,0.0,0.0,0.0,0.0,0.0,0.0,0.0,0.0,0.0,0.0,0.0,0.0,0.0,0.0,0.0,-0.2868,-0.2774,-0.2372,-0.1974,0.0,0.0,-0.0677,-0.0561,-0.0397,-0.0165,0.0098,0.0,0.0,0.0,0.0,0.0,0.0,0.0,0.0,0.0,0.0,0.0,0.0,0.0,0.0,0.0,0.0,0.0,0.0,0.0,0.0,0.0,0.0,0.0,0.0,0.0,0.0,0.0,0.0,0.0,0.0,0.0,0.0,0.0,0.0,0.0,0.0,0.0,0.0,0.0,0.0,0.0,0.0,0.0,0.0,0.0,0.0,0.0,0.0,0.0,0.0,0.0,0.0,0.0,-0.4816,-0.5789,-0.6396,-0.6844,-0.7082,-0.7095,-0.7004,-0.6844,-0.6546,-0.5925,0.0,0.0,0.0,0.0,0.0,0.0,0.0,0.0,0.0,0.0,0.0,0.0,0.0,0.0,0.0,0.0,0.0,0.0,0.0,0.0,0.0,0.0,0.0,0.0,0.0,0.0,0.0,0.0,-0.0158,-0.0196,-0.0238,0.0,0.0,0.0,0.0,0.0,0.0,0.0,0.0,0.0,0.0,-0.2903,-0.2914,-0.2737,0.0,0.0,-0.1905,-0.16,-0.1503,-0.1342,-0.1142,-0.0816,-0.0496,0.0,0.0,0.0,0.0,0.0,0.0,0.0,0.0,0.0,0.0,0.0,0.0,0.0,0.0,0.0,0.0,0.0,0.0,0.0,0.0,0.0,0.0,0.0,0.0,0.0,0.0,0.0,0.0,0.0,0.0,0.0,0.0,0.0,0.0,0.0,0.0,0.0,0.0,0.0,0.0,0.0,0.0,0.0,0.0,0.0,0.0,0.0,0.0,0.0,0.0,0.0,0.0,-0.4806,-0.5789,-0.6393,-0.6844,-0.7088,-0.7095,-0.7031,-0.6883,-0.6675,-0.6095,0.0,0.0,0.0,0.0,0.0,0.0,0.0,0.0,0.0,0.0,0.0,0.0,0.0,0.0,0.0,0.0,0.0,0.0,0.0,0.0,0.0,0.0,0.0,0.0,0.0,0.0,0.0,0.0,-0.0397,-0.0498,-0.0535,0.0,0.0,0.0,0.0,0.0,0.0,0.0,0.0,0.0,0.0,-0.3069,-0.3162,-0.3121,-0.3008,-0.28,-0.2618,-0.2469,-0.2273,-0.2154,-0.1944,-0.159,0.0,0.0,0.0,0.0,0.0,0.0,0.0,0.0,0.0,0.0,0.0,0.0,0.0,0.0,0.0,0.0,0.0,0.0,0.0,0.0,0.0,0.0,0.0,0.0,0.0,0.0,0.0,0.0,0.0,0.0,0.0,0.0,0.0,0.0,0.0,0.0,0.0,0.0,0.0,0.0,0.0,0.0,0.0,0.0,0.0,0.0,0.0,0.0,0.0,0.0,0.0,0.0,0.0,-0.4928,-0.5793,-0.6396,-0.6844,-0.7085,-0.7095,-0.7031,-0.6936,-0.6776,-0.6331,-0.5581,0.0,0.0,0.0,0.0,0.0,0.0,0.0,0.0,0.0,0.0,0.0,0.0,0.0,0.0,0.0,0.0,0.0,0.0,0.0,0.0,0.0,0.0,0.0,0.0,0.0,0.0,-0.0392,-0.0702,-0.0887,0.0,0.0,0.0,0.0,0.0,0.0,0.0,0.0,0.0,0.0,-0.3206,-0.3385,-0.3562,-0.3532,-0.3467,-0.3402,-0.3333,-0.3165,-0.2844,-0.273,-0.2567,0.0,0.0,0.0,0.0,0.0,0.0,0.0,0.0,0.0,0.0,0.0,0.0,0.0,0.0,0.0,0.0,0.0,0.0,0.0,0.0,0.0,0.0,0.0,0.0,0.0,0.0,0.0,-0.0713,-0.066,0.0,0.0,0.0,0.0,0.0,0.0,0.0,0.0,0.0,0.0,0.0,-0.4015,-0.4051,0.0,0.0,0.0,0.0,0.0,0.0,0.0,0.0,0.0,0.0,0.0,0.0,-0.4935,-0.5783,-0.6393,-0.6844,-0.7085,-0.7095,-0.7071,-0.7024,-0.6831,-0.6239,-0.5286,0.0,0.0,0.0,0.0,0.0,0.0,0.0,0.0,0.0,0.0,0.0,0.0,0.0,0.0,0.0,0.0,0.0,0.0,0.0,0.0,0.0,0.0,0.0,0.0,0.0,-0.057,0.0,0.0,0.0,0.0,0.0,0.0,0.0,0.0,0.0,0.0,0.0,-0.2829,-0.3182,-0.3405,-0.359,-0.3831,-0.4055,-0.4179,0.0,0.0,0.0,0.0,0.0,0.0,0.0,0.0,0.0,0.0,0.0,0.0,0.0,0.0,-0.0832,0.0116,0.026,0.0257,0.0286,0.0,0.0,0.0,0.0,0.0,0.0,0.0,0.0,0.0,0.0,0.0,0.0,0.0,0.0,-0.1937,0.0,-0.1514,0.0,0.0,0.0,0.0,0.0,0.0,0.0,0.0,-0.4782,-0.5174,-0.5348,-0.5389,-0.5389,0.0,-0.5438,-0.4983,0.0,0.0,0.0,0.0,0.0,0.0,0.0,0.0,-0.5036,-0.5867,-0.6474,-0.6898,-0.7082,-0.7095,-0.7095,-0.7092,-0.6803,-0.6176,-0.5243,-0.4499,-0.3745,0.0,0.0,0.0,0.0,0.0,0.0,0.0,0.0,0.0,0.0,0.0,0.0,0.0,0.0,0.0,0.0,0.0,0.0,0.0,0.0,0.0,0.0,0.0,-0.0953,0.0,0.0,0.0,0.0,0.0,0.0,0.0,0.0,0.0,-0.237,-0.2735,-0.31,-0.3371,-0.3653,-0.39,-0.4141,0.0,0.0,0.0,0.0,0.0,0.0,0.0,-0.4184,-0.4001,-0.367,-0.3391,-0.3255,-0.296,-0.267,-0.2447,0.0,0.0,-0.0824,-0.0653,-0.0679,-0.0637,-0.0804,-0.105,-0.1385,-0.1613,-0.1857,0.0,0.0,0.0,0.0,0.0,0.0,0.0,0.0,-0.3691,-0.3626,0.0,-0.2921,0.0,0.0,0.0,0.0,0.0,-0.3705,0.0,0.0,-0.6263,-0.6803,-0.6903,-0.7031,-0.7034,-0.6963,-0.7028,-0.6792,-0.6244,-0.4888,0.0,0.0,0.0,0.0,0.0,0.0,-0.5258,-0.5986,-0.6579,-0.6953,-0.7088,-0.7095,-0.7088,-0.7068,-0.6702,-0.6173,-0.5457,-0.4951,-0.4327,-0.3483,-0.2863,0.0,0.0,0.0,0.0,0.0,0.0,0.0,0.0,0.0,0.0,0.0,0.0,0.0,0.0,0.0,0.0,0.0,0.0,0.0,0.0,-0.1091,0.0,0.0,0.0,0.0,0.0,0.0,0.0,0.0,0.0,0.0,-0.2716,-0.3212,-0.3617,-0.3634,0.0,0.0,0.0,0.0,-0.5087,-0.4941,-0.5186,-0.5248,-0.4822,-0.4747,-0.4635,-0.4397,0.0,0.0,-0.3619,-0.3408,-0.3289,-0.325,-0.3146,-0.2798,-0.2051,-0.1824,-0.1796,-0.1786,-0.187,-0.2133,-0.241,-0.2498,-0.268,-0.6908,0.0,0.0,0.0,0.0,-0.4485,-0.4614,-0.4706,-0.4676,-0.4594,-0.4441,-0.3939,0.0,0.0,0.0,0.0,0.0,0.0,-0.5657,-0.6347,-0.6934,-0.7261,-0.7411,-0.7448,-0.7448,-0.7407,-0.7339,-0.7163,-0.6871,-0.6149,-0.5462,-0.4813,0.0,0.0,0.0,0.0,-0.5406,-0.6173,-0.6678,-0.6953,-0.7095,-0.7095,-0.6997,-0.6834,-0.6597,-0.6271,-0.585,-0.5276,-0.483,-0.4457,-0.3621,0.0,0.0,0.0,0.0,0.0,0.0,0.0,0.0,0.0,0.0,0.0,0.0,0.0,0.0,0.0,0.0,0.0,0.0,0.0,-0.1527,-0.1692,-0.1881,0.0,0.0,0.0,0.0,0.0,0.0,0.0,0.0,0.0,-0.3604,-0.3758,-0.3972,0.0,0.0,-0.4657,-0.4904,-0.5142,-0.5352,-0.5525,0.0,0.0,0.0,-0.524,-0.5192,-0.5228,-0.5173,-0.5065,-0.4894,-0.4693,-0.4478,-0.4292,-0.4161,-0.3937,-0.3574,-0.2882,-0.2398,-0.2314,-0.2369,-0.2501,-0.2742,-0.2916,-0.3101,-0.8218,-0.7139,-0.6756,-0.6392,-0.6057,-0.6174,-0.6269,-0.6428,-0.6328,-0.6195,-0.6033,-0.556,-0.4906,-0.4129,-0.4062,0.0,0.0,0.0,-0.6616,-0.707,-0.7452,-0.7655,-0.7689,-0.7746,-0.7743,-0.7678,-0.759,-0.7468,-0.7316,-0.7051,-0.6617,-0.6,0.0,0.0,-0.5315,-0.541,-0.58,-0.6457,-0.6814,-0.7011,-0.7095,-0.7095,-0.6957,-0.6712,-0.661,-0.6366,-0.5915,-0.5504,-0.5157,-0.4894,-0.4125,-0.3475,0.0,0.0,0.0,0.0,0.0,0.0,0.0,0.0,0.0,0.0,0.0,-0.0228,0.0,0.0,0.0,0.0,-0.1433,-0.1801,-0.2189,-0.2259,0.0,0.0,0.0,0.0,0.0,0.0,0.0,-0.3441,-0.393,-0.4331,-0.4415,-0.4565,-0.4643,-0.4675,-0.4877,-0.5114,-0.5287,0.0,-0.5667,-0.5786,-0.5779,-0.5742,-0.5681,-0.5596,-0.5603,-0.5657,-0.5674,-0.5647,-0.5586,-0.5365,-0.5165,-0.5013,-0.4764,-0.4528,-0.4412,-0.3748,-0.3204,-0.3126,-0.3124,-0.3187,-0.3325,-0.343,-0.3556,-0.913,-0.8919,-0.856,-0.8275,-0.8046,-0.8039,-0.8245,-0.8472,-0.814,-0.8019,-0.7985,-0.7424,-0.6774,-0.6097,-0.5826,0.0,-0.6621,-0.7181,-0.7509,-0.7648,-0.7926,-0.7974,-0.7841,-0.7921,-0.7917,-0.7828,-0.7804,-0.7726,-0.76,-0.758,-0.7512,-0.7388,-0.6173,-0.5722,-0.606,-0.607,-0.6315,-0.6749,-0.7021,-0.7109,-0.7095,-0.7095,-0.6953,-0.6709,-0.6702,-0.642,-0.585,-0.5681,-0.541,-0.4955,-0.4447,-0.3903,-0.3398,0.0,0.0,0.0,0.0,0.0,0.0,0.0,0.0,0.0,0.0,0.0,0.0,0.0,0.0,0.0,-0.203,0.0,-0.274,-0.2778,0.0,0.0,0.0,-0.313,-0.3451,-0.3597,-0.3798,-0.4014,0.0,0.0,-0.5086,-0.5426,-0.5474,-0.5029,-0.5355,-0.561,-0.5623,-0.5847,-0.5946,-0.5871,-0.5956,-0.5996,-0.5878,-0.5844,-0.584,-0.585,-0.583,-0.5817,-0.5793,-0.5572,-0.5433,-0.5368,-0.5033,-0.4697,-0.4694,-0.4378,-0.4174,-0.4043,-0.3976,-0.3977,-0.3936,-0.3957,-0.3954,-0.9642,-0.9542,-0.9496,-0.9103,-0.8554,-0.855,-0.8591,-0.8635,-0.8459,-0.8316,-0.8208,-0.7885,-0.7392,-0.6887,-0.6682,-0.6829,-0.7289,-0.7838,-0.8011,-0.7946,-0.8126,-0.8133,-0.7941,-0.7971,-0.7971,-0.7924,-0.7756,-0.7631,-0.7597,-0.7482,-0.7407,-0.7402,-0.7091,-0.6888,-0.6829,-0.6728,-0.6878,-0.7207,-0.7278,-0.7261,-0.7098,-0.7095,-0.6953,-0.6709,-0.6702,-0.6474,-0.5956,-0.583,-0.565,-0.543,-0.486,-0.4378,-0.3999,-0.3488,0.0,0.0,0.0,0.0,0.0,0.0,0.0,0.0,0.0,-0.0973,-0.1136,0.0,-0.1925,0.0,-0.2618,-0.3017,-0.3358,-0.3484,0.0,0.0,-0.3812,-0.3977,-0.4204,-0.4361,-0.4457,-0.4524,-0.4928,-0.5259,-0.5298,-0.5667,-0.5848,-0.574,-0.5752,-0.5793,-0.5908,-0.5942,-0.6061,-0.617,-0.6211,-0.6231,-0.6187,-0.619,-0.6184,-0.6187,-0.6051,-0.5939,-0.5939,-0.5732,-0.5501,-0.5405,-0.5094,-0.4847,-0.4721,-0.4566,-0.4491,-0.4484,-0.4263,-0.3994,-0.3994,-0.4001,-0.3998,-0.9819,-0.9819,-0.9819,-0.9581,-0.9144,-0.9137,-0.911,-0.91,-0.8947,-0.8838,-0.876,-0.8578,-0.8266,-0.7956,-0.7846,-0.7901,-0.8127,-0.8437,-0.8486,-0.8347,-0.8428,-0.8384,-0.8238,-0.8235,-0.812,-0.7985,-0.7804,-0.7662,-0.7597,-0.7512,-0.7502,-0.757,-0.7634,-0.7624,-0.7486,-0.7268,-0.7241,-0.7468,-0.745,-0.7374,-0.7244,-0.7132,-0.6953,-0.6712,-0.6634,-0.6386,-0.5945,-0.5783,-0.564,-0.5521,-0.5043,-0.4687,-0.4446,-0.3901,-0.3361,0.0,0.0,0.0,0.0,0.0,0.0,0.0,0.0,0.0,0.0,0.0,-0.2696,-0.3074,-0.34,-0.3744,-0.4046,-0.4144,-0.428,-0.4463,-0.456,-0.4668,-0.4877,-0.4874,-0.4938,-0.5074,-0.5311,-0.5545,-0.5647,-0.5935,-0.6132,-0.6132,-0.6098,-0.6037,-0.6112,-0.6135,-0.6162,-0.6286,-0.63,-0.63,-0.63,-0.63,-0.63,-0.6293,-0.6228,-0.6132,-0.6125,-0.5942,-0.5735,-0.561,-0.5347,-0.507,-0.4914,-0.4765,-0.4701,-0.4728,-0.4599,-0.4385,-0.4331,-0.4321,-0.4304,-0.9819,-0.9819,-0.9819,-0.9819,-0.9812,-0.969,-0.9625,-0.9602,-0.9449,-0.9371,-0.9344,-0.9268,-0.9072,-0.8885,-0.8865,-0.8851,-0.8854,-0.8834,-0.8801,-0.8659,-0.8672,-0.8601,-0.8455,-0.8472,-0.8336,-0.8019,-0.7892,-0.7746,-0.7631,-0.7611,-0.7672,-0.7811,-0.7914,-0.7988,-0.7971,-0.7651,-0.7512,-0.7621,-0.7495,-0.7407,-0.7415,-0.7238,-0.6974,-0.6715,-0.6593,-0.6293,-0.58,-0.5654,-0.5552,-0.5395,-0.5094,-0.4877,-0.4714,-0.4168,-0.3694,0.0,-0.3086,0.0,0.0,0.0,0.0,0.0,0.0,0.0,0.0,-0.3187,-0.3527,-0.4075,-0.4244,-0.4446,-0.4752,-0.4796,-0.4908,-0.5123,-0.517,-0.527,-0.5426,-0.5281,-0.5301,-0.5586,-0.5616,-0.5725,-0.5976,-0.6166,-0.6296,-0.6286,-0.6279,-0.6282,-0.632,-0.6303,-0.6289,-0.63,-0.63,-0.63,-0.63,-0.63,-0.63,-0.63,-0.6293,-0.63,-0.6289,-0.6118,-0.5966,-0.5806,-0.5603,-0.5371,-0.5165,-0.4992,-0.4948,-0.4911,-0.4921,-0.4863,-0.4731,-0.4667,-0.4646,-0.9819,-0.9819,-0.9819,-0.9819,-0.9819,-0.9791,-0.9713,-0.9598,-0.9445,-0.931,-0.9251,-0.9221,-0.9072,-0.8878,-0.8808,-0.8754,-0.8747,-0.8625,-0.8489,-0.8357,-0.8472,-0.8448,-0.8323,-0.8428,-0.8394,-0.8218,-0.7946,-0.7797,-0.777,-0.7655,-0.7672,-0.7814,-0.7914,-0.7988,-0.7985,0.0,0.0,0.0,-0.7743,-0.7611,-0.7429,-0.7343,-0.7129,-0.6715,-0.6552,0.0,-0.5667,-0.5603,-0.5556,-0.5402,-0.5186,0.0,0.0,0.0,0.0,0.0,0.0,0.0,0.0,0.0,0.0,0.0,-0.4473,-0.4272,-0.3709,-0.4081,-0.4496,-0.4702,-0.485,-0.5036,-0.5248,-0.5378,-0.5443,-0.5498,-0.5606,-0.5688,-0.5711,-0.5589,-0.5576,-0.5735,-0.5759,-0.5827,-0.5966,-0.6162,-0.63,-0.6306,-0.63,-0.6347,-0.646,-0.6378,-0.6303,-0.63,-0.631,-0.6303,-0.63,-0.63,-0.63,-0.63,-0.63,-0.63,-0.6286,-0.6146,-0.5982,-0.5827,-0.5694,-0.5539,-0.5174,-0.5076,-0.5076,-0.5063,-0.5063,-0.5015,-0.4904,-0.4779,-0.468,-0.9624,0.0,-0.9254,-0.9032,0.0,-0.9028,-0.9176,-0.9229,-0.9453,-0.9473,-0.9269,-0.9323,-0.9103,-0.8821,-0.8743,-0.8665,-0.8591,-0.8516,-0.8442,-0.8436,-0.8526,-0.8557,-0.8492,-0.8638,-0.8591,-0.8367,-0.8147,-0.796,-0.7814,-0.774,-0.774,-0.7814,-0.7914,-0.7988,-0.7988,-0.7988,-0.7951,-0.7874,-0.7848,-0.7706,-0.7538,-0.7456,-0.7193,-0.6827,0.0,0.0,0.0,0.0,0.0,0.0,0.0,0.0,0.0,0.0,0.0,-0.425,-0.4233,-0.4267,-0.4351,-0.4626,-0.4891,-0.5121,-0.5335,-0.5209,-0.4614,-0.4941,-0.5165,-0.5247,-0.5379,-0.5525,-0.5674,-0.5762,-0.5837,-0.5948,-0.5986,-0.6067,-0.6044,-0.5827,-0.5755,-0.5874,-0.5811,-0.5857,-0.601,-0.623,-0.6395,-0.6409,-0.647,-0.6498,-0.6556,-0.6497,-0.6405,-0.6405,-0.6405,-0.6375,-0.6317,-0.63,-0.63,-0.63,-0.63,-0.63,-0.63,-0.6218,-0.6105,-0.5949,-0.5932,-0.5883,-0.5549,-0.5464,-0.541,-0.5342,-0.5359,-0.5308,-0.5165,-0.5016,-0.4857,-0.9292,-0.8792,-0.8355,-0.7854,-0.7375,-0.7805,-0.8294,-0.8787,0.0,0.0,0.0,-0.9391,-0.9161,-0.8791,-0.8706,-0.8604,-0.8479,-0.8428,-0.8418,-0.8452,-0.8598,-0.8686,-0.8716,-0.8866,-0.874,-0.8523,-0.8426,-0.8163,-0.7899,-0.7865,-0.7851,-0.7865,-0.7931,-0.7988,-0.7988,-0.7988,-0.7988,-0.7985,-0.7916,-0.777,-0.7604,-0.7478,-0.7258,-0.6893,-0.6658,-0.6474,-0.6303,-0.603,-0.5844,-0.5837,-0.5586,-0.5474,-0.546,-0.5064,-0.485,-0.485,-0.485,-0.4914,-0.5067,-0.5174,-0.541,-0.5688,-0.5817,-0.5791,-0.5498,-0.5614,-0.5667,-0.5667,-0.582,-0.5973,-0.6098,-0.6135,-0.6196,-0.6364,-0.6375,-0.6371,-0.6323,-0.6095,-0.5939,-0.603,-0.5942,-0.5901,-0.6061,-0.634,-0.6515,-0.6528,-0.6583,-0.6719,-0.6715,-0.661,-0.6512,-0.6555,-0.6552,-0.6471,-0.6412,-0.6358,-0.634,-0.6351,-0.6323,-0.63,-0.63,-0.63,-0.6248,-0.6095,-0.6221,-0.6149,-0.5905,-0.582,-0.5789,-0.5657,-0.5627,-0.5627,-0.5501,-0.5318,-0.5114,-0.8724,-0.772,-0.7038,-0.6232,-0.5345,-0.602,-0.7062,-0.8477,-0.9393,-0.9727,-0.9571,-0.9439,-0.9276,-0.9129,-0.874,-0.8499,-0.8465,-0.8214,-0.8174,0.0,-0.8448,-0.8584,-0.8716,-0.8811,-0.8849,-0.8676,-0.8526,-0.8367,-0.8208,-0.8075,-0.7958,-0.7961,-0.7982,-0.7988,-0.7988,-0.7988,-0.7988,-0.7988,-0.7968,-0.7875,-0.7607,-0.758,-0.7363,-0.6949,-0.6763,-0.6539,-0.631,-0.6095,-0.5959,-0.5956,-0.5833,-0.5739,-0.5732,-0.5559,-0.5464,-0.5464,-0.546,-0.5525,-0.5667,-0.5784,-0.5979,-0.6184,-0.6224,-0.6105,-0.5776,-0.5881,-0.5932,-0.5939,-0.6203,-0.6422,-0.6417,-0.6515,-0.6586,-0.6624,-0.663,-0.6631,-0.6497,-0.6334,-0.6231,-0.6259,-0.6091,-0.6054,-0.621,-0.6416,-0.6532,-0.6545,-0.6651,-0.6756,-0.6844,-0.6763,-0.6678,-0.6668,-0.6668,-0.6658,-0.6603,-0.6559,-0.6491,-0.6444,-0.6378,-0.631,-0.63,-0.63,-0.6286,-0.6265,-0.6282,-0.6186,-0.6027,-0.5959,-0.5895,-0.581,-0.5772,-0.5755,-0.5711,-0.5586,-0.5369,-0.7662,-0.6559,-0.5601,-0.4712,-0.3937,-0.5102,-0.627,-0.738,-0.8358,-0.9077,-0.9539,-0.9449,-0.9256,-0.9018,-0.8733,-0.856,-0.8476,-0.834,-0.8316,-0.8394,-0.854,-0.8642,-0.872,-0.8866,-0.8848,-0.8832,-0.8764,-0.8655,-0.8513,-0.8435,-0.8323,-0.8174,-0.8032,-0.7988,-0.7988,-0.7988,-0.7988,-0.7988,-0.7988,-0.7884,-0.7719,-0.7638,-0.7461,-0.7177,-0.6946,-0.6766,-0.663,-0.6474,-0.6356,-0.6271,-0.6129,-0.6013,-0.5925,-0.5783,-0.5742,-0.5823,-0.5908,-0.6054,-0.6156,-0.6308,-0.6424,-0.6535,-0.6498,-0.6444,-0.6302,-0.6207,-0.6186,-0.6261,-0.6439,-0.6545,-0.6586,-0.6658,-0.6702,-0.6702,-0.6702,-0.6671,-0.6597,-0.6464,-0.6416,-0.6402,-0.6244,-0.6252,-0.6399,-0.6502,-0.6634,-0.6709,-0.6848,-0.6923,-0.6984,-0.694,-0.6909,-0.6841,-0.6782,-0.6783,-0.6719,-0.6647,-0.6566,-0.6532,-0.646,-0.6385,-0.6323,-0.63,-0.63,-0.63,-0.63,-0.6272,-0.6159,-0.6156,-0.6088,-0.5932,-0.5888,-0.5905,-0.5813,-0.563,-0.5378,-0.6335,-0.5018,-0.4054,-0.3165,-0.2712,-0.4122,-0.5105,-0.5845,-0.6766,-0.7694,-0.8498,-0.8843,-0.8839,-0.8626,-0.842,-0.8265,-0.8212,-0.8141,-0.8128,-0.817,-0.8277,-0.8345,-0.8387,-0.8498,-0.8491,-0.8491,-0.8549,-0.8472,-0.8399,-0.844,-0.8401,-0.8286,-0.8066,-0.7988,-0.7988,-0.7988,-0.7988,-0.7988,-0.7988,-0.7917,-0.7814,-0.7702,-0.7563,-0.7415,-0.7153,-0.701,-0.693,-0.6831,-0.6695,-0.6576,-0.6477,-0.6305,-0.6148,-0.6071,-0.6057,-0.6176,-0.6291,-0.6446,-0.6515,-0.663,-0.6702,-0.6702,-0.6702,-0.6698,-0.6681,-0.6535,-0.6439,-0.6508,-0.6559,-0.6634,-0.6732,-0.679,-0.68,-0.68,-0.68,-0.6793,-0.6749,-0.6647,-0.6556,-0.6562,-0.6439,-0.6402,-0.6505,-0.6624,-0.6763,-0.69,-0.7031,-0.7092,-0.7095,-0.7095,-0.7041,-0.6974,-0.6933,-0.6896,-0.6817,-0.677,-0.6695,-0.659,-0.6528,-0.6443,-0.6344,-0.63,-0.63,-0.63,-0.63,-0.6293,-0.6296,-0.6293,-0.6242,-0.6105,-0.6081,-0.6034,-0.5891,-0.5637,-0.5347,-0.4884,-0.3028,-0.2191,-0.1585,-0.136,-0.2341,-0.3137,-0.3813,-0.4732,-0.5221,-0.5565,-0.7058,-0.7714,-0.771,-0.7341,-0.7188,-0.7158,-0.6952,-0.6917,-0.7013,-0.7075,-0.7138,-0.7296,-0.7318,-0.7376,-0.7321,-0.7321,-0.7373,-0.7482,-0.7789,-0.8027,-0.8234,-0.8116,-0.7992,-0.7988,-0.7988,-0.7988,-0.7988,-0.7988,-0.7917,-0.7821,-0.7797,-0.7658,-0.738,-0.7392,-0.7261,-0.7082,-0.694,-0.6859,-0.6878,-0.6694,-0.6651,-0.6586,-0.6617,-0.662,-0.663,-0.6651,-0.6668,-0.6681,-0.6692,-0.6712,-0.6702,-0.6715,-0.6719,-0.6715,-0.6681,-0.6664,-0.6702,-0.6765,-0.6829,-0.6869,-0.6967,-0.7024,-0.7014,-0.7028,-0.7011,-0.6886,-0.6852,-0.6834,-0.6695,-0.6579,-0.6552,-0.663,-0.6695,-0.6814,-0.7001,-0.7065,-0.7095,-0.7095,-0.7095,-0.7092,-0.7071,-0.7071,-0.7065,-0.7018,-0.694,-0.6854,-0.6705,-0.6607,-0.6501,-0.6402,-0.6323,-0.6303,-0.6337,-0.63,-0.63,-0.63,-0.63,-0.6293,-0.6262,-0.62,-0.6221,-0.6023,-0.5783,-0.5454,-0.3454,-0.2023,-0.124,-0.0835,-0.0814,-0.1548,-0.2156,-0.2648,-0.3446,-0.3753,-0.3873,-0.4581,-0.5271,-0.587,-0.5648,-0.5574,-0.5567,-0.5443,-0.5429,-0.5461,-0.5461,-0.5512,-0.5608,-0.5608,-0.5583,-0.559,-0.5588,-0.5791,-0.6301,-0.7116,-0.7892,-0.8464,-0.8296,-0.8133,-0.7998,-0.7988,-0.7944,-0.7864,-0.7941,-0.7958,-0.7943,-0.7855,-0.7753,-0.7631,-0.7511,-0.7346,-0.7272,-0.7003,-0.6713,-0.6503,-0.6312,-0.6114,-0.5871,-0.5865,-0.5904,-0.5978,-0.6055,-0.6183,-0.6319,-0.6442,-0.6572,-0.6747,-0.6877,-0.6959,-0.6916,-0.6959,-0.6963,-0.6916,-0.6896,-0.6913,-0.6997,-0.7061,-0.7095,-0.7095,-0.7095,-0.7071,-0.7021,-0.698,-0.6856,-0.6785,-0.6624,-0.6573,-0.6675,-0.678,-0.6881,-0.697,-0.7034,-0.7095,-0.7095,-0.7095,-0.7095,-0.7095,-0.7095,-0.7095,-0.7088,-0.7055,-0.6947,-0.6829,-0.6787,-0.6692,-0.6539,-0.6388,-0.6323,-0.6405,-0.6347,-0.6303,-0.63,-0.63,-0.63,-0.63,-0.6293,-0.6252,-0.6061,-0.5899,-0.5674,-0.2135,-0.1186,-0.0588,-0.0386,-0.0442,-0.0869,-0.1233,-0.148,-0.1972,-0.2157,-0.2157,-0.2157,-0.2632,-0.3383,-0.3807,-0.4017,-0.4014,-0.3998,-0.3989,-0.3989,-0.3989,-0.4014,-0.4012,-0.4006,-0.4032,-0.3977,-0.4026,-0.4416,-0.5297,-0.6317,-0.7357,-0.8072,-0.7942,-0.7753,-0.7604,-0.7563,-0.7539,-0.7407,-0.7489,-0.7537,-0.7524,-0.7484,-0.7511,-0.7749,-0.7604,-0.7504,-0.737,-0.6998,-0.652,-0.5996,-0.5722,-0.5335,-0.4872,-0.4822,-0.4901,-0.4973,-0.5093,-0.5272,-0.5586,-0.5941,-0.6254,-0.6571,-0.6877,-0.7095,-0.7095,-0.7095,-0.7095,-0.7082,-0.7001,-0.6994,-0.7071,-0.7095,-0.7095,-0.7095,-0.7095,-0.7095,-0.7085,-0.697,-0.6886,-0.6862,-0.6654,-0.6569,-0.6688,-0.6815,-0.6953,-0.697,-0.7038,-0.7095,-0.7095,-0.7095,-0.7095,-0.7095,-0.7095,-0.7095,-0.7095,-0.7088,-0.7031,-0.694,-0.6862,-0.6805,-0.6739,-0.6498,-0.6388,-0.648,-0.6378,-0.631,-0.63,-0.63,-0.63,-0.63,-0.6293,-0.6269,-0.6139,-0.6071,-0.5848,-0.1067,-0.0131,0.0,0.0,0.0,0.0,0.0,0.0,0.0,0.0,0.0,0.0,0.0,-0.0492,-0.212,-0.289,-0.2824,-0.273,-0.2714,-0.2714,-0.2712,-0.2743,-0.2757,-0.2755,-0.2734,-0.2697,-0.2694,-0.3417,-0.4804,-0.5393,-0.6105,-0.6905,-0.6744,-0.6673,-0.6584,-0.6488,-0.6481,-0.6404,-0.6423,-0.6434,-0.6434,-0.6426,-0.681,-0.7492,-0.7746,-0.7553,-0.7332,-0.691,-0.6292,-0.5447,-0.4912,-0.4368,-0.3781,-0.3689,-0.3689,-0.3694,-0.37,-0.3927,-0.4421,-0.5001,-0.563,-0.6124,-0.67,-0.7095,-0.7098,-0.7112,-0.7119,-0.7098,-0.7115,-0.7115,-0.7122,-0.7112,-0.7098,-0.7095,-0.7095,-0.7095,-0.7095,-0.6953,-0.6896,-0.6836,-0.6654,-0.6542,-0.6678,-0.6953,-0.7028,-0.7055,-0.7085,-0.7095,-0.7095,-0.7095,-0.7095,-0.7095,-0.7095,-0.7095,-0.7095,-0.7095,-0.7034,-0.6964,-0.692,-0.6866,-0.6787,-0.6671,-0.6603,-0.6512,-0.6453,-0.6378,-0.6323,-0.63,-0.63,-0.63,-0.63,-0.6265,-0.62,-0.6108,-0.5959,-0.0537,0.0,0.0,0.0,0.0,0.0,0.0,0.0,0.0,0.0,0.0,0.0,0.0,-0.0062,-0.0675,-0.0979,0.0,-0.0973,-0.0971,-0.0971,-0.0971,-0.0963,-0.1009,-0.0948,-0.0993,-0.0971,-0.0968,-0.1753,-0.3131,-0.3721,-0.4486,-0.5174,-0.5186,-0.5018,-0.4953,-0.4918,-0.4845,-0.4753,-0.4792,-0.487,-0.487,-0.487,-0.5053,-0.5365,-0.6293,-0.6707,-0.6664,-0.5871,-0.5202,-0.456,-0.391,-0.3287,-0.2779,-0.2703,-0.2728,-0.2727,-0.2728,-0.2907,-0.34,-0.4069,-0.4694,-0.5366,-0.6166,-0.6745,-0.6938,-0.7138,-0.7288,-0.7299,-0.7387,-0.7431,-0.7394,-0.7216,-0.7095,-0.7095,-0.7098,-0.7105,-0.7051,-0.6936,-0.678,-0.6749,-0.6593,-0.6508,-0.6617,-0.6817,-0.695,-0.697,-0.7038,-0.7088,-0.7098,-0.7098,-0.7095,-0.7098,-0.7095,-0.7095,-0.7095,-0.7095,-0.7075,-0.7048,-0.7018,-0.7011,-0.6933,-0.6903,-0.6892,-0.6742,-0.66,-0.6508,-0.6467,-0.6327,-0.632,-0.63,-0.63,-0.63,-0.6296,-0.6179,-0.6091,-0.0202,0.0,0.0,0.0,0.0,0.0,0.0,0.0,0.0,0.0,0.0,0.0,0.0,0.0,0.0,0.0,0.0,0.0,0.0,0.0,0.0,0.0,0.0,0.0,0.0,0.0,-0.0114,-0.0736,-0.1849,-0.2406,-0.3132,-0.3849,-0.3745,-0.3608,-0.3545,-0.3532,-0.342,-0.3378,-0.3448,-0.3519,-0.3469,-0.3468,-0.3469,-0.3613,-0.4474,-0.5121,-0.5384,-0.4687,-0.397,-0.3374,-0.2678,-0.2094,-0.1569,-0.1495,-0.1479,-0.1479,-0.1479,-0.1702,-0.2195,-0.2819,-0.3578,-0.4383,-0.5453,-0.6222,-0.6633,-0.7086,-0.7383,-0.7455,-0.7529,-0.7597,-0.7563,-0.7411,-0.7243,-0.7243,-0.7243,-0.722,-0.721,-0.7,-0.6824,-0.6725,-0.6678,-0.663,-0.6647,-0.6854,-0.698,-0.6953,-0.7041,-0.7102,-0.72,-0.7122,-0.7122,-0.7152,-0.7122,-0.7105,-0.7095,-0.7095,-0.7095,-0.7078,-0.7068,-0.7088,-0.7095,-0.7095,-0.7048,-0.6913,-0.6817,-0.6675,-0.6566,-0.6409,-0.634,-0.6317,-0.63,-0.63,-0.63,-0.63,-0.6186,0.0,0.0,0.0,0.0,0.0,0.0,0.0,0.0,0.0,0.0,0.0,0.0,0.0,0.0,0.0,0.0,0.0,0.0,0.0,0.0,0.0,0.0,0.0,0.0,0.0,0.0,-0.0283,-0.0673,-0.1234,-0.1569,-0.2073,-0.2513,-0.2529,-0.243,-0.2552,-0.2349,-0.236,-0.2329,-0.2271,-0.232,-0.2371,-0.232,-0.232,-0.232,-0.2467,-0.2845,-0.3674,-0.3329,-0.2771,-0.1963,-0.1431,-0.0803,0.0,0.0,0.0,0.0,0.0,-0.0315,-0.0765,-0.1485,-0.2343,-0.3288,-0.4574,-0.5618,-0.6113,-0.6847,-0.733,-0.7389,-0.7435,-0.7537,-0.7496,-0.7426,-0.749,-0.759,-0.7546,-0.7489,-0.7377,-0.7231,-0.7031,-0.6824,-0.6841,-0.6926,-0.6959,-0.7075,-0.7166,-0.7112,-0.7136,-0.7231,-0.7305,-0.7244,-0.7231,-0.7272,-0.7221,-0.7095,-0.7092,-0.7095,-0.7095,-0.7095,-0.7092,-0.7095,-0.7095,-0.7095,-0.7065,-0.6953,-0.6862,-0.6766,-0.6661,-0.6552,-0.6446,-0.6409,-0.6364,-0.6368,-0.6399,-0.6376,-0.6312,0.0,0.0,0.0,0.0,0.0,0.0,0.0,0.0,0.0,0.0,0.0,0.0,0.0,0.0,0.0,0.0,0.0,0.0,0.0,0.0,0.0,0.0,0.0,0.0,0.0,0.0,-0.0057,0.0,0.0,0.0,-0.0673,-0.0838,0.0,-0.0819,0.0,-0.0738,-0.0724,-0.0771,-0.0762,-0.0757,-0.0757,0.0,0.0,-0.0757,-0.0757,-0.0905,-0.115,-0.1748,-0.1843,-0.1385,-0.0881,-0.0434,0.0,0.0,0.0,0.0,0.0,-0.014,-0.0468,-0.0982,-0.1633,-0.2567,-0.3731,-0.4631,-0.5277,-0.605,-0.6539,-0.6651,-0.6717,-0.677,-0.6767,-0.677,-0.6937,-0.753,-0.7597,-0.755,-0.7529,-0.7394,-0.7224,-0.7071,-0.7139,-0.7224,-0.7255,-0.735,-0.7373,-0.7299,-0.7353,-0.7424,-0.737,-0.7312,-0.7251,-0.7227,-0.7112,-0.7088,-0.7088,-0.7166,-0.72,-0.719,-0.7136,-0.7102,-0.7095,-0.7092,-0.7058,-0.7011,-0.692,-0.6829,-0.6763,-0.6654,-0.6583,-0.6569,-0.6586,-0.6549,-0.6549,-0.6491,-0.64,0.0,0.0,0.0,0.0,0.0,0.0,0.0,0.0,0.0,0.0,0.0,0.0,0.0,0.0,0.0,0.0,0.0,0.0,0.0,0.0,0.0,0.0,0.0,0.0,0.0,0.0,0.0,0.0,0.0,0.0,0.0,0.0,0.0,0.0,0.0,0.0,0.0,0.0,0.0,0.0,0.0,0.0,0.0,0.0,0.0,0.0,0.0,-0.0656,-0.0958,-0.0754,-0.0446,-0.0195,0.0,0.0,0.0,0.0,0.0,-0.0095,-0.0238,-0.0523,-0.0954,-0.1667,-0.2617,-0.3437,-0.4034,-0.4821,-0.5289,-0.5391,-0.5435,-0.5477,-0.5522,-0.5525,-0.5859,-0.6475,-0.7093,-0.7449,-0.7583,-0.7546,-0.7431,-0.735,-0.7397,-0.7463,-0.7463,-0.748,-0.7451,-0.7343,-0.7366,-0.7451,-0.736,-0.7319,-0.7251,-0.72,-0.7177,-0.7156,-0.7132,-0.7183,-0.7258,-0.7251,-0.7234,-0.7132,-0.7095,-0.7095,-0.7078,-0.7038,-0.6967,-0.6889,-0.6831,-0.6736,-0.6641,-0.6695,-0.6642,-0.6671,-0.6617,-0.6525,-0.6394,0.0,0.0,0.0,0.0,0.0,0.0,0.0,0.0,0.0,0.0,0.0,0.0,0.0,0.0,0.0,0.0,0.0,0.0,0.0,0.0,0.0,0.0,0.0,0.0,0.0,0.0,0.0,0.0,0.0,0.0,0.0,0.0,0.0,0.0,0.0,0.0,0.0,0.0,0.0,0.0,0.0,0.0,0.0,0.0,0.0,0.0,0.0,0.0,0.0,0.0,0.0,0.0,0.0,0.0,0.0,0.0,0.0,0.0,0.0,0.0,0.0,-0.0818,-0.1492,-0.2018,-0.2739,-0.3439,-0.3905,-0.4,-0.3966,-0.3969,-0.3969,-0.3969,-0.4262,-0.4922,-0.6289,-0.7245,-0.7734,-0.7709,-0.7645,-0.7628,-0.7617,-0.7567,-0.7494,-0.7441,-0.7353,-0.7275,-0.7255,-0.7326,-0.7356,-0.7353,-0.7275,-0.7241,-0.7234,-0.7234,-0.7234,-0.7329,-0.7397,-0.7397,-0.736,-0.7247,-0.7142,-0.7119,-0.7054,-0.7014,-0.6981,-0.6903,-0.6761,-0.6561,-0.6473,-0.6404,-0.647,-0.6614,-0.6533,-0.6321,-0.5981,0.0,0.0,0.0,0.0,0.0,0.0,0.0,0.0,0.0,0.0,0.0,0.0,0.0,0.0,0.0,0.0,0.0,0.0,0.0,0.0,0.0,0.0,0.0,0.0,0.0,0.0,0.0,0.0,0.0,0.0,0.0,0.0,0.0,0.0,0.0,0.0,0.0,0.0,0.0,0.0,0.0,0.0,0.0,0.0,0.0,0.0,0.0,0.0,0.0,0.0,0.0,0.0,0.0,0.0,0.0,0.0,0.0,0.0,0.0,0.0,0.0,-0.0497,-0.099,-0.1493,-0.1849,-0.2401,-0.2758,-0.2821,-0.2821,-0.282,-0.2821,-0.282,-0.3323,-0.4477,-0.5729,-0.7018,-0.7677,-0.7901,-0.7874,-0.7916,-0.7769,-0.7637,-0.7563,-0.7486,-0.7409,-0.7362,-0.7346,-0.7316,-0.7224,-0.7234,-0.708,-0.7252,-0.7336,-0.7343,-0.7373,-0.7472,-0.7536,-0.755,-0.7516,-0.7412,-0.728,-0.721,-0.704,-0.6908,-0.6854,-0.6799,-0.637,-0.6046,-0.6063,-0.5832,-0.5843,-0.578,-0.5872,-0.576,-0.5294,0.0,0.0,0.0,0.0,0.0,0.0,0.0,0.0,0.0,0.0,0.0,0.0,0.0,0.0,0.0,0.0,0.0,0.0,0.0,0.0,0.0,0.0,0.0,0.0,0.0,0.0,0.0,0.0,0.0,0.0,0.0,0.0,0.0,0.0,0.0,0.0,0.0,0.0,0.0,0.0,0.0,0.0,0.0,0.0,0.0,0.0,0.0,0.0,0.0,0.0,0.0,0.0,0.0,0.0,0.0,0.0,0.0,0.0,0.0,0.0,0.0,-0.0252,0.0,0.0,-0.0908,-0.1211,-0.1413,-0.1363,-0.1363,-0.1413,-0.1412,-0.1564,-0.2268,-0.3221,-0.4422,-0.5727,-0.7086,-0.7279,-0.7335,-0.7316,-0.7267,-0.7161,-0.7078,-0.6982,-0.692,-0.6858,-0.6762,-0.6761,-0.6801,-0.6842,-0.6768,-0.6722,-0.6737,-0.6662,-0.6661,-0.6744,-0.6759,-0.6867,-0.6795,-0.6888,-0.7033,-0.6927,-0.6888,-0.6719,-0.6672,-0.6396,-0.5769,-0.5186,-0.4891,-0.474,-0.4819,-0.4819,-0.4798,-0.4812,-0.4415,0.0,0.0,0.0,0.0,0.0,0.0,0.0,0.0,0.0,0.0,0.0,0.0,0.0,0.0,0.0,0.0,0.0,0.0,0.0,0.0,0.0,0.0,0.0,0.0,0.0,0.0,0.0,0.0,0.0,0.0,0.0,0.0,0.0,0.0,0.0,0.0,0.0,0.0,0.0,0.0,0.0,0.0,0.0,0.0,0.0,0.0,0.0,0.0,0.0,0.0,0.0,0.0,0.0,0.0,0.0,0.0,0.0,0.0,0.0,0.0,0.0,0.0,0.0,0.0,0.0,0.0,0.0,0.0,0.0,0.0,-0.0303,-0.0556,-0.1211,-0.2014,-0.2567,-0.3772,-0.5368,-0.6077,-0.6184,-0.6129,-0.6124,-0.6056,-0.5928,-0.5839,-0.5766,-0.5603,-0.5585,-0.5578,-0.5561,-0.5544,-0.5549,-0.5621,-0.5643,-0.5767,-0.5772,-0.5884,-0.5878,-0.5901,-0.5761,-0.5784,-0.6233,-0.6293,-0.6406,-0.6349,-0.5882,-0.5275,-0.4563,-0.4111,-0.3707,-0.3616,-0.3664,-0.3573,-0.3477,-0.3542,-0.3317,0.0,0.0,0.0,0.0,0.0,0.0,0.0,0.0,0.0,0.0,0.0,0.0,0.0,0.0,0.0,0.0,0.0,0.0,0.0,0.0,0.0,0.0,0.0,0.0,0.0,0.0,0.0,0.0,0.0,0.0,0.0,0.0,0.0,0.0,0.0,0.0,0.0,0.0,0.0,0.0,0.0,0.0,0.0,0.0,0.0,0.0,0.0,0.0,0.0,0.0,0.0,0.0,0.0,0.0,0.0,0.0,0.0,0.0,0.0,0.0,0.0,0.0,0.0,0.0,0.0,0.0,0.0,0.0,0.0,0.0,0.0,-0.0303,-0.0706,-0.1258,-0.1659,-0.2201,-0.3172,-0.4036,-0.4516,-0.4505,-0.4466,-0.4341,-0.4294,-0.4284,-0.422,-0.4199,-0.4214,-0.4193,-0.4212,-0.4273,-0.4344,-0.4421,-0.4431,-0.4499,-0.4583,-0.4619,-0.4636,-0.4712,-0.4611,-0.4522,-0.5008,-0.5315,-0.5334,-0.5133,-0.4819,-0.4148,-0.3429,-0.2819,-0.2416,-0.2459,0.0,-0.237,-0.2322,-0.2352,-0.221,0.0,0.0,0.0,0.0,0.0,0.0,0.0,0.0,0.0,0.0,0.0,0.0,0.0,0.0,0.0,0.0,0.0,0.0,0.0,0.0,0.0,0.0,0.0,0.0,0.0,0.0,0.0,0.0,0.0,0.0,0.0,0.0,0.0,0.0,0.0,0.0,0.0,0.0,0.0,0.0,0.0,0.0,0.0,0.0,0.0,0.0,0.0,0.0,0.0,0.0,0.0,0.0,0.0,0.0,0.0,0.0,0.0,0.0,0.0,0.0,0.0,0.0,0.0,0.0,0.0,0.0,0.0,0.0,0.0,0.0,0.0,-0.0101,0.0,-0.0549,0.0,0.0,0.0,-0.2424,-0.3254,-0.3241,-0.3228,-0.3195,-0.311,-0.2935,-0.2984,-0.3129,-0.3134,-0.3105,-0.3151,-0.321,-0.3209,-0.3221,-0.3223,-0.3234,-0.3253,-0.3314,-0.3311,-0.3367,-0.3354,-0.329,-0.3461,-0.3814,-0.4068,-0.3857,-0.3688,-0.3043,-0.2328,-0.1766,0.0,0.0,0.0,0.0,0.0,0.0,0.0,0.0,0.0,0.0,0.0,0.0,0.0,0.0,0.0,0.0,0.0,0.0,0.0,0.0,0.0,0.0,0.0,0.0,0.0,0.0,0.0,0.0,0.0,0.0,0.0,0.0,0.0,0.0,0.0,0.0,0.0,0.0,0.0,0.0,0.0,0.0,0.0,0.0,0.0,0.0,0.0,0.0,0.0,0.0,0.0,0.0,0.0,0.0,0.0,0.0,0.0,0.0,0.0,0.0,0.0,0.0,0.0,0.0,0.0,0.0,0.0,0.0,0.0,0.0,0.0,0.0,0.0,0.0,0.0,0.0,0.0,0.0,0.0,0.0,0.0,0.0,0.0,0.0,-0.1228,-0.1823,-0.1964,-0.1871,-0.182,-0.1863,-0.1803,-0.1909,0.0,0.0,0.0,0.0,0.0,0.0,0.0,-0.1845,-0.18,-0.1861,0.0,0.0,0.0,0.0,0.0,0.0,-0.2096,-0.2361,-0.2749,-0.2511,-0.1923,-0.1442,-0.0924,0.0,0.0,0.0,0.0,0.0,0.0,0.0,0.0,0.0,0.0,0.0,0.0,0.0,0.0,0.0,0.0,0.0,0.0,0.0,0.0,0.0,0.0,0.0,0.0,0.0,0.0,0.0,0.0,0.0,0.0,0.0,0.0,0.0,0.0,0.0,0.0,0.0,0.0,0.0,0.0,0.0,0.0,0.0,0.0,0.0,0.0,0.0,0.0,0.0,0.0,0.0,0.0,0.0,0.0,0.0,0.0,0.0,0.0,0.0,0.0,0.0,0.0,0.0,0.0,0.0,0.0,0.0,0.0,0.0,0.0,0.0,0.0,0.0,0.0,0.0,0.0,0.0,0.0,0.0,0.0,0.0,0.0,0.0,0.0,0.0,0.0,0.0,0.0,0.0,0.0,0.0,0.0,0.0,0.0,0.0,0.0,0.0,0.0,0.0,-0.035,-0.0351,-0.0353,0.0,0.0,0.0,0.0,0.0,0.0,0.0,-0.0598,-0.1371,-0.155,-0.1203,-0.0668,0.0,0.0,0.0,0.0,0.0,0.0,0.0,0.0,0.0,0.0,0.0,0.0,0.0,0.0,0.0,0.0,0.0,0.0,0.0,0.0,0.0,0.0,0.0,0.0,0.0,0.0,0.0,0.0,0.0,0.0,0.0,0.0,0.0,0.0,0.0,0.0,0.0,0.0,0.0,0.0,0.0,0.0,0.0,0.0,0.0,0.0,0.0,0.0,0.0,0.0,0.0,0.0,0.0,0.0,0.0,0.0,0.0,0.0,0.0,0.0,0.0,0.0,0.0,0.0,0.0,0.0,0.0,0.0,0.0,0.0,0.0,0.0,0.0,0.0,0.0,0.0,0.0,0.0,0.0,0.0,0.0,0.0,0.0,0.0,0.0,0.0,0.0,0.0,0.0,0.0,0.0,0.0,0.0,0.0,0.0,0.0,0.0,0.0,0.0,0.0,0.0,0.0,0.0,0.0,0.0,0.0,0.0,0.0,0.0,0.0,0.0,-0.0549,-0.0545,0.0,0.0,0.0,0.0,0.0,0.0,0.0,0.0,0.0,0.0,0.0,0.0,0.0,0.0,0.0,0.0,0.0,0.0,0.0,0.0,0.0,0.0,0.0,0.0,0.0,0.0,0.0,0.0,0.0,0.0,0.0,0.0,0.0,0.0,0.0,0.0,0.0,0.0,0.0,0.0,0.0,0.0,0.0,0.0,0.0,0.0,0.0,0.0,0.0,0.0,0.0,0.0,0.0,0.0,0.0,0.0,0.0,0.0,0.0,0.0,0.0,0.0,0.0,0.0,0.0,0.0,0.0,0.0,0.0,0.0,0.0,0.0,0.0,0.0,0.0,0.0,0.0,0.0,0.0,0.0,0.0,0.0,0.0,0.0,0.0,0.0,0.0,0.0,0.0,0.0,0.0,0.0,0.0,0.0,0.0,0.0,0.0,0.0,0.0,0.0,0.0,0.0,0.0,0.0,0.0,0.0,0.0,0.0,0.0,0.0,0.0,0.0,0.0,0.0,0.0,0.0,0.0,0.0,0.0,0.0,0.0,0.0,0.0,0.0,0.0,0.0,0.0,0.0,0.0,0.0,0.0,0.0,0.0,0.0,0.0,0.0,0.0,0.0,0.0,0.0,0.0,0.0,0.0,0.0,0.0,0.0,0.0,0.0,0.0,0.0,0.0,0.0,0.0,0.0,0.0,0.0,0.0,0.0,0.0,0.0,0.0,0.0,0.0,0.0,0.0,0.0,0.0,0.0,0.0,0.0,0.0,0.0,0.0,0.0,0.0,0.0,0.0,0.0,0.0,0.0,0.0,0.0,0.0,0.0,0.0,0.0,0.0,0.0,0.0,0.0,0.0,0.0,0.0,0.0,0.0,0.0,0.0,0.0,0.0,0.0,0.0,0.0,0.0,0.0,0.0,0.0,0.0,0.0,0.0,0.0,0.0,0.0,0.0,0.0,0.0,0.0,0.0,0.0,0.0,0.0,0.0,0.0,0.0,0.0,0.0,0.0,0.0,0.0,0.0,0.0,0.0,0.0,0.0,0.0,0.0,0.0,0.0,0.0,0.0,0.0,0.0,0.0,0.0,0.0,0.0,0.0,0.0,0.0,0.0,0.0,0.0,0.0,0.0,0.0,0.0,0.0,0.0,0.0,0.0,0.0,0.0,0.0,0.0,0.0,0.0,0.0,0.0,0.0,0.0,0.0,0.0,0.0,0.0,0.0,0.0,0.0,0.0,0.0,0.0,0.0,0.0,0.0,0.0,0.0,0.0,0.0,0.0,0.0,0.0,0.0,0.0,0.0,0.0,0.0,0.0,0.0,0.0,0.0,0.0,0.0,0.0,0.0,0.0,0.0,0.0,0.0,0.0,0.0,0.0,0.0,0.0,0.0,0.0,0.0,0.0,0.0,0.0,0.0,0.0,0.0,0.0,0.0,0.0,0.0,0.0,0.0,0.0,0.0,0.0,0.0,0.0,0.0,0.0,0.0,0.0,0.0,0.0,0.0,0.0,0.0,0.0,0.0,0.0,0.0,0.0,0.0,0.0,0.0,0.0,0.0,0.0,0.0,0.0,0.0,0.0,0.0,0.0,0.0,0.0,0.0,0.0,0.0,0.0,0.0,0.0,0.0,0.0,0.0,0.0,0.0,0.0,0.0,0.0,0.0,0.0,0.0,0.0,0.0,0.0,0.0,0.0,0.0,0.0,0.0,0.0,0.0,0.0,0.0,0.0,0.0,0.0,0.0,0.0,0.0,0.0,0.0,0.0,0.0,0.0,0.0,0.0,0.0,0.0,0.0,0.0,0.0,0.0,0.0,0.0,0.0,0.0,0.0,0.0,0.0,0.0,0.0,0.0,0.0,0.0,0.0,0.0,0.0,0.0,0.0,0.0,0.0,0.0,0.0,0.0,0.0,0.0,0.0,0.0,0.0,0.0,0.0,0.0,0.0,0.0,0.0,0.0,0.0,0.0,0.0,0.0,0.0,0.0,0.0,0.0,0.0,0.0,0.0,0.0,0.0,0.0,0.0,0.0,0.0,0.0,0.0,0.0,0.0,0.0,0.0,0.0,0.0,0.0,0.0,0.0,0.0,0.0,0.0,0.0,0.0,0.0,0.0,0.0,0.0,0.0,0.0,0.0,0.0,0.0,0.0,0.0,0.0,0.0,0.0,0.0,0.0,0.0,0.0,0.0,0.0,0.0,0.0,0.0,0.0,0.0,0.0,0.0,0.0,0.0,0.0,0.0,0.0,0.0,0.0,0.0,0.0,0.0,0.0,0.0,0.0,0.0,0.0,0.0,0.0,0.0,0.0,0.0,0.0,0.0,0.0,0.0,0.0,0.0,0.0,0.0,0.0,0.0,0.0,0.0,0.0,0.0,0.0,0.0,0.0,0.0,0.0,0.0,0.0,0.0,0.0,0.0,0.0,0.0,0.0,0.0,0.0,0.0,0.0,0.0,0.0,0.0,0.0,0.0,0.0,0.0,0.0,0.0,0.0,0.0,0.0,0.0,0.0,0.0,0.0,0.0,0.0,0.0,0.0,0.0,0.0,0.0,0.0,0.0,0.0,0.0,0.0,0.0,0.0,0.0,0.0,0.0,0.0,0.0,0.0,0.0,0.0,0.0,0.0,0.0,0.0,0.0,0.0,0.0,0.0,0.0,0.0,0.0,0.0,0.0,0.0,0.0,0.0,0.0,0.0,0.0,0.0,0.0,0.0,0.0,0.0,0.0,0.0,0.0,0.0,0.0,0.0,0.0,0.0,0.0,0.0,0.0,0.0,0.0,0.0,0.0,0.0,0.0,0.0,0.0,0.0,0.0,0.0,0.0,0.0,0.0,0.0,0.0,0.0,0.0,0.0,0.0,0.0,0.0,0.0,0.0,0.0,0.0,0.0,0.0,0.0,0.0,0.0,0.0,0.0,0.0,0.0,0.0,0.0,0.0,0.0,0.0,0.0,0.0,0.0,0.0,0.0,0.0,0.0,0.0,0.0,0.0,0.0,0.0,0.0,0.0,0.0,0.0,0.0,0.0,0.0,0.0,0.0,0.0,0.0,0.0,0.0,0.0,0.0,0.0,0.0,0.0,0.0,0.0,0.0,0.0,0.0,0.0,0.0,0.0,0.0,0.0,0.0,0.0,0.0,0.0,0.0,0.0,0.0,0.0,0.0,0.0,0.0,0.0,0.0,0.0,0.0,0.0,0.0,0.0,0.0,0.0,0.0,0.0,0.0,0.0,0.0,0.0,0.0,0.0,0.0,0.0,0.0,0.0,0.0,0.0,0.0,0.0,0.0,0.0,0.0,0.0,0.0,0.0,0.0,0.0,0.0,0.0,0.0,0.0,0.0,0.0,0.0,0.0,0.0,0.0,0.0,0.0,0.0,0.0,0.0,0.0,0.0,0.0,0.0,0.0,0.0,0.0,0.0,0.0,0.0,0.0,0.0,0.0,0.0,0.0,0.0,0.0,0.0,0.0,0.0,0.0,0.0,0.0,0.0,0.0,0.0,0.0,0.0,0.0,0.0,0.0,0.0,0.0,0.0,0.0,0.0,0.0,0.0,0.0,0.0,0.0,0.0,0.0,0.0,0.0,0.0,0.0,0.0,0.0,0.0,0.0,0.0,0.0,0.0,0.0,0.0,0.0,0.0,0.0,0.0,0.0,0.0,0.0,0.0,0.0,0.0,0.0,0.0,0.0,0.0,0.0,0.0,0.0,0.0,0.0,0.0,0.0,0.0,0.0,0.0,0.0,0.0,0.0,0.0,0.0,0.0,0.0,0.0,0.0,0.0,0.0,0.0,0.0,0.0,0.0,0.0,0.0,0.0,0.0,0.0,0.0,0.0,0.0,0.0,0.0,0.0,0.0,0.0,0.0,0.0,0.0,0.0,0.0,0.0,0.0,0.0,0.0,0.0,0.0,0.0,0.0,0.0,0.0,0.0,0.0,0.0,0.0,0.0,0.0,0.0,0.0,0.0,0.0,0.0,0.0,0.0,0.0,0.0,0.0,0.0,0.0,0.0,0.0,0.0,0.0,0.0,0.0,0.0,0.0,0.0,0.0,0.0,0.0,0.0,0.0,0.0,0.0,0.0,0.0,0.0,0.0,0.0,0.0,0.0,0.0,0.0,0.0,0.0,0.0,0.0,0.0,0.0,0.0,0.0,0.0,0.0,0.0,0.0,0.0,0.0,0.0,0.0,0.0,0.0,0.0,0.0,0.0,0.0,0.0,0.0,0.0,0.0,0.0,0.0,0.0,0.0,0.0,0.0,0.0,0.0,0.0,0.0,0.0,0.0,0.0,0.0,0.0,0.0,0.0,0.0,0.0,0.0,0.0,0.0,0.0,0.0,0.0,0.0,0.0,0.0,0.0,0.0,0.0,0.0,0.0,0.0,0.0,0.0,0.0,0.0,0.0,0.0,0.0,0.0,0.0,0.0,0.0,0.0,0.0,0.0,0.0,0.0,0.0,0.0,0.0,0.0,0.0,0.0,0.0,0.0,0.0,0.0,0.0,0.0,0.0,0.0,0.0,0.0,0.0,0.0,0.0,0.0,0.0,0.0,0.0,0.0,0.0,0.0,0.0,0.0,0.0,0.0,0.0,0.0101,0.0353,0.0,0.0454,0.0353,0.0,0.0,0.0,0.0,0.0,0.0,0.0,0.0,0.0,0.0,0.0,0.0,0.0,0.0,0.0,0.0,0.0,0.0,0.0,0.0,0.0,0.0,0.0,0.0,0.0,0.0,0.0,0.0,0.0,0.0,0.0,0.0,0.0,0.0,0.0,0.0,0.0,0.0,0.0,0.0,0.0,0.0,0.0,0.0,0.0,0.0,0.0,0.0,0.0,0.0,0.0,0.0,0.0,0.0,0.0,0.0,0.0,0.0,0.0,0.0,0.0,0.0,0.0,0.0,0.0,0.0,0.0,0.0,0.0,0.0,0.0,0.0,0.0,0.0,0.0,0.0,0.0,0.0,0.0,0.0,0.0,0.0,0.0,0.0,0.0,0.0,0.0,0.0,0.0,0.0,0.0,0.0,0.0,0.0,0.0,0.0,0.0,0.0,0.0,0.0,0.0,0.0,0.0,0.0,0.0,0.0,0.0,0.0,0.0,0.0,0.0252,0.0707,0.111,0.1311,0.1059,0.0606,0.0605,0.0605,0.0,0.0,0.0,0.0,0.0,0.0,0.0,0.0,0.0,0.0,0.0,0.0,0.0,0.0,0.0,0.0,0.0,0.0,0.0,0.0,0.0,0.0,0.0,0.0,0.0,0.0,0.0,0.0,0.0,0.0,0.0,0.0,0.0,0.0,0.0,0.0,0.0,0.0,0.0,0.0,0.0,0.0,0.0,0.0,0.0,0.0,0.0,0.0,0.0,0.0,0.0,0.0,0.0,0.0,0.0,0.0,0.0,0.0,0.0,0.0,0.0,0.0,0.0,0.0,0.0,0.0,0.0,0.0,0.0,0.0,0.0,0.0,0.0,0.0,0.0,0.0,0.0,0.0,0.0,0.0,0.0,0.0,0.0,0.0,0.0,0.0,0.0,0.0,0.0,0.0,0.0,0.0,0.0,0.0,0.0,0.0,0.0,0.0,0.0,0.0,0.0,0.0,0.0,0.0,0.0,0.0101,0.0303,0.0757,0.1312,0.1713,0.2318,0.2316,0.2064,0.1914,0.1914,0.0,0.0,0.0,0.0,0.0,0.0,0.0,0.0,0.0,0.0,0.0,0.0,0.0,0.0,0.0,0.0,0.0,0.0,0.0,0.0,0.0,0.0,0.0,0.0,0.0,0.0,0.0,0.0,0.0,0.0,0.0,0.0,0.0,0.0,0.0,0.0,0.0,0.0,0.0,0.0,0.0,0.0,0.0,0.0,0.0,0.0,0.0,0.0,0.0,0.0,0.0,0.0,0.028,0.0504,0.0,0.0,0.0,0.0,0.0673,0.0841,0.1065,0.1289,0.1345,0.0673,0.0,0.0,0.0,0.0,0.0,0.0,0.0,0.0,0.0,0.0,0.0,0.0,0.0,0.0,0.0,0.0,0.0,0.0,0.0,0.0,0.0,0.0,0.0,0.0,0.0,0.0,0.0,0.0,0.0,0.0,0.0,0.0,0.0,0.0,0.0,0.0,0.0,0.0,0.0,0.0,0.0,0.0353,0.0606,0.1211,0.2117,0.2972,0.3626,0.3572,0.3519,0.3369,0.3219,0.0,0.0,0.0,0.0,0.0,0.0,0.0,0.0,0.0,0.0,0.0,0.0,0.0,0.0,0.0,0.0,0.0,0.0,0.0,0.0,0.0,0.0,0.0,0.0,0.0,0.0,0.0,0.0,0.0,0.0,0.0,0.0,0.0,0.0,0.0,0.0,0.0,0.0,0.0,0.0,0.0,0.0,0.0,0.0,0.0,0.0,0.0,0.0,0.0,0.0,0.0,0.0,0.0617,0.1065,0.14,0.1456,0.1457,0.1456,0.1512,0.1848,0.2297,0.2688,0.2856,0.2575,0.1848,0.0,0.0,0.0,0.0,0.0,0.0,0.0,0.0,0.0,0.0,0.0,0.0,0.0,0.0,0.0,0.0,0.0,0.0,0.0,0.0,0.0,0.0,0.0,0.0,0.0,0.0,0.0,0.0,0.0,0.0,0.0,0.0,0.0,0.0,0.0,0.0,0.0,0.0,0.0,0.0,0.0707,0.1211,0.2218,0.3124,0.4029,0.4983,0.5329,0.5225,0.4926,0.4774,0.0,0.0,0.0,0.0,0.0,0.0,0.0,0.0,0.0,0.0,0.0,0.0,0.0,0.0,0.0,0.0,0.0,0.0,0.0,0.0,0.0,0.0,0.0,0.0,0.0,0.0,0.0,0.0,0.0,0.0,0.0,0.0,0.0,0.0,0.0,0.0,0.0,0.0,0.0,0.0,0.0,0.0,0.0,0.0,0.0,0.0,0.0,0.0,0.0,0.0,0.0,0.0,0.1401,0.2017,0.235,0.2405,0.2519,0.2463,0.2629,0.3021,0.3747,0.4249,0.4639,0.4416,0.3802,0.2854,0.2352,0.224,0.2239,0.2239,0.2295,0.2296,0.224,0.224,0.224,0.224,0.2239,0.1791,0.1065,0.0728,0.0,0.0,0.0,0.0,0.0,0.0,0.0,0.0,0.0,0.0,0.0,0.0,0.0,0.0,0.0,0.0,0.0,0.0,0.0,0.0,0.0,0.0,0.0,0.0499,0.0959,0.1513,0.2116,0.3173,0.4279,0.5329,0.6232,0.7033,0.6933,0.6381,0.6232,0.0,0.0,0.0,0.0,0.0,0.0,0.0,0.0,0.0,0.0,0.0,0.0,0.0,0.0,0.0,0.0,0.0,0.0,0.0,0.0,0.0,0.0,0.0,0.0,0.0,0.0,0.0,0.0,0.0,0.0,0.0,0.0,0.0,0.0,0.0,0.0,0.0,0.0,0.0,0.0,0.0,0.0,0.0,0.0,0.0,0.0,0.0,0.0,0.0,0.0,0.0,0.1569,0.3135,0.3695,0.3807,0.3694,0.386,0.3804,0.397,0.4416,0.5198,0.5646,0.5924,0.5871,0.5423,0.4418,0.3916,0.3858,0.3802,0.3802,0.3802,0.3804,0.3804,0.3804,0.3804,0.3804,0.3802,0.2797,0.1847,0.1176,0.0504,0.0,0.0,0.0,0.0,0.0,0.0,0.0,0.0,0.0,0.0,0.0,0.0,0.0,0.0,0.0,0.0,0.0,0.0,0.0,0.0,0.0,0.0399,0.1152,0.1765,0.2368,0.3222,0.4329,0.5432,0.6431,0.6933,0.7487,0.7686,0.7285,0.7385,0.0,0.0,0.0,0.0,0.0,0.0,0.0,0.0,0.0,0.0,0.0,0.0,0.0,0.0,0.0,0.0,0.0,0.0,0.0,0.0,0.0597,0.0,0.0725,0.0852,0.0,0.0,0.0,0.0,0.0925,0.0,0.0,0.0925,0.0925,0.0925,0.0925,0.0925,0.0864,0.0,0.0555,0.0364,0.0235,0.0,0.0,0.0,0.0,0.0,0.0,0.0,0.0,0.0955,0.1681,0.33,0.4697,0.5369,0.5371,0.5314,0.5369,0.5425,0.5479,0.5868,0.6596,0.7041,0.7376,0.7487,0.7543,0.6647,0.5922,0.5755,0.5254,0.5198,0.5198,0.52,0.52,0.52,0.5144,0.5089,0.4585,0.3748,0.2966,0.2241,0.1625,0.0,0.0,0.0,0.0,0.0,0.0,0.0,0.0,0.0,0.0,0.0224,0.028,0.0,0.0,0.0,0.0,0.0,0.0,0.0,0.0,0.0,0.0808,0.1815,0.2771,0.3525,0.4429,0.5434,0.6284,0.7185,0.7537,0.7839,0.7939,0.7988,0.7889,0.0,0.0,0.0,0.0,0.0,0.0,0.0,0.0,0.0,0.0,0.0,0.0,0.0185,0.0,0.0,0.0,0.0,0.0,0.0592,0.1119,0.1468,0.1888,0.2195,0.2267,0.2341,0.2424,0.2448,0.2459,0.2464,0.2464,0.2464,0.2403,0.2341,0.2403,0.2342,0.2342,0.2341,0.191,0.1539,0.1042,0.0668,0.0,0.0,0.0,0.0,0.0,0.0,0.0,0.0,0.1523,0.2855,0.4751,0.5977,0.6652,0.6649,0.6594,0.6652,0.6652,0.6816,0.7149,0.7931,0.8546,0.8826,0.8881,0.8771,0.8436,0.7709,0.7263,0.6763,0.6594,0.6594,0.6594,0.6594,0.6594,0.6541,0.6374,0.5646,0.492,0.4196,0.3527,0.28,0.2129,0.1681,0.1401,0.0953,0.0617,0.0,0.0,0.0,0.0,0.0,0.0504,0.0784,0.0,0.0,0.0,0.0,0.0,0.0,0.0,0.0356,0.1013,0.1817,0.2821,0.3725,0.4529,0.5381,0.6331,0.7185,0.7789,0.7839,0.7939,0.7939,0.7988,0.7988,0.0,0.0,0.0309,0.0556,0.0802,0.111,0.1356,0.1603,0.1663,0.1603,0.1663,0.154,0.0,0.0,0.0,0.0,0.0,0.07,0.1393,0.1902,0.2594,0.3252,0.374,0.3875,0.4037,0.4083,0.4131,0.4291,0.4086,0.416,0.4301,0.4298,0.4298,0.4301,0.4304,0.4243,0.3937,0.3384,0.2586,0.2027,0.1225,0.0,0.0,0.0,0.0,0.0,0.0,0.0,0.0,0.169,0.3636,0.5699,0.6927,0.7598,0.7595,0.754,0.7601,0.7598,0.7762,0.7986,0.8602,0.8771,0.8937,0.8881,0.8881,0.8826,0.8436,0.8436,0.81,0.81,0.81,0.81,0.81,0.81,0.8045,0.7765,0.726,0.648,0.5755,0.5087,0.4418,0.3748,0.3135,0.2574,0.1792,0.1344,0.0561,0.0,0.0,0.0,0.0336,0.0896,0.1399,0.0,0.0,0.0,0.0,0.0,0.1426,0.1449,0.1631,0.1974,0.2826,0.3945,0.4788,0.5529,0.6381,0.7083,0.7388,0.7839,0.7939,0.7988,0.7988,0.7988,0.7988]}]]